﻿<?xml version="1.0" encoding="utf-8"?><gpx creator="Garmin Desktop App" version="1.1" xsi:schemaLocation="http://www.topografix.com/GPX/1/1 http://www.topografix.com/GPX/1/1/gpx.xsd http://www.garmin.com/xmlschemas/WaypointExtension/v1 http://www8.garmin.com/xmlschemas/WaypointExtensionv1.xsd http://www.garmin.com/xmlschemas/TrackPointExtension/v1 http://www.garmin.com/xmlschemas/TrackPointExtensionv1.xsd http://www.garmin.com/xmlschemas/GpxExtensions/v3 http://www8.garmin.com/xmlschemas/GpxExtensionsv3.xsd http://www.garmin.com/xmlschemas/ActivityExtension/v1 http://www8.garmin.com/xmlschemas/ActivityExtensionv1.xsd http://www.garmin.com/xmlschemas/AdventuresExtensions/v1 http://www8.garmin.com/xmlschemas/AdventuresExtensionv1.xsd http://www.garmin.com/xmlschemas/PressureExtension/v1 http://www.garmin.com/xmlschemas/PressureExtensionv1.xsd http://www.garmin.com/xmlschemas/TripExtensions/v1 http://www.garmin.com/xmlschemas/TripExtensionsv1.xsd http://www.garmin.com/xmlschemas/TripMetaDataExtensions/v1 http://www.garmin.com/xmlschemas/TripMetaDataExtensionsv1.xsd http://www.garmin.com/xmlschemas/ViaPointTransportationModeExtensions/v1 http://www.garmin.com/xmlschemas/ViaPointTransportationModeExtensionsv1.xsd http://www.garmin.com/xmlschemas/CreationTimeExtension/v1 http://www.garmin.com/xmlschemas/CreationTimeExtensionsv1.xsd http://www.garmin.com/xmlschemas/AccelerationExtension/v1 http://www.garmin.com/xmlschemas/AccelerationExtensionv1.xsd http://www.garmin.com/xmlschemas/PowerExtension/v1 http://www.garmin.com/xmlschemas/PowerExtensionv1.xsd http://www.garmin.com/xmlschemas/VideoExtension/v1 http://www.garmin.com/xmlschemas/VideoExtensionv1.xsd" xmlns="http://www.topografix.com/GPX/1/1" xmlns:xsi="http://www.w3.org/2001/XMLSchema-instance" xmlns:wptx1="http://www.garmin.com/xmlschemas/WaypointExtension/v1" xmlns:gpxtrx="http://www.garmin.com/xmlschemas/GpxExtensions/v3" xmlns:gpxtpx="http://www.garmin.com/xmlschemas/TrackPointExtension/v1" xmlns:gpxx="http://www.garmin.com/xmlschemas/GpxExtensions/v3" xmlns:trp="http://www.garmin.com/xmlschemas/TripExtensions/v1" xmlns:adv="http://www.garmin.com/xmlschemas/AdventuresExtensions/v1" xmlns:prs="http://www.garmin.com/xmlschemas/PressureExtension/v1" xmlns:tmd="http://www.garmin.com/xmlschemas/TripMetaDataExtensions/v1" xmlns:vptm="http://www.garmin.com/xmlschemas/ViaPointTransportationModeExtensions/v1" xmlns:ctx="http://www.garmin.com/xmlschemas/CreationTimeExtension/v1" xmlns:gpxacc="http://www.garmin.com/xmlschemas/AccelerationExtension/v1" xmlns:gpxpx="http://www.garmin.com/xmlschemas/PowerExtension/v1" xmlns:vidx1="http://www.garmin.com/xmlschemas/VideoExtension/v1">

  <metadata>
    <link href="http://www.garmin.com">
      <text>Garmin International</text>
    </link>
    <time>2023-01-29T19:12:04Z</time>
    <bounds maxlat="46.262388629838824" maxlon="8.025330221280456" minlat="46.245889356359839" minlon="8.009127750992775" />
  </metadata>

  <trk>
    <name>staldehorn2023-01-29</name>
    <extensions>
      <gpxx:TrackExtension>
        <gpxx:DisplayColor>Yellow</gpxx:DisplayColor>
      </gpxx:TrackExtension>
      <gpxtrkx:TrackStatsExtension xmlns:gpxtrkx="http://www.garmin.com/xmlschemas/TrackStatsExtension/v1">
        <gpxtrkx:Distance>7954</gpxtrkx:Distance>
        <gpxtrkx:TotalElapsedTime>22177</gpxtrkx:TotalElapsedTime>
        <gpxtrkx:MovingTime>10509</gpxtrkx:MovingTime>
        <gpxtrkx:StoppedTime>11660</gpxtrkx:StoppedTime>
        <gpxtrkx:MovingSpeed>0.757</gpxtrkx:MovingSpeed>
        <gpxtrkx:MaxSpeed>4.353</gpxtrkx:MaxSpeed>
        <gpxtrkx:MaxElevation>2469.896</gpxtrkx:MaxElevation>
        <gpxtrkx:MinElevation>1990.399</gpxtrkx:MinElevation>
        <gpxtrkx:Ascent>568</gpxtrkx:Ascent>
        <gpxtrkx:Descent>571.848</gpxtrkx:Descent>
        <gpxtrkx:AvgAscentRate>0.038</gpxtrkx:AvgAscentRate>
        <gpxtrkx:MaxAscentRate>0.335</gpxtrkx:MaxAscentRate>
        <gpxtrkx:AvgDescentRate>0.048</gpxtrkx:AvgDescentRate>
        <gpxtrkx:MaxDescentRate>-0.49</gpxtrkx:MaxDescentRate>
      </gpxtrkx:TrackStatsExtension>
    </extensions>
    <trkseg>
      <trkpt lat="46.245903689414263" lon="8.025018079206348">
        <ele>1999.1900000000001</ele>
        <time>2023-01-29T08:26:28Z</time>
      </trkpt>
      <trkpt lat="46.245902013033628" lon="8.02501036785543">
        <ele>1999.6300000000001</ele>
        <time>2023-01-29T08:26:49Z</time>
      </trkpt>
      <trkpt lat="46.245899079367518" lon="8.025002405047417">
        <ele>2000.1099999999999</ele>
        <time>2023-01-29T08:27:05Z</time>
      </trkpt>
      <trkpt lat="46.245889356359839" lon="8.024974493309856">
        <ele>1999.74</ele>
        <time>2023-01-29T08:27:18Z</time>
      </trkpt>
      <trkpt lat="46.245897822082043" lon="8.024976504966617">
        <ele>1999.97</ele>
        <time>2023-01-29T08:27:33Z</time>
      </trkpt>
      <trkpt lat="46.245910562574863" lon="8.024978348985314">
        <ele>1999.4300000000001</ele>
        <time>2023-01-29T08:27:47Z</time>
      </trkpt>
      <trkpt lat="46.24593386426568" lon="8.025009948760271">
        <ele>1999.9200000000001</ele>
        <time>2023-01-29T08:28:08Z</time>
      </trkpt>
      <trkpt lat="46.245959009975195" lon="8.025075159966946">
        <ele>2000.3299999999999</ele>
        <time>2023-01-29T08:28:20Z</time>
      </trkpt>
      <trkpt lat="46.245940988883376" lon="8.02504163235426">
        <ele>2000.01</ele>
        <time>2023-01-29T08:28:34Z</time>
      </trkpt>
      <trkpt lat="46.245984826236963" lon="8.025066023692489">
        <ele>1999.3499999999999</ele>
        <time>2023-01-29T08:28:47Z</time>
      </trkpt>
      <trkpt lat="46.245996979996562" lon="8.025064514949918">
        <ele>1999.3800000000001</ele>
        <time>2023-01-29T08:28:51Z</time>
      </trkpt>
      <trkpt lat="46.246081469580531" lon="8.025030735880137">
        <ele>1999.4000000000001</ele>
        <time>2023-01-29T08:28:58Z</time>
      </trkpt>
      <trkpt lat="46.246166797354817" lon="8.025017408654094">
        <ele>1999.4200000000001</ele>
        <time>2023-01-29T08:29:11Z</time>
      </trkpt>
      <trkpt lat="46.246205857023597" lon="8.024996034801006">
        <ele>1999.5799999999999</ele>
        <time>2023-01-29T08:29:23Z</time>
      </trkpt>
      <trkpt lat="46.246232930570841" lon="8.025055211037397">
        <ele>2001.1500000000001</ele>
        <time>2023-01-29T08:29:35Z</time>
      </trkpt>
      <trkpt lat="46.246237959712744" lon="8.025061329826713">
        <ele>2001.2</ele>
        <time>2023-01-29T08:29:36Z</time>
      </trkpt>
      <trkpt lat="46.246268972754478" lon="8.025201559066773">
        <ele>2000.55</ele>
        <time>2023-01-29T08:29:49Z</time>
      </trkpt>
      <trkpt lat="46.246298728510737" lon="8.025215389207006">
        <ele>2000.25</ele>
        <time>2023-01-29T08:29:54Z</time>
      </trkpt>
      <trkpt lat="46.24636285007" lon="8.025283366441727">
        <ele>1999.51</ele>
        <time>2023-01-29T08:30:06Z</time>
      </trkpt>
      <trkpt lat="46.24635849148035" lon="8.025280265137553">
        <ele>1998.6800000000001</ele>
        <time>2023-01-29T08:30:20Z</time>
      </trkpt>
      <trkpt lat="46.246360335499048" lon="8.025277582928538">
        <ele>1997.71</ele>
        <time>2023-01-29T08:30:34Z</time>
      </trkpt>
      <trkpt lat="46.246358156204224" lon="8.025274397805333">
        <ele>1997.3800000000001</ele>
        <time>2023-01-29T08:30:49Z</time>
      </trkpt>
      <trkpt lat="46.246348936110735" lon="8.025289569050074">
        <ele>1998.6099999999999</ele>
        <time>2023-01-29T08:31:11Z</time>
      </trkpt>
      <trkpt lat="46.246352456510067" lon="8.025293508544564">
        <ele>1999.9300000000001</ele>
        <time>2023-01-29T08:31:31Z</time>
      </trkpt>
      <trkpt lat="46.246351702138782" lon="8.025286300107837">
        <ele>1999.79</ele>
        <time>2023-01-29T08:31:46Z</time>
      </trkpt>
      <trkpt lat="46.246344996616244" lon="8.025283198803663">
        <ele>2000.04</ele>
        <time>2023-01-29T08:32:06Z</time>
      </trkpt>
      <trkpt lat="46.246347762644291" lon="8.02527666091919">
        <ele>2000.1800000000001</ele>
        <time>2023-01-29T08:32:23Z</time>
      </trkpt>
      <trkpt lat="46.246340302750468" lon="8.025283617898822">
        <ele>2000.0899999999999</ele>
        <time>2023-01-29T08:32:40Z</time>
      </trkpt>
      <trkpt lat="46.24634281732142" lon="8.025279007852078">
        <ele>1999.8499999999999</ele>
        <time>2023-01-29T08:33:05Z</time>
      </trkpt>
      <trkpt lat="46.246343571692705" lon="8.025281773880124">
        <ele>2000.6600000000001</ele>
        <time>2023-01-29T08:33:26Z</time>
      </trkpt>
      <trkpt lat="46.246331753209233" lon="8.025318486616015">
        <ele>2000.98</ele>
        <time>2023-01-29T08:33:30Z</time>
      </trkpt>
      <trkpt lat="46.24632379040122" lon="8.025330221280456">
        <ele>1999.3699999999999</ele>
        <time>2023-01-29T08:33:34Z</time>
      </trkpt>
      <trkpt lat="46.246323455125093" lon="8.025315133854747">
        <ele>1999.6199999999999</ele>
        <time>2023-01-29T08:33:45Z</time>
      </trkpt>
      <trkpt lat="46.246320102363825" lon="8.025307338684797">
        <ele>1999.6700000000001</ele>
        <time>2023-01-29T08:33:58Z</time>
      </trkpt>
      <trkpt lat="46.246320772916079" lon="8.025299711152911">
        <ele>2000.1199999999999</ele>
        <time>2023-01-29T08:34:08Z</time>
      </trkpt>
      <trkpt lat="46.246334686875343" lon="8.02529183216393">
        <ele>2000.49</ele>
        <time>2023-01-29T08:34:31Z</time>
      </trkpt>
      <trkpt lat="46.246333513408899" lon="8.025296274572611">
        <ele>1999.96</ele>
        <time>2023-01-29T08:34:53Z</time>
      </trkpt>
      <trkpt lat="46.24634281732142" lon="8.025294430553913">
        <ele>1999.5599999999999</ele>
        <time>2023-01-29T08:35:17Z</time>
      </trkpt>
      <trkpt lat="46.24634281732142" lon="8.025309601798654">
        <ele>1999.9000000000001</ele>
        <time>2023-01-29T08:35:31Z</time>
      </trkpt>
      <trkpt lat="46.246342062950134" lon="8.02531479857862">
        <ele>1999.8499999999999</ele>
        <time>2023-01-29T08:35:45Z</time>
      </trkpt>
      <trkpt lat="46.246336866170168" lon="8.025296274572611">
        <ele>1999.8099999999999</ele>
        <time>2023-01-29T08:36:03Z</time>
      </trkpt>
      <trkpt lat="46.24633158557117" lon="8.025303231552243">
        <ele>1999.6099999999999</ele>
        <time>2023-01-29T08:36:20Z</time>
      </trkpt>
      <trkpt lat="46.246313564479351" lon="8.025295771658421">
        <ele>2000.1900000000001</ele>
        <time>2023-01-29T08:36:31Z</time>
      </trkpt>
      <trkpt lat="46.246315576136112" lon="8.025290658697486">
        <ele>2000.8399999999999</ele>
        <time>2023-01-29T08:36:45Z</time>
      </trkpt>
      <trkpt lat="46.246341057121754" lon="8.025304740294814">
        <ele>2001.3099999999999</ele>
        <time>2023-01-29T08:36:55Z</time>
      </trkpt>
      <trkpt lat="46.24633208848536" lon="8.025296190753579">
        <ele>2001.53</ele>
        <time>2023-01-29T08:37:05Z</time>
      </trkpt>
      <trkpt lat="46.246333597227931" lon="8.025304991751909">
        <ele>2001.45</ele>
        <time>2023-01-29T08:37:18Z</time>
      </trkpt>
      <trkpt lat="46.246329322457314" lon="8.025307841598988">
        <ele>2001.6400000000001</ele>
        <time>2023-01-29T08:37:34Z</time>
      </trkpt>
      <trkpt lat="46.246337285265326" lon="8.02530599758029">
        <ele>2001.6199999999999</ele>
        <time>2023-01-29T08:37:49Z</time>
      </trkpt>
      <trkpt lat="46.246344493702054" lon="8.02530306391418">
        <ele>2002.1300000000001</ele>
        <time>2023-01-29T08:38:07Z</time>
      </trkpt>
      <trkpt lat="46.24632915481925" lon="8.02531429566443">
        <ele>2002.01</ele>
        <time>2023-01-29T08:38:14Z</time>
      </trkpt>
      <trkpt lat="46.246297135949135" lon="8.025261154398322">
        <ele>2002.1199999999999</ele>
        <time>2023-01-29T08:38:24Z</time>
      </trkpt>
      <trkpt lat="46.246328903362155" lon="8.025308847427368">
        <ele>2001.5599999999999</ele>
        <time>2023-01-29T08:38:36Z</time>
      </trkpt>
      <trkpt lat="46.246351785957813" lon="8.02531136199832">
        <ele>2000.9300000000001</ele>
        <time>2023-01-29T08:38:46Z</time>
      </trkpt>
      <trkpt lat="46.246373411267996" lon="8.025302728638053">
        <ele>2000.75</ele>
        <time>2023-01-29T08:38:57Z</time>
      </trkpt>
      <trkpt lat="46.246356647461653" lon="8.025244725868106">
        <ele>2000.4200000000001</ele>
        <time>2023-01-29T08:39:15Z</time>
      </trkpt>
      <trkpt lat="46.246378943324089" lon="8.02519460208714">
        <ele>1999.4300000000001</ele>
        <time>2023-01-29T08:39:25Z</time>
      </trkpt>
      <trkpt lat="46.246385565027595" lon="8.02516627125442">
        <ele>1999.2</ele>
        <time>2023-01-29T08:39:37Z</time>
      </trkpt>
      <trkpt lat="46.24643518589437" lon="8.025160487741232">
        <ele>1998.6400000000001</ele>
        <time>2023-01-29T08:39:52Z</time>
      </trkpt>
      <trkpt lat="46.24650601297617" lon="8.025167193263769">
        <ele>1997.5</ele>
        <time>2023-01-29T08:40:00Z</time>
      </trkpt>
      <trkpt lat="46.246581031009555" lon="8.025126960128546">
        <ele>1997.77</ele>
        <time>2023-01-29T08:40:11Z</time>
      </trkpt>
      <trkpt lat="46.246599555015564" lon="8.025115225464106">
        <ele>1997.6800000000001</ele>
        <time>2023-01-29T08:40:15Z</time>
      </trkpt>
      <trkpt lat="46.246610200032592" lon="8.025116818025708">
        <ele>1997.49</ele>
        <time>2023-01-29T08:40:16Z</time>
      </trkpt>
      <trkpt lat="46.246621012687683" lon="8.025114974007011">
        <ele>1997.54</ele>
        <time>2023-01-29T08:40:17Z</time>
      </trkpt>
      <trkpt lat="46.246700473129749" lon="8.025076249614358">
        <ele>1998.1099999999999</ele>
        <time>2023-01-29T08:40:26Z</time>
      </trkpt>
      <trkpt lat="46.24676794745028" lon="8.025030065327883">
        <ele>1998.8699999999999</ele>
        <time>2023-01-29T08:40:34Z</time>
      </trkpt>
      <trkpt lat="46.246902141720057" lon="8.025009864941239">
        <ele>1999.4200000000001</ele>
        <time>2023-01-29T08:40:48Z</time>
      </trkpt>
      <trkpt lat="46.247036922723055" lon="8.024951694533229">
        <ele>1999.04</ele>
        <time>2023-01-29T08:41:02Z</time>
      </trkpt>
      <trkpt lat="46.247084951028228" lon="8.024910539388657">
        <ele>1998.3900000000001</ele>
        <time>2023-01-29T08:41:08Z</time>
      </trkpt>
      <trkpt lat="46.24711437150836" lon="8.024872066453099">
        <ele>1998.49</ele>
        <time>2023-01-29T08:41:12Z</time>
      </trkpt>
      <trkpt lat="46.247279578819871" lon="8.024827810004354">
        <ele>1997.8599999999999</ele>
        <time>2023-01-29T08:41:28Z</time>
      </trkpt>
      <trkpt lat="46.247416539117694" lon="8.024831749498844">
        <ele>1998.77</ele>
        <time>2023-01-29T08:41:42Z</time>
      </trkpt>
      <trkpt lat="46.247586524114013" lon="8.024799898266792">
        <ele>2001.1800000000001</ele>
        <time>2023-01-29T08:41:58Z</time>
      </trkpt>
      <trkpt lat="46.247724574059248" lon="8.024704093113542">
        <ele>2002.3599999999999</ele>
        <time>2023-01-29T08:42:13Z</time>
      </trkpt>
      <trkpt lat="46.247859271243215" lon="8.024589847773314">
        <ele>2001.9300000000001</ele>
        <time>2023-01-29T08:42:30Z</time>
      </trkpt>
      <trkpt lat="46.247963961213827" lon="8.024573419243097">
        <ele>2006.8599999999999</ele>
        <time>2023-01-29T08:42:43Z</time>
      </trkpt>
      <trkpt lat="46.248047025874257" lon="8.024516841396689">
        <ele>2005.04</ele>
        <time>2023-01-29T08:42:53Z</time>
      </trkpt>
      <trkpt lat="46.248120032250881" lon="8.024507705122232">
        <ele>2005.79</ele>
        <time>2023-01-29T08:43:05Z</time>
      </trkpt>
      <trkpt lat="46.248140148818493" lon="8.02450368180871">
        <ele>2005.6500000000001</ele>
        <time>2023-01-29T08:43:07Z</time>
      </trkpt>
      <trkpt lat="46.248227572068572" lon="8.02448415197432">
        <ele>2006.01</ele>
        <time>2023-01-29T08:43:21Z</time>
      </trkpt>
      <trkpt lat="46.248217597603798" lon="8.024472333490849">
        <ele>2005.1900000000001</ele>
        <time>2023-01-29T08:43:37Z</time>
      </trkpt>
      <trkpt lat="46.248205611482263" lon="8.024482391774654">
        <ele>2005.1199999999999</ele>
        <time>2023-01-29T08:43:59Z</time>
      </trkpt>
      <trkpt lat="46.248205443844199" lon="8.024481553584337">
        <ele>2004.49</ele>
        <time>2023-01-29T08:44:21Z</time>
      </trkpt>
      <trkpt lat="46.248203264549375" lon="8.024463281035423">
        <ele>2004.6700000000001</ele>
        <time>2023-01-29T08:44:34Z</time>
      </trkpt>
      <trkpt lat="46.248199911788106" lon="8.024465460330248">
        <ele>2004.3900000000001</ele>
        <time>2023-01-29T08:44:59Z</time>
      </trkpt>
      <trkpt lat="46.248209802433848" lon="8.024468142539263">
        <ele>2004.9000000000001</ele>
        <time>2023-01-29T08:45:14Z</time>
      </trkpt>
      <trkpt lat="46.248206868767738" lon="8.024489600211382">
        <ele>2005.26</ele>
        <time>2023-01-29T08:45:41Z</time>
      </trkpt>
      <trkpt lat="46.2481898535043" lon="8.024485995993018">
        <ele>2004.76</ele>
        <time>2023-01-29T08:45:51Z</time>
      </trkpt>
      <trkpt lat="46.248183231800795" lon="8.024483984336257">
        <ele>2004.24</ele>
        <time>2023-01-29T08:46:11Z</time>
      </trkpt>
      <trkpt lat="46.248198319226503" lon="8.024470824748278">
        <ele>2003.8199999999999</ele>
        <time>2023-01-29T08:46:27Z</time>
      </trkpt>
      <trkpt lat="46.248216927051544" lon="8.024471746757627">
        <ele>2003.8900000000001</ele>
        <time>2023-01-29T08:46:39Z</time>
      </trkpt>
      <trkpt lat="46.248215921223164" lon="8.024470992386341">
        <ele>2004.3399999999999</ele>
        <time>2023-01-29T08:46:58Z</time>
      </trkpt>
      <trkpt lat="46.248202510178089" lon="8.024477949365974">
        <ele>2003.4100000000001</ele>
        <time>2023-01-29T08:47:16Z</time>
      </trkpt>
      <trkpt lat="46.248222962021828" lon="8.02446554414928">
        <ele>2003.49</ele>
        <time>2023-01-29T08:47:33Z</time>
      </trkpt>
      <trkpt lat="46.248229248449206" lon="8.024460431188345">
        <ele>2003.27</ele>
        <time>2023-01-29T08:47:43Z</time>
      </trkpt>
      <trkpt lat="46.248229499906301" lon="8.024462442845106">
        <ele>2002.8099999999999</ele>
        <time>2023-01-29T08:48:01Z</time>
      </trkpt>
      <trkpt lat="46.248223045840859" lon="8.024467220529914">
        <ele>2003.4100000000001</ele>
        <time>2023-01-29T08:48:20Z</time>
      </trkpt>
      <trkpt lat="46.248223297297955" lon="8.02446847781539">
        <ele>2003.6400000000001</ele>
        <time>2023-01-29T08:48:39Z</time>
      </trkpt>
      <trkpt lat="46.24823335558176" lon="8.024467388167977">
        <ele>2003.4100000000001</ele>
        <time>2023-01-29T08:48:57Z</time>
      </trkpt>
      <trkpt lat="46.248235451057553" lon="8.024469902738929">
        <ele>2002.73</ele>
        <time>2023-01-29T08:49:18Z</time>
      </trkpt>
      <trkpt lat="46.248245928436518" lon="8.02445724606514">
        <ele>2002.72</ele>
        <time>2023-01-29T08:49:35Z</time>
      </trkpt>
      <trkpt lat="46.248244419693947" lon="8.024455821141601">
        <ele>2002.79</ele>
        <time>2023-01-29T08:50:01Z</time>
      </trkpt>
      <trkpt lat="46.248238300904632" lon="8.024463867768645">
        <ele>2002.6800000000001</ele>
        <time>2023-01-29T08:50:16Z</time>
      </trkpt>
      <trkpt lat="46.248244335874915" lon="8.024465963244438">
        <ele>2002.46</ele>
        <time>2023-01-29T08:50:38Z</time>
      </trkpt>
      <trkpt lat="46.248245341703296" lon="8.024465376511216">
        <ele>2002.55</ele>
        <time>2023-01-29T08:50:55Z</time>
      </trkpt>
      <trkpt lat="46.248244252055883" lon="8.024474680423737">
        <ele>2002.4200000000001</ele>
        <time>2023-01-29T08:51:10Z</time>
      </trkpt>
      <trkpt lat="46.248243916779757" lon="8.024471495300531">
        <ele>2001.71</ele>
        <time>2023-01-29T08:51:28Z</time>
      </trkpt>
      <trkpt lat="46.248240564018488" lon="8.024481972679496">
        <ele>2001.5899999999999</ele>
        <time>2023-01-29T08:51:44Z</time>
      </trkpt>
      <trkpt lat="46.248235451057553" lon="8.02448314614594">
        <ele>2001.48</ele>
        <time>2023-01-29T08:52:03Z</time>
      </trkpt>
      <trkpt lat="46.248236792162061" lon="8.024484738707542">
        <ele>2001.3399999999999</ele>
        <time>2023-01-29T08:52:19Z</time>
      </trkpt>
      <trkpt lat="46.248238133266568" lon="8.024480966851115">
        <ele>2001.05</ele>
        <time>2023-01-29T08:52:36Z</time>
      </trkpt>
      <trkpt lat="46.248240815475583" lon="8.024477446451783">
        <ele>2000.6199999999999</ele>
        <time>2023-01-29T08:53:00Z</time>
      </trkpt>
      <trkpt lat="46.248244754970074" lon="8.024473758414388">
        <ele>2000.1600000000001</ele>
        <time>2023-01-29T08:53:19Z</time>
      </trkpt>
      <trkpt lat="46.248245844617486" lon="8.024470070376992">
        <ele>1999.78</ele>
        <time>2023-01-29T08:53:38Z</time>
      </trkpt>
      <trkpt lat="46.248247940093279" lon="8.024464622139931">
        <ele>1999.1300000000001</ele>
        <time>2023-01-29T08:53:57Z</time>
      </trkpt>
      <trkpt lat="46.24824651516974" lon="8.024469651281834">
        <ele>1999.0899999999999</ele>
        <time>2023-01-29T08:54:15Z</time>
      </trkpt>
      <trkpt lat="46.248247101902962" lon="8.024468645453453">
        <ele>1998.79</ele>
        <time>2023-01-29T08:54:34Z</time>
      </trkpt>
      <trkpt lat="46.248246347531676" lon="8.024460431188345">
        <ele>1999.1400000000001</ele>
        <time>2023-01-29T08:55:02Z</time>
      </trkpt>
      <trkpt lat="46.248249616473913" lon="8.024461353197694">
        <ele>1999.45</ele>
        <time>2023-01-29T08:55:22Z</time>
      </trkpt>
      <trkpt lat="46.248247688636184" lon="8.024461353197694">
        <ele>1999.8499999999999</ele>
        <time>2023-01-29T08:55:41Z</time>
      </trkpt>
      <trkpt lat="46.248243246227503" lon="8.024467555806041">
        <ele>2000.6199999999999</ele>
        <time>2023-01-29T08:55:58Z</time>
      </trkpt>
      <trkpt lat="46.248246263712645" lon="8.024465292692184">
        <ele>2000.9300000000001</ele>
        <time>2023-01-29T08:56:13Z</time>
      </trkpt>
      <trkpt lat="46.248240061104298" lon="8.024460598826408">
        <ele>2001.0799999999999</ele>
        <time>2023-01-29T08:56:25Z</time>
      </trkpt>
      <trkpt lat="46.248236540704966" lon="8.024468729272485">
        <ele>2001.6300000000001</ele>
        <time>2023-01-29T08:56:39Z</time>
      </trkpt>
      <trkpt lat="46.248233523219824" lon="8.024471076205373">
        <ele>2001.72</ele>
        <time>2023-01-29T08:56:54Z</time>
      </trkpt>
      <trkpt lat="46.248237378895283" lon="8.024461017921567">
        <ele>2001.54</ele>
        <time>2023-01-29T08:57:13Z</time>
      </trkpt>
      <trkpt lat="46.248239642009139" lon="8.02445531822741">
        <ele>2001.29</ele>
        <time>2023-01-29T08:57:31Z</time>
      </trkpt>
      <trkpt lat="46.248238803818822" lon="8.02445967681706">
        <ele>2001.26</ele>
        <time>2023-01-29T08:57:50Z</time>
      </trkpt>
      <trkpt lat="46.248235870152712" lon="8.024460347369313">
        <ele>2001.3699999999999</ele>
        <time>2023-01-29T08:58:10Z</time>
      </trkpt>
      <trkpt lat="46.248237295076251" lon="8.024465460330248">
        <ele>2001.77</ele>
        <time>2023-01-29T08:58:28Z</time>
      </trkpt>
      <trkpt lat="46.24825481325388" lon="8.024461520835757">
        <ele>2002.1600000000001</ele>
        <time>2023-01-29T08:58:40Z</time>
      </trkpt>
      <trkpt lat="46.24833251349628" lon="8.024427574127913">
        <ele>2002.3299999999999</ele>
        <time>2023-01-29T08:58:52Z</time>
      </trkpt>
      <trkpt lat="46.248473161831498" lon="8.024369990453124">
        <ele>2003.0699999999999</ele>
        <time>2023-01-29T08:59:06Z</time>
      </trkpt>
      <trkpt lat="46.248626885935664" lon="8.024356747046113">
        <ele>2005.51</ele>
        <time>2023-01-29T08:59:22Z</time>
      </trkpt>
      <trkpt lat="46.248747166246176" lon="8.024359848350287">
        <ele>2008.3299999999999</ele>
        <time>2023-01-29T08:59:37Z</time>
      </trkpt>
      <trkpt lat="46.248820843175054" lon="8.024353897199035">
        <ele>2007.4000000000001</ele>
        <time>2023-01-29T08:59:46Z</time>
      </trkpt>
      <trkpt lat="46.248956127092242" lon="8.024324644356966">
        <ele>2007.49</ele>
        <time>2023-01-29T09:00:02Z</time>
      </trkpt>
      <trkpt lat="46.249042293056846" lon="8.024263456463814">
        <ele>2006.2</ele>
        <time>2023-01-29T09:00:15Z</time>
      </trkpt>
      <trkpt lat="46.249067774042487" lon="8.024233784526587">
        <ele>2006.0799999999999</ele>
        <time>2023-01-29T09:00:19Z</time>
      </trkpt>
      <trkpt lat="46.249192245304585" lon="8.02411861717701">
        <ele>2007.1800000000001</ele>
        <time>2023-01-29T09:00:36Z</time>
      </trkpt>
      <trkpt lat="46.249279752373695" lon="8.024074109271169">
        <ele>2008.49</ele>
        <time>2023-01-29T09:00:48Z</time>
      </trkpt>
      <trkpt lat="46.249301712960005" lon="8.024071091786027">
        <ele>2009.05</ele>
        <time>2023-01-29T09:00:51Z</time>
      </trkpt>
      <trkpt lat="46.249408246949315" lon="8.024072600528598">
        <ele>2011.3699999999999</ele>
        <time>2023-01-29T09:01:06Z</time>
      </trkpt>
      <trkpt lat="46.249515619128942" lon="8.024040497839451">
        <ele>2011.77</ele>
        <time>2023-01-29T09:01:20Z</time>
      </trkpt>
      <trkpt lat="46.249530203640461" lon="8.02403069101274">
        <ele>2011.8900000000001</ele>
        <time>2023-01-29T09:01:22Z</time>
      </trkpt>
      <trkpt lat="46.249608909711242" lon="8.023959193378687">
        <ele>2013.75</ele>
        <time>2023-01-29T09:01:36Z</time>
      </trkpt>
      <trkpt lat="46.249621482565999" lon="8.023906974121928">
        <ele>2014.79</ele>
        <time>2023-01-29T09:01:47Z</time>
      </trkpt>
      <trkpt lat="46.249614357948303" lon="8.023915104568005">
        <ele>2014.55</ele>
        <time>2023-01-29T09:01:59Z</time>
      </trkpt>
      <trkpt lat="46.249617710709572" lon="8.023919463157654">
        <ele>2014.5799999999999</ele>
        <time>2023-01-29T09:02:13Z</time>
      </trkpt>
      <trkpt lat="46.249618716537952" lon="8.023932371288538">
        <ele>2014.46</ele>
        <time>2023-01-29T09:02:36Z</time>
      </trkpt>
      <trkpt lat="46.249618213623762" lon="8.02392122335732">
        <ele>2013.54</ele>
        <time>2023-01-29T09:02:50Z</time>
      </trkpt>
      <trkpt lat="46.249617962166667" lon="8.023921307176352">
        <ele>2013.4000000000001</ele>
        <time>2023-01-29T09:02:59Z</time>
      </trkpt>
      <trkpt lat="46.249638833105564" lon="8.02384352311492">
        <ele>2013.1800000000001</ele>
        <time>2023-01-29T09:03:13Z</time>
      </trkpt>
      <trkpt lat="46.249687951058149" lon="8.023731457069516">
        <ele>2013.4100000000001</ele>
        <time>2023-01-29T09:03:25Z</time>
      </trkpt>
      <trkpt lat="46.249745283275843" lon="8.023603716865182">
        <ele>2014.72</ele>
        <time>2023-01-29T09:03:39Z</time>
      </trkpt>
      <trkpt lat="46.249801190569997" lon="8.023528028279543">
        <ele>2016.75</ele>
        <time>2023-01-29T09:03:51Z</time>
      </trkpt>
      <trkpt lat="46.249844441190362" lon="8.023496428504586">
        <ele>2018.77</ele>
        <time>2023-01-29T09:04:01Z</time>
      </trkpt>
      <trkpt lat="46.249881824478507" lon="8.023458961397409">
        <ele>2021.02</ele>
        <time>2023-01-29T09:04:12Z</time>
      </trkpt>
      <trkpt lat="46.249898672103882" lon="8.023455273360014">
        <ele>2022.1900000000001</ele>
        <time>2023-01-29T09:04:20Z</time>
      </trkpt>
      <trkpt lat="46.249908898025751" lon="8.023460302501917">
        <ele>2022.6900000000001</ele>
        <time>2023-01-29T09:04:30Z</time>
      </trkpt>
      <trkpt lat="46.249907137826085" lon="8.023453513160348">
        <ele>2022.71</ele>
        <time>2023-01-29T09:04:44Z</time>
      </trkpt>
      <trkpt lat="46.249903701245785" lon="8.023449238389731">
        <ele>2022.51</ele>
        <time>2023-01-29T09:05:08Z</time>
      </trkpt>
      <trkpt lat="46.249904120340943" lon="8.023448819294572">
        <ele>2022.4200000000001</ele>
        <time>2023-01-29T09:05:37Z</time>
      </trkpt>
      <trkpt lat="46.249902360141277" lon="8.02344630472362">
        <ele>2022.3499999999999</ele>
        <time>2023-01-29T09:06:08Z</time>
      </trkpt>
      <trkpt lat="46.249957932159305" lon="8.023410178720951">
        <ele>2024.1099999999999</ele>
        <time>2023-01-29T09:06:20Z</time>
      </trkpt>
      <trkpt lat="46.250043343752623" lon="8.0233109369874">
        <ele>2026.76</ele>
        <time>2023-01-29T09:06:34Z</time>
      </trkpt>
      <trkpt lat="46.250020125880837" lon="8.023239439353347">
        <ele>2028.51</ele>
        <time>2023-01-29T09:06:47Z</time>
      </trkpt>
      <trkpt lat="46.250026244670153" lon="8.023249162361026">
        <ele>2028.21</ele>
        <time>2023-01-29T09:07:06Z</time>
      </trkpt>
      <trkpt lat="46.250029848888516" lon="8.023257125169039">
        <ele>2028.23</ele>
        <time>2023-01-29T09:07:16Z</time>
      </trkpt>
      <trkpt lat="46.250032614916563" lon="8.023249329999089">
        <ele>2028.0799999999999</ele>
        <time>2023-01-29T09:07:29Z</time>
      </trkpt>
      <trkpt lat="46.25003295019269" lon="8.023243881762028">
        <ele>2028.1900000000001</ele>
        <time>2023-01-29T09:07:39Z</time>
      </trkpt>
      <trkpt lat="46.250036470592022" lon="8.023238349705935">
        <ele>2028.03</ele>
        <time>2023-01-29T09:07:58Z</time>
      </trkpt>
      <trkpt lat="46.250037811696529" lon="8.023235416039825">
        <ele>2028.22</ele>
        <time>2023-01-29T09:08:15Z</time>
      </trkpt>
      <trkpt lat="46.250022556632757" lon="8.02322787232697">
        <ele>2028.6500000000001</ele>
        <time>2023-01-29T09:08:24Z</time>
      </trkpt>
      <trkpt lat="46.250014342367649" lon="8.023161655291915">
        <ele>2029.95</ele>
        <time>2023-01-29T09:08:34Z</time>
      </trkpt>
      <trkpt lat="46.249972432851791" lon="8.023152183741331">
        <ele>2031.0699999999999</ele>
        <time>2023-01-29T09:08:46Z</time>
      </trkpt>
      <trkpt lat="46.249927505850792" lon="8.023183699697256">
        <ele>2032.1900000000001</ele>
        <time>2023-01-29T09:09:00Z</time>
      </trkpt>
      <trkpt lat="46.249916860833764" lon="8.023145059123635">
        <ele>2033.47</ele>
        <time>2023-01-29T09:09:12Z</time>
      </trkpt>
      <trkpt lat="46.249891798943281" lon="8.02315067499876">
        <ele>2033.71</ele>
        <time>2023-01-29T09:09:23Z</time>
      </trkpt>
      <trkpt lat="46.249897414818406" lon="8.023171462118626">
        <ele>2033.76</ele>
        <time>2023-01-29T09:09:32Z</time>
      </trkpt>
      <trkpt lat="46.249957596883178" lon="8.023229129612446">
        <ele>2030.9300000000001</ele>
        <time>2023-01-29T09:09:42Z</time>
      </trkpt>
      <trkpt lat="46.250008642673492" lon="8.023260645568371">
        <ele>2029.1600000000001</ele>
        <time>2023-01-29T09:09:55Z</time>
      </trkpt>
      <trkpt lat="46.250004451721907" lon="8.023254442960024">
        <ele>2029.71</ele>
        <time>2023-01-29T09:10:13Z</time>
      </trkpt>
      <trkpt lat="46.250002272427082" lon="8.023252096027136">
        <ele>2029.8299999999999</ele>
        <time>2023-01-29T09:10:32Z</time>
      </trkpt>
      <trkpt lat="46.249992130324244" lon="8.023256370797753">
        <ele>2029.79</ele>
        <time>2023-01-29T09:10:43Z</time>
      </trkpt>
      <trkpt lat="46.249994058161974" lon="8.023271625861526">
        <ele>2029.4400000000001</ele>
        <time>2023-01-29T09:10:52Z</time>
      </trkpt>
      <trkpt lat="46.250005541369319" lon="8.023261986672878">
        <ele>2028.8399999999999</ele>
        <time>2023-01-29T09:11:19Z</time>
      </trkpt>
      <trkpt lat="46.249941000714898" lon="8.023248575627804">
        <ele>2029.96</ele>
        <time>2023-01-29T09:11:29Z</time>
      </trkpt>
      <trkpt lat="46.249904874712229" lon="8.023227453231812">
        <ele>2031.01</ele>
        <time>2023-01-29T09:11:42Z</time>
      </trkpt>
      <trkpt lat="46.24991568736732" lon="8.023230973631144">
        <ele>2030.22</ele>
        <time>2023-01-29T09:12:03Z</time>
      </trkpt>
      <trkpt lat="46.249917279928923" lon="8.023211695253849">
        <ele>2030.0799999999999</ele>
        <time>2023-01-29T09:12:26Z</time>
      </trkpt>
      <trkpt lat="46.249906634911895" lon="8.0232039000839">
        <ele>2029.75</ele>
        <time>2023-01-29T09:12:40Z</time>
      </trkpt>
      <trkpt lat="46.249895822256804" lon="8.023203816264868">
        <ele>2029.49</ele>
        <time>2023-01-29T09:12:57Z</time>
      </trkpt>
      <trkpt lat="46.249846452847123" lon="8.023142712190747">
        <ele>2031.98</ele>
        <time>2023-01-29T09:13:08Z</time>
      </trkpt>
      <trkpt lat="46.249849135056138" lon="8.023137180134654">
        <ele>2032.24</ele>
        <time>2023-01-29T09:13:22Z</time>
      </trkpt>
      <trkpt lat="46.249850392341614" lon="8.023133492097259">
        <ele>2031.6900000000001</ele>
        <time>2023-01-29T09:13:35Z</time>
      </trkpt>
      <trkpt lat="46.24984921887517" lon="8.023108346387744">
        <ele>2032.3299999999999</ele>
        <time>2023-01-29T09:13:45Z</time>
      </trkpt>
      <trkpt lat="46.249857349321246" lon="8.023114884272218">
        <ele>2031.96</ele>
        <time>2023-01-29T09:14:04Z</time>
      </trkpt>
      <trkpt lat="46.249868161976337" lon="8.023115387186408">
        <ele>2031.54</ele>
        <time>2023-01-29T09:14:17Z</time>
      </trkpt>
      <trkpt lat="46.249875454232097" lon="8.023132653906941">
        <ele>2031.3199999999999</ele>
        <time>2023-01-29T09:14:31Z</time>
      </trkpt>
      <trkpt lat="46.249903198331594" lon="8.023159559816122">
        <ele>2030.3299999999999</ele>
        <time>2023-01-29T09:14:43Z</time>
      </trkpt>
      <trkpt lat="46.249913088977337" lon="8.023170121014118">
        <ele>2029.21</ele>
        <time>2023-01-29T09:14:55Z</time>
      </trkpt>
      <trkpt lat="46.249901605769992" lon="8.023199709132314">
        <ele>2028.22</ele>
        <time>2023-01-29T09:15:05Z</time>
      </trkpt>
      <trkpt lat="46.249934295192361" lon="8.023175653070211">
        <ele>2028.4000000000001</ele>
        <time>2023-01-29T09:15:17Z</time>
      </trkpt>
      <trkpt lat="46.249929601326585" lon="8.02317313849926">
        <ele>2027.9100000000001</ele>
        <time>2023-01-29T09:15:39Z</time>
      </trkpt>
      <trkpt lat="46.249930271878839" lon="8.023169450461865">
        <ele>2027.6600000000001</ele>
        <time>2023-01-29T09:16:04Z</time>
      </trkpt>
      <trkpt lat="46.24992985278368" lon="8.023175066336989">
        <ele>2027.8900000000001</ele>
        <time>2023-01-29T09:16:29Z</time>
      </trkpt>
      <trkpt lat="46.249919291585684" lon="8.023222591727972">
        <ele>2028.05</ele>
        <time>2023-01-29T09:16:51Z</time>
      </trkpt>
      <trkpt lat="46.249937564134598" lon="8.023235248401761">
        <ele>2028.3299999999999</ele>
        <time>2023-01-29T09:17:08Z</time>
      </trkpt>
      <trkpt lat="46.24999531544745" lon="8.023199122399092">
        <ele>2027.8099999999999</ele>
        <time>2023-01-29T09:17:19Z</time>
      </trkpt>
      <trkpt lat="46.250010235235095" lon="8.023184956982732">
        <ele>2028.45</ele>
        <time>2023-01-29T09:17:31Z</time>
      </trkpt>
      <trkpt lat="46.250020712614059" lon="8.023158637806773">
        <ele>2028.48</ele>
        <time>2023-01-29T09:17:46Z</time>
      </trkpt>
      <trkpt lat="46.250019371509552" lon="8.023134749382734">
        <ele>2028.46</ele>
        <time>2023-01-29T09:17:48Z</time>
      </trkpt>
      <trkpt lat="46.250025909394026" lon="8.023011619225144">
        <ele>2028.95</ele>
        <time>2023-01-29T09:18:02Z</time>
      </trkpt>
      <trkpt lat="46.250030854716897" lon="8.023008769378066">
        <ele>2028.98</ele>
        <time>2023-01-29T09:18:11Z</time>
      </trkpt>
      <trkpt lat="46.25003295019269" lon="8.023010613396764">
        <ele>2029.77</ele>
        <time>2023-01-29T09:18:29Z</time>
      </trkpt>
      <trkpt lat="46.250032614916563" lon="8.02300893701613">
        <ele>2030.0899999999999</ele>
        <time>2023-01-29T09:18:45Z</time>
      </trkpt>
      <trkpt lat="46.25003345310688" lon="8.023008434101939">
        <ele>2030.1600000000001</ele>
        <time>2023-01-29T09:19:01Z</time>
      </trkpt>
      <trkpt lat="46.250031525269151" lon="8.023017151281238">
        <ele>2030.29</ele>
        <time>2023-01-29T09:19:24Z</time>
      </trkpt>
      <trkpt lat="46.250022305175662" lon="8.023009272292256">
        <ele>2029.3</ele>
        <time>2023-01-29T09:19:45Z</time>
      </trkpt>
      <trkpt lat="46.249983077868819" lon="8.022987311705947">
        <ele>2031.1099999999999</ele>
        <time>2023-01-29T09:19:57Z</time>
      </trkpt>
      <trkpt lat="46.249937564134598" lon="8.022951353341341">
        <ele>2033.5899999999999</ele>
        <time>2023-01-29T09:20:09Z</time>
      </trkpt>
      <trkpt lat="46.24992448836565" lon="8.022931320592761">
        <ele>2034.76</ele>
        <time>2023-01-29T09:20:22Z</time>
      </trkpt>
      <trkpt lat="46.249918872490525" lon="8.02292101085186">
        <ele>2035.71</ele>
        <time>2023-01-29T09:20:38Z</time>
      </trkpt>
      <trkpt lat="46.249916944652796" lon="8.022897038608789">
        <ele>2037.01</ele>
        <time>2023-01-29T09:20:52Z</time>
      </trkpt>
      <trkpt lat="46.249949717894197" lon="8.022869545966387">
        <ele>2036.8800000000001</ele>
        <time>2023-01-29T09:21:09Z</time>
      </trkpt>
      <trkpt lat="46.250042421743274" lon="8.022887147963047">
        <ele>2033.4300000000001</ele>
        <time>2023-01-29T09:21:22Z</time>
      </trkpt>
      <trkpt lat="46.250040074810386" lon="8.022978845983744">
        <ele>2030.72</ele>
        <time>2023-01-29T09:21:32Z</time>
      </trkpt>
      <trkpt lat="46.250056168064475" lon="8.023007176816464">
        <ele>2030.6300000000001</ele>
        <time>2023-01-29T09:21:41Z</time>
      </trkpt>
      <trkpt lat="46.250042924657464" lon="8.023005919530988">
        <ele>2030.71</ele>
        <time>2023-01-29T09:21:49Z</time>
      </trkpt>
      <trkpt lat="46.250042757019401" lon="8.023006841540337">
        <ele>2030.5699999999999</ele>
        <time>2023-01-29T09:21:59Z</time>
      </trkpt>
      <trkpt lat="46.250046528875828" lon="8.022992508485913">
        <ele>2029.96</ele>
        <time>2023-01-29T09:22:11Z</time>
      </trkpt>
      <trkpt lat="46.25004418194294" lon="8.023003069683909">
        <ele>2029.52</ele>
        <time>2023-01-29T09:22:33Z</time>
      </trkpt>
      <trkpt lat="46.250043846666813" lon="8.023013882339001">
        <ele>2029.45</ele>
        <time>2023-01-29T09:22:55Z</time>
      </trkpt>
      <trkpt lat="46.250042673200369" lon="8.02300994284451">
        <ele>2029.6500000000001</ele>
        <time>2023-01-29T09:23:16Z</time>
      </trkpt>
      <trkpt lat="46.25004518777132" lon="8.023000974208117">
        <ele>2029.9200000000001</ele>
        <time>2023-01-29T09:24:05Z</time>
      </trkpt>
      <trkpt lat="46.250044265761971" lon="8.023012205958366">
        <ele>2030.6500000000001</ele>
        <time>2023-01-29T09:25:01Z</time>
      </trkpt>
      <trkpt lat="46.250033285468817" lon="8.02301581017673">
        <ele>2031.97</ele>
        <time>2023-01-29T09:26:01Z</time>
      </trkpt>
      <trkpt lat="46.250035464763641" lon="8.023024275898933">
        <ele>2032.75</ele>
        <time>2023-01-29T09:27:04Z</time>
      </trkpt>
      <trkpt lat="46.250038566067815" lon="8.023020504042506">
        <ele>2033.6300000000001</ele>
        <time>2023-01-29T09:28:03Z</time>
      </trkpt>
      <trkpt lat="46.250042673200369" lon="8.023015726357698">
        <ele>2033.7</ele>
        <time>2023-01-29T09:29:00Z</time>
      </trkpt>
      <trkpt lat="46.250047450885177" lon="8.023021845147014">
        <ele>2033.6400000000001</ele>
        <time>2023-01-29T09:29:58Z</time>
      </trkpt>
      <trkpt lat="46.250050803646445" lon="8.02302704192698">
        <ele>2033.5899999999999</ele>
        <time>2023-01-29T09:30:50Z</time>
      </trkpt>
      <trkpt lat="46.250052647665143" lon="8.023028215393424">
        <ele>2033.8800000000001</ele>
        <time>2023-01-29T09:31:53Z</time>
      </trkpt>
      <trkpt lat="46.250053150579333" lon="8.02302653901279">
        <ele>2034.04</ele>
        <time>2023-01-29T09:32:55Z</time>
      </trkpt>
      <trkpt lat="46.250055246055126" lon="8.023015726357698">
        <ele>2034.6700000000001</ele>
        <time>2023-01-29T09:33:56Z</time>
      </trkpt>
      <trkpt lat="46.250056838616729" lon="8.023019498214126">
        <ele>2035.03</ele>
        <time>2023-01-29T09:34:56Z</time>
      </trkpt>
      <trkpt lat="46.2500583473593" lon="8.023018576204777">
        <ele>2034.8599999999999</ele>
        <time>2023-01-29T09:35:38Z</time>
      </trkpt>
      <trkpt lat="46.250059939920902" lon="8.023019665852189">
        <ele>2034.8099999999999</ele>
        <time>2023-01-29T09:36:19Z</time>
      </trkpt>
      <trkpt lat="46.250062789767981" lon="8.023018073290587">
        <ele>2034.8800000000001</ele>
        <time>2023-01-29T09:37:12Z</time>
      </trkpt>
      <trkpt lat="46.250065639615059" lon="8.023016899824143">
        <ele>2034.4400000000001</ele>
        <time>2023-01-29T09:37:49Z</time>
      </trkpt>
      <trkpt lat="46.250064047053456" lon="8.023020001128316">
        <ele>2034.55</ele>
        <time>2023-01-29T09:38:48Z</time>
      </trkpt>
      <trkpt lat="46.250065807253122" lon="8.02302653901279">
        <ele>2034.95</ele>
        <time>2023-01-29T09:39:39Z</time>
      </trkpt>
      <trkpt lat="46.250067902728915" lon="8.023025114089251">
        <ele>2035.4400000000001</ele>
        <time>2023-01-29T09:40:25Z</time>
      </trkpt>
      <trkpt lat="46.250079050660133" lon="8.023029305040836">
        <ele>2035.74</ele>
        <time>2023-01-29T09:41:04Z</time>
      </trkpt>
      <trkpt lat="46.250074775889516" lon="8.023019246757031">
        <ele>2036.0899999999999</ele>
        <time>2023-01-29T09:41:37Z</time>
      </trkpt>
      <trkpt lat="46.250059772282839" lon="8.023019749671221">
        <ele>2034.3699999999999</ele>
        <time>2023-01-29T09:42:10Z</time>
      </trkpt>
      <trkpt lat="46.250055497512221" lon="8.023011283949018">
        <ele>2034.9200000000001</ele>
        <time>2023-01-29T09:42:27Z</time>
      </trkpt>
      <trkpt lat="46.250060778111219" lon="8.023006841540337">
        <ele>2033.8299999999999</ele>
        <time>2023-01-29T09:42:40Z</time>
      </trkpt>
      <trkpt lat="46.250092964619398" lon="8.022962501272559">
        <ele>2033.45</ele>
        <time>2023-01-29T09:42:52Z</time>
      </trkpt>
      <trkpt lat="46.250092210248113" lon="8.022894943132997">
        <ele>2034.54</ele>
        <time>2023-01-29T09:43:04Z</time>
      </trkpt>
      <trkpt lat="46.250088354572654" lon="8.022924615070224">
        <ele>2034.3099999999999</ele>
        <time>2023-01-29T09:43:13Z</time>
      </trkpt>
      <trkpt lat="46.250075194984674" lon="8.022884046658874">
        <ele>2034.5899999999999</ele>
        <time>2023-01-29T09:43:24Z</time>
      </trkpt>
      <trkpt lat="46.250071004033089" lon="8.022806597873569">
        <ele>2036.49</ele>
        <time>2023-01-29T09:43:36Z</time>
      </trkpt>
      <trkpt lat="46.250072596594691" lon="8.022767202928662">
        <ele>2037.1900000000001</ele>
        <time>2023-01-29T09:43:50Z</time>
      </trkpt>
      <trkpt lat="46.25008231960237" lon="8.022601660341024">
        <ele>2038.6099999999999</ele>
        <time>2023-01-29T09:44:05Z</time>
      </trkpt>
      <trkpt lat="46.250095730647445" lon="8.022507950663567">
        <ele>2039.1400000000001</ele>
        <time>2023-01-29T09:44:17Z</time>
      </trkpt>
      <trkpt lat="46.25010771676898" lon="8.022457072511315">
        <ele>2039.53</ele>
        <time>2023-01-29T09:44:23Z</time>
      </trkpt>
      <trkpt lat="46.250131856650114" lon="8.022240903228521">
        <ele>2039.72</ele>
        <time>2023-01-29T09:44:39Z</time>
      </trkpt>
      <trkpt lat="46.250144010409713" lon="8.022158844396472">
        <ele>2040.29</ele>
        <time>2023-01-29T09:44:50Z</time>
      </trkpt>
      <trkpt lat="46.2501585111022" lon="8.022097740322352">
        <ele>2040.6600000000001</ele>
        <time>2023-01-29T09:45:01Z</time>
      </trkpt>
      <trkpt lat="46.250194134190679" lon="8.021932952105999">
        <ele>2042.0699999999999</ele>
        <time>2023-01-29T09:45:15Z</time>
      </trkpt>
      <trkpt lat="46.250190362334251" lon="8.021841337904334">
        <ele>2042.8499999999999</ele>
        <time>2023-01-29T09:45:23Z</time>
      </trkpt>
      <trkpt lat="46.250189272686839" lon="8.021634640172124">
        <ele>2045.48</ele>
        <time>2023-01-29T09:45:41Z</time>
      </trkpt>
      <trkpt lat="46.250225063413382" lon="8.021473037078977">
        <ele>2047.22</ele>
        <time>2023-01-29T09:45:56Z</time>
      </trkpt>
      <trkpt lat="46.250265464186668" lon="8.021298944950104">
        <ele>2048.4699999999998</ele>
        <time>2023-01-29T09:46:10Z</time>
      </trkpt>
      <trkpt lat="46.250319946557283" lon="8.021162068471313">
        <ele>2050.4099999999999</ele>
        <time>2023-01-29T09:46:25Z</time>
      </trkpt>
      <trkpt lat="46.250367807224393" lon="8.021020498126745">
        <ele>2051.75</ele>
        <time>2023-01-29T09:46:38Z</time>
      </trkpt>
      <trkpt lat="46.250373842194676" lon="8.020968697965145">
        <ele>2051.8099999999999</ele>
        <time>2023-01-29T09:46:42Z</time>
      </trkpt>
      <trkpt lat="46.250428827479482" lon="8.020810363814235">
        <ele>2051.8000000000002</ele>
        <time>2023-01-29T09:46:57Z</time>
      </trkpt>
      <trkpt lat="46.250437125563622" lon="8.020812878385186">
        <ele>2051.9499999999998</ele>
        <time>2023-01-29T09:47:09Z</time>
      </trkpt>
      <trkpt lat="46.250432096421719" lon="8.020809693261981">
        <ele>2051.8299999999999</ele>
        <time>2023-01-29T09:47:24Z</time>
      </trkpt>
      <trkpt lat="46.2504365388304" lon="8.020814387127757">
        <ele>2051.9899999999998</ele>
        <time>2023-01-29T09:47:45Z</time>
      </trkpt>
      <trkpt lat="46.250439137220383" lon="8.020810196176171">
        <ele>2051.7399999999998</ele>
        <time>2023-01-29T09:48:08Z</time>
      </trkpt>
      <trkpt lat="46.250492529943585" lon="8.020728556439281">
        <ele>2048.6500000000001</ele>
        <time>2023-01-29T09:48:23Z</time>
      </trkpt>
      <trkpt lat="46.250529997050762" lon="8.020480452105403">
        <ele>2047.02</ele>
        <time>2023-01-29T09:48:38Z</time>
      </trkpt>
      <trkpt lat="46.250566961243749" lon="8.020262019708753">
        <ele>2046.6500000000001</ele>
        <time>2023-01-29T09:48:52Z</time>
      </trkpt>
      <trkpt lat="46.250584311783314" lon="8.020079210400581">
        <ele>2046.1800000000001</ele>
        <time>2023-01-29T09:49:04Z</time>
      </trkpt>
      <trkpt lat="46.250621946528554" lon="8.01985390484333">
        <ele>2046.0699999999999</ele>
        <time>2023-01-29T09:49:18Z</time>
      </trkpt>
      <trkpt lat="46.250675171613693" lon="8.01961594261229">
        <ele>2046.6300000000001</ele>
        <time>2023-01-29T09:49:33Z</time>
      </trkpt>
      <trkpt lat="46.25071607530117" lon="8.019412765279412">
        <ele>2047.0699999999999</ele>
        <time>2023-01-29T09:49:46Z</time>
      </trkpt>
      <trkpt lat="46.250758906826377" lon="8.019216125831008">
        <ele>2048.0500000000002</ele>
        <time>2023-01-29T09:50:01Z</time>
      </trkpt>
      <trkpt lat="46.250801738351583" lon="8.019078243523836">
        <ele>2049.46</ele>
        <time>2023-01-29T09:50:13Z</time>
      </trkpt>
      <trkpt lat="46.250856053084135" lon="8.018967853859067">
        <ele>2051.04</ele>
        <time>2023-01-29T09:50:26Z</time>
      </trkpt>
      <trkpt lat="46.250877175480127" lon="8.018931057304144">
        <ele>2052.0300000000002</ele>
        <time>2023-01-29T09:50:36Z</time>
      </trkpt>
      <trkpt lat="46.250936603173614" lon="8.018860062584281">
        <ele>2053.27</ele>
        <time>2023-01-29T09:50:48Z</time>
      </trkpt>
      <trkpt lat="46.251042634248734" lon="8.018863163888454">
        <ele>2055.4899999999998</ele>
        <time>2023-01-29T09:51:02Z</time>
      </trkpt>
      <trkpt lat="46.251114215701818" lon="8.018906498327851">
        <ele>2057.73</ele>
        <time>2023-01-29T09:51:14Z</time>
      </trkpt>
      <trkpt lat="46.251163585111499" lon="8.018963830545545">
        <ele>2058.4400000000001</ele>
        <time>2023-01-29T09:51:29Z</time>
      </trkpt>
      <trkpt lat="46.25122033059597" lon="8.019006075337529">
        <ele>2059.8699999999999</ele>
        <time>2023-01-29T09:51:39Z</time>
      </trkpt>
      <trkpt lat="46.251293085515499" lon="8.01905351690948">
        <ele>2062.04</ele>
        <time>2023-01-29T09:51:52Z</time>
      </trkpt>
      <trkpt lat="46.251365421339869" lon="8.01909844391048">
        <ele>2063.6199999999999</ele>
        <time>2023-01-29T09:52:06Z</time>
      </trkpt>
      <trkpt lat="46.251381682232022" lon="8.019067766144872">
        <ele>2064.02</ele>
        <time>2023-01-29T09:52:16Z</time>
      </trkpt>
      <trkpt lat="46.251351423561573" lon="8.018982773646712">
        <ele>2065.2600000000002</ele>
        <time>2023-01-29T09:52:29Z</time>
      </trkpt>
      <trkpt lat="46.251304149627686" lon="8.018910437822342">
        <ele>2066.8000000000002</ele>
        <time>2023-01-29T09:52:42Z</time>
      </trkpt>
      <trkpt lat="46.251269532367587" lon="8.018871713429689">
        <ele>2068.7600000000002</ele>
        <time>2023-01-29T09:52:54Z</time>
      </trkpt>
      <trkpt lat="46.251280680298805" lon="8.018880179151893">
        <ele>2069.04</ele>
        <time>2023-01-29T09:53:19Z</time>
      </trkpt>
      <trkpt lat="46.251284619793296" lon="8.018867606297135">
        <ele>2069.6900000000001</ele>
        <time>2023-01-29T09:53:47Z</time>
      </trkpt>
      <trkpt lat="46.251273807138205" lon="8.018803987652063">
        <ele>2070.48</ele>
        <time>2023-01-29T09:53:55Z</time>
      </trkpt>
      <trkpt lat="46.251258049160242" lon="8.018673565238714">
        <ele>2073.54</ele>
        <time>2023-01-29T09:54:08Z</time>
      </trkpt>
      <trkpt lat="46.251270370557904" lon="8.018584297969937">
        <ele>2076.02</ele>
        <time>2023-01-29T09:54:19Z</time>
      </trkpt>
      <trkpt lat="46.251268945634365" lon="8.018464269116521">
        <ele>2078.3000000000002</ele>
        <time>2023-01-29T09:54:33Z</time>
      </trkpt>
      <trkpt lat="46.251255366951227" lon="8.018345413729549">
        <ele>2080.25</ele>
        <time>2023-01-29T09:54:47Z</time>
      </trkpt>
      <trkpt lat="46.251197950914502" lon="8.018321441486478">
        <ele>2080.6900000000001</ele>
        <time>2023-01-29T09:54:57Z</time>
      </trkpt>
      <trkpt lat="46.25119786709547" lon="8.018329571932554">
        <ele>2080.8299999999999</ele>
        <time>2023-01-29T09:55:11Z</time>
      </trkpt>
      <trkpt lat="46.251186886802316" lon="8.018321944400668">
        <ele>2082.6300000000001</ele>
        <time>2023-01-29T09:55:42Z</time>
      </trkpt>
      <trkpt lat="46.251200633123517" lon="8.018333679065108">
        <ele>2083.3400000000001</ele>
        <time>2023-01-29T09:56:16Z</time>
      </trkpt>
      <trkpt lat="46.251215217635036" lon="8.018335606902838">
        <ele>2084.1199999999999</ele>
        <time>2023-01-29T09:56:56Z</time>
      </trkpt>
      <trkpt lat="46.25121932476759" lon="8.018321609124541">
        <ele>2083.8099999999999</ele>
        <time>2023-01-29T09:57:44Z</time>
      </trkpt>
      <trkpt lat="46.251204488798976" lon="8.018323872238398">
        <ele>2083.8899999999999</ele>
        <time>2023-01-29T09:57:55Z</time>
      </trkpt>
      <trkpt lat="46.2512032315135" lon="8.01832839846611">
        <ele>2082.6100000000001</ele>
        <time>2023-01-29T09:58:12Z</time>
      </trkpt>
      <trkpt lat="46.251204656437039" lon="8.018333595246077">
        <ele>2082.3699999999999</ele>
        <time>2023-01-29T09:58:29Z</time>
      </trkpt>
      <trkpt lat="46.251206668093801" lon="8.01833082921803">
        <ele>2082.9699999999998</ele>
        <time>2023-01-29T09:58:43Z</time>
      </trkpt>
      <trkpt lat="46.251211361959577" lon="8.018326973542571">
        <ele>2083.1799999999998</ele>
        <time>2023-01-29T09:58:56Z</time>
      </trkpt>
      <trkpt lat="46.251211697235703" lon="8.018320351839066">
        <ele>2082.9499999999998</ele>
        <time>2023-01-29T09:59:16Z</time>
      </trkpt>
      <trkpt lat="46.251210272312164" lon="8.018324710428715">
        <ele>2083.4299999999998</ele>
        <time>2023-01-29T09:59:36Z</time>
      </trkpt>
      <trkpt lat="46.251201806589961" lon="8.018330158665776">
        <ele>2083.9200000000001</ele>
        <time>2023-01-29T10:00:05Z</time>
      </trkpt>
      <trkpt lat="46.251210523769259" lon="8.018329991027713">
        <ele>2084.2399999999998</ele>
        <time>2023-01-29T10:00:22Z</time>
      </trkpt>
      <trkpt lat="46.251264922320843" lon="8.018288416787982">
        <ele>2084.6599999999999</ele>
        <time>2023-01-29T10:00:41Z</time>
      </trkpt>
      <trkpt lat="46.251288056373596" lon="8.01821306347847">
        <ele>2084.2600000000002</ele>
        <time>2023-01-29T10:00:52Z</time>
      </trkpt>
      <trkpt lat="46.251328960061073" lon="8.018098901957274">
        <ele>2084.6100000000001</ele>
        <time>2023-01-29T10:01:06Z</time>
      </trkpt>
      <trkpt lat="46.251349160447717" lon="8.018010556697846">
        <ele>2085.0500000000002</ele>
        <time>2023-01-29T10:01:14Z</time>
      </trkpt>
      <trkpt lat="46.251356033608317" lon="8.017914835363627">
        <ele>2085.29</ele>
        <time>2023-01-29T10:01:21Z</time>
      </trkpt>
      <trkpt lat="46.251377742737532" lon="8.017819030210376">
        <ele>2085.0500000000002</ele>
        <time>2023-01-29T10:01:28Z</time>
      </trkpt>
      <trkpt lat="46.251400290057063" lon="8.017727583646774">
        <ele>2085</ele>
        <time>2023-01-29T10:01:35Z</time>
      </trkpt>
      <trkpt lat="46.251435242593288" lon="8.017527339980006">
        <ele>2086.3400000000001</ele>
        <time>2023-01-29T10:01:50Z</time>
      </trkpt>
      <trkpt lat="46.251442953944206" lon="8.017470426857472">
        <ele>2087.3600000000001</ele>
        <time>2023-01-29T10:01:55Z</time>
      </trkpt>
      <trkpt lat="46.251424262300134" lon="8.017292395234108">
        <ele>2088.5500000000002</ele>
        <time>2023-01-29T10:02:10Z</time>
      </trkpt>
      <trkpt lat="46.251398110762239" lon="8.017174461856484">
        <ele>2090.5799999999999</ele>
        <time>2023-01-29T10:02:22Z</time>
      </trkpt>
      <trkpt lat="46.25131806358695" lon="8.017093073576689">
        <ele>2091.5300000000002</ele>
        <time>2023-01-29T10:02:34Z</time>
      </trkpt>
      <trkpt lat="46.251219240948558" lon="8.017034400254488">
        <ele>2091.0700000000002</ele>
        <time>2023-01-29T10:02:49Z</time>
      </trkpt>
      <trkpt lat="46.251119915395975" lon="8.016970446333289">
        <ele>2091.4099999999999</ele>
        <time>2023-01-29T10:03:03Z</time>
      </trkpt>
      <trkpt lat="46.251067193225026" lon="8.01692945882678">
        <ele>2092.9899999999998</ele>
        <time>2023-01-29T10:03:16Z</time>
      </trkpt>
      <trkpt lat="46.251075239852071" lon="8.016929794102907">
        <ele>2093.3600000000001</ele>
        <time>2023-01-29T10:03:37Z</time>
      </trkpt>
      <trkpt lat="46.25107079744339" lon="8.016928201541305">
        <ele>2093.1799999999998</ele>
        <time>2023-01-29T10:04:01Z</time>
      </trkpt>
      <trkpt lat="46.251073647290468" lon="8.016924262046814">
        <ele>2092.4400000000001</ele>
        <time>2023-01-29T10:04:22Z</time>
      </trkpt>
      <trkpt lat="46.251075826585293" lon="8.016922166571021">
        <ele>2091.6700000000001</ele>
        <time>2023-01-29T10:04:41Z</time>
      </trkpt>
      <trkpt lat="46.251074401661754" lon="8.016926860436797">
        <ele>2091.1900000000001</ele>
        <time>2023-01-29T10:05:07Z</time>
      </trkpt>
      <trkpt lat="46.251072222366929" lon="8.016927447170019">
        <ele>2091.3200000000002</ele>
        <time>2023-01-29T10:05:29Z</time>
      </trkpt>
      <trkpt lat="46.251069288700819" lon="8.016933901235461">
        <ele>2091.1799999999998</ele>
        <time>2023-01-29T10:05:51Z</time>
      </trkpt>
      <trkpt lat="46.251073312014341" lon="8.016943456605077">
        <ele>2090.96</ele>
        <time>2023-01-29T10:06:14Z</time>
      </trkpt>
      <trkpt lat="46.251068031415343" lon="8.01693482324481">
        <ele>2090.3800000000001</ele>
        <time>2023-01-29T10:06:34Z</time>
      </trkpt>
      <trkpt lat="46.25106493011117" lon="8.016932476311922">
        <ele>2090.3499999999999</ele>
        <time>2023-01-29T10:07:01Z</time>
      </trkpt>
      <trkpt lat="46.251063086092472" lon="8.016929375007749">
        <ele>2090.2399999999998</ele>
        <time>2023-01-29T10:07:24Z</time>
      </trkpt>
      <trkpt lat="46.251071467995644" lon="8.016926776617765">
        <ele>2090.8000000000002</ele>
        <time>2023-01-29T10:07:52Z</time>
      </trkpt>
      <trkpt lat="46.251070629805326" lon="8.01692551933229">
        <ele>2090.8699999999999</ele>
        <time>2023-01-29T10:08:14Z</time>
      </trkpt>
      <trkpt lat="46.251070713624358" lon="8.016925686970353">
        <ele>2090.8600000000001</ele>
        <time>2023-01-29T10:08:40Z</time>
      </trkpt>
      <trkpt lat="46.251072054728866" lon="8.016933482140303">
        <ele>2090.8499999999999</ele>
        <time>2023-01-29T10:09:03Z</time>
      </trkpt>
      <trkpt lat="46.251071048900485" lon="8.016935996711254">
        <ele>2090.5999999999999</ele>
        <time>2023-01-29T10:09:25Z</time>
      </trkpt>
      <trkpt lat="46.251069037243724" lon="8.016938511282206">
        <ele>2090.3000000000002</ele>
        <time>2023-01-29T10:09:44Z</time>
      </trkpt>
      <trkpt lat="46.251087477430701" lon="8.016913114115596">
        <ele>2089.5599999999999</ele>
        <time>2023-01-29T10:10:08Z</time>
      </trkpt>
      <trkpt lat="46.251094350591302" lon="8.016898278146982">
        <ele>2089.54</ele>
        <time>2023-01-29T10:10:26Z</time>
      </trkpt>
      <trkpt lat="46.251158555969596" lon="8.016823511570692">
        <ele>2091.1100000000001</ele>
        <time>2023-01-29T10:10:39Z</time>
      </trkpt>
      <trkpt lat="46.251237010583282" lon="8.016757797449827">
        <ele>2093.8800000000001</ele>
        <time>2023-01-29T10:10:54Z</time>
      </trkpt>
      <trkpt lat="46.251315046101809" lon="8.016686886548996">
        <ele>2095.5100000000002</ele>
        <time>2023-01-29T10:11:10Z</time>
      </trkpt>
      <trkpt lat="46.251404564827681" lon="8.016628883779049">
        <ele>2099.0999999999999</ele>
        <time>2023-01-29T10:11:25Z</time>
      </trkpt>
      <trkpt lat="46.251451419666409" lon="8.016562247648835">
        <ele>2100.0700000000002</ele>
        <time>2023-01-29T10:11:36Z</time>
      </trkpt>
      <trkpt lat="46.251493915915489" lon="8.016464514657855">
        <ele>2101.4099999999999</ele>
        <time>2023-01-29T10:11:50Z</time>
      </trkpt>
      <trkpt lat="46.251509338617325" lon="8.016377510502935">
        <ele>2102.1199999999999</ele>
        <time>2023-01-29T10:12:01Z</time>
      </trkpt>
      <trkpt lat="46.251518977805972" lon="8.016284219920635">
        <ele>2102.8400000000001</ele>
        <time>2023-01-29T10:12:12Z</time>
      </trkpt>
      <trkpt lat="46.251536663621664" lon="8.016171064227819">
        <ele>2104.3499999999999</ele>
        <time>2023-01-29T10:12:25Z</time>
      </trkpt>
      <trkpt lat="46.251567173749208" lon="8.016079198569059">
        <ele>2104.8400000000001</ele>
        <time>2023-01-29T10:12:35Z</time>
      </trkpt>
      <trkpt lat="46.251572454348207" lon="8.015930587425828">
        <ele>2105.8299999999999</ele>
        <time>2023-01-29T10:12:50Z</time>
      </trkpt>
      <trkpt lat="46.251594582572579" lon="8.015790693461895">
        <ele>2106.71</ele>
        <time>2023-01-29T10:13:05Z</time>
      </trkpt>
      <trkpt lat="46.251596929505467" lon="8.015651302412152">
        <ele>2107.7800000000002</ele>
        <time>2023-01-29T10:13:18Z</time>
      </trkpt>
      <trkpt lat="46.25160631723702" lon="8.015470420941711">
        <ele>2109.54</ele>
        <time>2023-01-29T10:13:35Z</time>
      </trkpt>
      <trkpt lat="46.251619728282094" lon="8.015342094004154">
        <ele>2110.6300000000001</ele>
        <time>2023-01-29T10:13:47Z</time>
      </trkpt>
      <trkpt lat="46.251630121842027" lon="8.015199350193143">
        <ele>2112.5100000000002</ele>
        <time>2023-01-29T10:14:00Z</time>
      </trkpt>
      <trkpt lat="46.251660715788603" lon="8.015054007992148">
        <ele>2115.3099999999999</ele>
        <time>2023-01-29T10:14:17Z</time>
      </trkpt>
      <trkpt lat="46.251681167632341" lon="8.014973876997829">
        <ele>2116.9899999999998</ele>
        <time>2023-01-29T10:14:28Z</time>
      </trkpt>
      <trkpt lat="46.251695668324828" lon="8.014880334958434">
        <ele>2117.5799999999999</ele>
        <time>2023-01-29T10:14:39Z</time>
      </trkpt>
      <trkpt lat="46.251688711345196" lon="8.014772040769458">
        <ele>2117.9099999999999</ele>
        <time>2023-01-29T10:14:50Z</time>
      </trkpt>
      <trkpt lat="46.251693069934845" lon="8.014746308326721">
        <ele>2117.29</ele>
        <time>2023-01-29T10:15:01Z</time>
      </trkpt>
      <trkpt lat="46.251690136268735" lon="8.01473792642355">
        <ele>2117.3600000000001</ele>
        <time>2023-01-29T10:15:16Z</time>
      </trkpt>
      <trkpt lat="46.251668846234679" lon="8.014735579490662">
        <ele>2117.1199999999999</ele>
        <time>2023-01-29T10:15:32Z</time>
      </trkpt>
      <trkpt lat="46.251666834577918" lon="8.014738261699677">
        <ele>2117.5900000000001</ele>
        <time>2023-01-29T10:15:43Z</time>
      </trkpt>
      <trkpt lat="46.251664403825998" lon="8.014738680794835">
        <ele>2117.1500000000001</ele>
        <time>2023-01-29T10:16:01Z</time>
      </trkpt>
      <trkpt lat="46.251667505130172" lon="8.014736501500011">
        <ele>2116.8899999999999</ele>
        <time>2023-01-29T10:16:15Z</time>
      </trkpt>
      <trkpt lat="46.251662559807301" lon="8.014731891453266">
        <ele>2117.1300000000001</ele>
        <time>2023-01-29T10:16:32Z</time>
      </trkpt>
      <trkpt lat="46.251660464331508" lon="8.014735160395503">
        <ele>2116.9299999999998</ele>
        <time>2023-01-29T10:16:48Z</time>
      </trkpt>
      <trkpt lat="46.251661302521825" lon="8.014735411852598">
        <ele>2117.48</ele>
        <time>2023-01-29T10:17:04Z</time>
      </trkpt>
      <trkpt lat="46.251660548150539" lon="8.014734657481313">
        <ele>2117.73</ele>
        <time>2023-01-29T10:17:22Z</time>
      </trkpt>
      <trkpt lat="46.251666750758886" lon="8.014739770442247">
        <ele>2118.27</ele>
        <time>2023-01-29T10:17:41Z</time>
      </trkpt>
      <trkpt lat="46.251667505130172" lon="8.014741614460945">
        <ele>2118.4200000000001</ele>
        <time>2023-01-29T10:17:58Z</time>
      </trkpt>
      <trkpt lat="46.251666499301791" lon="8.014738680794835">
        <ele>2118.7800000000002</ele>
        <time>2023-01-29T10:18:14Z</time>
      </trkpt>
      <trkpt lat="46.251675551757216" lon="8.014738680794835">
        <ele>2118.4499999999998</ele>
        <time>2023-01-29T10:18:27Z</time>
      </trkpt>
      <trkpt lat="46.251662392169237" lon="8.014736920595169">
        <ele>2118.71</ele>
        <time>2023-01-29T10:18:39Z</time>
      </trkpt>
      <trkpt lat="46.251662559807301" lon="8.01474086008966">
        <ele>2119.04</ele>
        <time>2023-01-29T10:18:56Z</time>
      </trkpt>
      <trkpt lat="46.25166499055922" lon="8.014740273356438">
        <ele>2118.9699999999998</ele>
        <time>2023-01-29T10:19:12Z</time>
      </trkpt>
      <trkpt lat="46.251666080206633" lon="8.014717558398843">
        <ele>2118.73</ele>
        <time>2023-01-29T10:19:21Z</time>
      </trkpt>
      <trkpt lat="46.251673204824328" lon="8.014730969443917">
        <ele>2118.79</ele>
        <time>2023-01-29T10:19:37Z</time>
      </trkpt>
      <trkpt lat="46.251673372462392" lon="8.014729293063283">
        <ele>2119.6500000000001</ele>
        <time>2023-01-29T10:19:51Z</time>
      </trkpt>
      <trkpt lat="46.251667002215981" lon="8.014723174273968">
        <ele>2119.6900000000001</ele>
        <time>2023-01-29T10:20:07Z</time>
      </trkpt>
      <trkpt lat="46.251652166247368" lon="8.014738094061613">
        <ele>2119.3699999999999</ele>
        <time>2023-01-29T10:20:25Z</time>
      </trkpt>
      <trkpt lat="46.25166499055922" lon="8.01472619175911">
        <ele>2119.3299999999999</ele>
        <time>2023-01-29T10:20:50Z</time>
      </trkpt>
      <trkpt lat="46.25167328864336" lon="8.014691574499011">
        <ele>2119.4000000000001</ele>
        <time>2023-01-29T10:21:25Z</time>
      </trkpt>
      <trkpt lat="46.251695165410638" lon="8.014643043279648">
        <ele>2119.29</ele>
        <time>2023-01-29T10:21:29Z</time>
      </trkpt>
      <trkpt lat="46.251771692186594" lon="8.014463251456618">
        <ele>2120.3499999999999</ele>
        <time>2023-01-29T10:21:45Z</time>
      </trkpt>
      <trkpt lat="46.251839334145188" lon="8.014318160712719">
        <ele>2122.1100000000001</ele>
        <time>2023-01-29T10:21:59Z</time>
      </trkpt>
      <trkpt lat="46.251898426562548" lon="8.014179775491357">
        <ele>2122.52</ele>
        <time>2023-01-29T10:22:12Z</time>
      </trkpt>
      <trkpt lat="46.251952573657036" lon="8.014033092185855">
        <ele>2123.5900000000001</ele>
        <time>2023-01-29T10:22:26Z</time>
      </trkpt>
      <trkpt lat="46.251993225887418" lon="8.013921780511737">
        <ele>2126.1999999999998</ele>
        <time>2023-01-29T10:22:39Z</time>
      </trkpt>
      <trkpt lat="46.25203195028007" lon="8.013799991458654">
        <ele>2128.0300000000002</ele>
        <time>2023-01-29T10:22:53Z</time>
      </trkpt>
      <trkpt lat="46.252039158716798" lon="8.013788508251309">
        <ele>2127.3800000000001</ele>
        <time>2023-01-29T10:23:05Z</time>
      </trkpt>
      <trkpt lat="46.252087187021971" lon="8.013695804402232">
        <ele>2126.5999999999999</ele>
        <time>2023-01-29T10:23:19Z</time>
      </trkpt>
      <trkpt lat="46.25215457752347" lon="8.013592958450317">
        <ele>2127.2399999999998</ele>
        <time>2023-01-29T10:23:30Z</time>
      </trkpt>
      <trkpt lat="46.252173017710447" lon="8.013524813577533">
        <ele>2128.98</ele>
        <time>2023-01-29T10:23:43Z</time>
      </trkpt>
      <trkpt lat="46.252174945548177" lon="8.013533698394895">
        <ele>2129.0700000000002</ele>
        <time>2023-01-29T10:24:01Z</time>
      </trkpt>
      <trkpt lat="46.252157259732485" lon="8.013510648161173">
        <ele>2128.73</ele>
        <time>2023-01-29T10:24:23Z</time>
      </trkpt>
      <trkpt lat="46.25211208127439" lon="8.01334778778255">
        <ele>2129.6999999999998</ele>
        <time>2023-01-29T10:24:37Z</time>
      </trkpt>
      <trkpt lat="46.252062879502773" lon="8.013221137225628">
        <ele>2133.0599999999999</ele>
        <time>2023-01-29T10:24:51Z</time>
      </trkpt>
      <trkpt lat="46.25200261361897" lon="8.013071017339826">
        <ele>2134.2199999999998</ele>
        <time>2023-01-29T10:25:06Z</time>
      </trkpt>
      <trkpt lat="46.251932373270392" lon="8.012885106727481">
        <ele>2134.9699999999998</ele>
        <time>2023-01-29T10:25:23Z</time>
      </trkpt>
      <trkpt lat="46.251881578937173" lon="8.012701543048024">
        <ele>2136.5799999999999</ele>
        <time>2023-01-29T10:25:42Z</time>
      </trkpt>
      <trkpt lat="46.251836568117142" lon="8.012546896934509">
        <ele>2138.5599999999999</ele>
        <time>2023-01-29T10:25:59Z</time>
      </trkpt>
      <trkpt lat="46.251808824017644" lon="8.012374648824334">
        <ele>2139.3099999999999</ele>
        <time>2023-01-29T10:26:15Z</time>
      </trkpt>
      <trkpt lat="46.251790216192603" lon="8.012293092906475">
        <ele>2139.77</ele>
        <time>2023-01-29T10:26:29Z</time>
      </trkpt>
      <trkpt lat="46.25177688896656" lon="8.012274568900466">
        <ele>2139.6300000000001</ele>
        <time>2023-01-29T10:26:43Z</time>
      </trkpt>
      <trkpt lat="46.251764064654708" lon="8.012259816750884">
        <ele>2138.9400000000001</ele>
        <time>2023-01-29T10:27:01Z</time>
      </trkpt>
      <trkpt lat="46.251719137653708" lon="8.012199215590954">
        <ele>2139.0900000000001</ele>
        <time>2023-01-29T10:27:22Z</time>
      </trkpt>
      <trkpt lat="46.251672115176916" lon="8.012060159817338">
        <ele>2139.6700000000001</ele>
        <time>2023-01-29T10:27:37Z</time>
      </trkpt>
      <trkpt lat="46.251667672768235" lon="8.012048089876771">
        <ele>2139.0900000000001</ele>
        <time>2023-01-29T10:27:50Z</time>
      </trkpt>
      <trkpt lat="46.25164789147675" lon="8.011979022994638">
        <ele>2138.8499999999999</ele>
        <time>2023-01-29T10:28:11Z</time>
      </trkpt>
      <trkpt lat="46.251635234802961" lon="8.011947674676776">
        <ele>2139.2600000000002</ele>
        <time>2023-01-29T10:28:24Z</time>
      </trkpt>
      <trkpt lat="46.251636072993279" lon="8.011952619999647">
        <ele>2139.5999999999999</ele>
        <time>2023-01-29T10:28:50Z</time>
      </trkpt>
      <trkpt lat="46.251617129892111" lon="8.011849019676447">
        <ele>2140.3200000000002</ele>
        <time>2023-01-29T10:29:01Z</time>
      </trkpt>
      <trkpt lat="46.251565162092447" lon="8.011747263371944">
        <ele>2141.9200000000001</ele>
        <time>2023-01-29T10:29:16Z</time>
      </trkpt>
      <trkpt lat="46.25149592757225" lon="8.011639388278127">
        <ele>2143.2800000000002</ele>
        <time>2023-01-29T10:29:31Z</time>
      </trkpt>
      <trkpt lat="46.251424597576261" lon="8.011532183736563">
        <ele>2143.6500000000001</ele>
        <time>2023-01-29T10:29:46Z</time>
      </trkpt>
      <trkpt lat="46.251347484067082" lon="8.011437971144915">
        <ele>2145.25</ele>
        <time>2023-01-29T10:30:01Z</time>
      </trkpt>
      <trkpt lat="46.251283530145884" lon="8.011316014453769">
        <ele>2146.4699999999998</ele>
        <time>2023-01-29T10:30:17Z</time>
      </trkpt>
      <trkpt lat="46.251250170171261" lon="8.011216102167964">
        <ele>2147.25</ele>
        <time>2023-01-29T10:30:30Z</time>
      </trkpt>
      <trkpt lat="46.251212703064084" lon="8.011142425239086">
        <ele>2148.5700000000002</ele>
        <time>2023-01-29T10:30:43Z</time>
      </trkpt>
      <trkpt lat="46.251177918165922" lon="8.011052319779992">
        <ele>2150.2199999999998</ele>
        <time>2023-01-29T10:30:58Z</time>
      </trkpt>
      <trkpt lat="46.25111916102469" lon="8.010988449677825">
        <ele>2152.27</ele>
        <time>2023-01-29T10:31:11Z</time>
      </trkpt>
      <trkpt lat="46.25113039277494" lon="8.010920472443104">
        <ele>2153.7800000000002</ele>
        <time>2023-01-29T10:31:23Z</time>
      </trkpt>
      <trkpt lat="46.251151263713837" lon="8.010903876274824">
        <ele>2154.3600000000001</ele>
        <time>2023-01-29T10:31:37Z</time>
      </trkpt>
      <trkpt lat="46.251175235956907" lon="8.010904043912888">
        <ele>2154.6599999999999</ele>
        <time>2023-01-29T10:31:57Z</time>
      </trkpt>
      <trkpt lat="46.25117339193821" lon="8.010898092761636">
        <ele>2155.1700000000001</ele>
        <time>2023-01-29T10:32:13Z</time>
      </trkpt>
      <trkpt lat="46.251166015863419" lon="8.01089339889586">
        <ele>2155.75</ele>
        <time>2023-01-29T10:32:27Z</time>
      </trkpt>
      <trkpt lat="46.25122376717627" lon="8.010820224881172">
        <ele>2157.6399999999999</ele>
        <time>2023-01-29T10:32:39Z</time>
      </trkpt>
      <trkpt lat="46.251198956742883" lon="8.010713774710894">
        <ele>2158.9200000000001</ele>
        <time>2023-01-29T10:32:54Z</time>
      </trkpt>
      <trkpt lat="46.251123519614339" lon="8.010634062811732">
        <ele>2162.1199999999999</ele>
        <time>2023-01-29T10:33:08Z</time>
      </trkpt>
      <trkpt lat="46.251074653118849" lon="8.010635739192367">
        <ele>2162.73</ele>
        <time>2023-01-29T10:33:21Z</time>
      </trkpt>
      <trkpt lat="46.251060320064425" lon="8.010592823848128">
        <ele>2162.9200000000001</ele>
        <time>2023-01-29T10:33:35Z</time>
      </trkpt>
      <trkpt lat="46.250998126342893" lon="8.010509172454476">
        <ele>2164.25</ele>
        <time>2023-01-29T10:33:48Z</time>
      </trkpt>
      <trkpt lat="46.250994438305497" lon="8.010495593771339">
        <ele>2164.1300000000001</ele>
        <time>2023-01-29T10:34:04Z</time>
      </trkpt>
      <trkpt lat="46.250986726954579" lon="8.010477740317583">
        <ele>2164.5900000000001</ele>
        <time>2023-01-29T10:34:20Z</time>
      </trkpt>
      <trkpt lat="46.250979015603662" lon="8.010468352586031">
        <ele>2165.1100000000001</ele>
        <time>2023-01-29T10:34:34Z</time>
      </trkpt>
      <trkpt lat="46.250981613993645" lon="8.010468855500221">
        <ele>2165.5999999999999</ele>
        <time>2023-01-29T10:34:45Z</time>
      </trkpt>
      <trkpt lat="46.25098287127912" lon="8.01046734675765">
        <ele>2165.3800000000001</ele>
        <time>2023-01-29T10:34:59Z</time>
      </trkpt>
      <trkpt lat="46.250960910692811" lon="8.010472794994712">
        <ele>2165.2199999999998</ele>
        <time>2023-01-29T10:35:15Z</time>
      </trkpt>
      <trkpt lat="46.250962419435382" lon="8.010482182726264">
        <ele>2165.3400000000001</ele>
        <time>2023-01-29T10:35:31Z</time>
      </trkpt>
      <trkpt lat="46.250971052795649" lon="8.010453768074513">
        <ele>2165.5500000000002</ele>
        <time>2023-01-29T10:35:49Z</time>
      </trkpt>
      <trkpt lat="46.250984212383628" lon="8.010463491082192">
        <ele>2165.7399999999998</ele>
        <time>2023-01-29T10:36:05Z</time>
      </trkpt>
      <trkpt lat="46.250991420820355" lon="8.010488133877516">
        <ele>2165.8499999999999</ele>
        <time>2023-01-29T10:36:20Z</time>
      </trkpt>
      <trkpt lat="46.251001562923193" lon="8.010483104735613">
        <ele>2165.8400000000001</ele>
        <time>2023-01-29T10:36:39Z</time>
      </trkpt>
      <trkpt lat="46.251006759703159" lon="8.010480422526598">
        <ele>2165.8099999999999</ele>
        <time>2023-01-29T10:36:53Z</time>
      </trkpt>
      <trkpt lat="46.251015728339553" lon="8.010486625134945">
        <ele>2165.6599999999999</ele>
        <time>2023-01-29T10:37:06Z</time>
      </trkpt>
      <trkpt lat="46.251031989231706" lon="8.01049173809588">
        <ele>2165.98</ele>
        <time>2023-01-29T10:37:20Z</time>
      </trkpt>
      <trkpt lat="46.251022517681122" lon="8.010498946532607">
        <ele>2165.9200000000001</ele>
        <time>2023-01-29T10:37:33Z</time>
      </trkpt>
      <trkpt lat="46.251009441912174" lon="8.0105044785887">
        <ele>2165.8600000000001</ele>
        <time>2023-01-29T10:37:49Z</time>
      </trkpt>
      <trkpt lat="46.251012543216348" lon="8.010514201596379">
        <ele>2165.6799999999998</ele>
        <time>2023-01-29T10:37:59Z</time>
      </trkpt>
      <trkpt lat="46.251014554873109" lon="8.010511435568333">
        <ele>2165.3699999999999</ele>
        <time>2023-01-29T10:38:12Z</time>
      </trkpt>
      <trkpt lat="46.250989828258753" lon="8.010497270151973">
        <ele>2165.4000000000001</ele>
        <time>2023-01-29T10:38:21Z</time>
      </trkpt>
      <trkpt lat="46.250985134392977" lon="8.010502718389034">
        <ele>2165.73</ele>
        <time>2023-01-29T10:38:33Z</time>
      </trkpt>
      <trkpt lat="46.250984882935882" lon="8.010514955967665">
        <ele>2165.6999999999998</ele>
        <time>2023-01-29T10:38:45Z</time>
      </trkpt>
      <trkpt lat="46.250977087765932" lon="8.010496767237783">
        <ele>2165.9000000000001</ele>
        <time>2023-01-29T10:38:57Z</time>
      </trkpt>
      <trkpt lat="46.250975243747234" lon="8.010495929047465">
        <ele>2165.96</ele>
        <time>2023-01-29T10:39:10Z</time>
      </trkpt>
      <trkpt lat="46.250962167978287" lon="8.01049517467618">
        <ele>2165.7800000000002</ele>
        <time>2023-01-29T10:39:25Z</time>
      </trkpt>
      <trkpt lat="46.250978764146566" lon="8.010459132492542">
        <ele>2165.9499999999998</ele>
        <time>2023-01-29T10:39:36Z</time>
      </trkpt>
      <trkpt lat="46.250981446355581" lon="8.010459803044796">
        <ele>2165.8800000000001</ele>
        <time>2023-01-29T10:39:43Z</time>
      </trkpt>
      <trkpt lat="46.250990247353911" lon="8.010453516617417">
        <ele>2165.9299999999998</ele>
        <time>2023-01-29T10:40:06Z</time>
      </trkpt>
      <trkpt lat="46.250998210161924" lon="8.010448487475514">
        <ele>2165.9099999999999</ele>
        <time>2023-01-29T10:40:07Z</time>
      </trkpt>
      <trkpt lat="46.251038443297148" lon="8.010404817759991">
        <ele>2166.6700000000001</ele>
        <time>2023-01-29T10:40:19Z</time>
      </trkpt>
      <trkpt lat="46.251005753874779" lon="8.010434405878186">
        <ele>2165.9000000000001</ele>
        <time>2023-01-29T10:40:37Z</time>
      </trkpt>
      <trkpt lat="46.250998713076115" lon="8.010474890470505">
        <ele>2165.0599999999999</ele>
        <time>2023-01-29T10:40:49Z</time>
      </trkpt>
      <trkpt lat="46.250992426648736" lon="8.010467765852809">
        <ele>2165.3299999999999</ele>
        <time>2023-01-29T10:41:22Z</time>
      </trkpt>
      <trkpt lat="46.250992091372609" lon="8.010470028966665">
        <ele>2165.2800000000002</ele>
        <time>2023-01-29T10:41:57Z</time>
      </trkpt>
      <trkpt lat="46.250989073887467" lon="8.01046583801508">
        <ele>2165.3099999999999</ele>
        <time>2023-01-29T10:42:24Z</time>
      </trkpt>
      <trkpt lat="46.250979853793979" lon="8.01045460626483">
        <ele>2165.5</ele>
        <time>2023-01-29T10:42:51Z</time>
      </trkpt>
      <trkpt lat="46.250951774418354" lon="8.010327955707908">
        <ele>2166.3000000000002</ele>
        <time>2023-01-29T10:43:03Z</time>
      </trkpt>
      <trkpt lat="46.250967280939221" lon="8.010265342891216">
        <ele>2166.9000000000001</ele>
        <time>2023-01-29T10:43:12Z</time>
      </trkpt>
      <trkpt lat="46.250970466062427" lon="8.010190660133958">
        <ele>2167.6599999999999</ele>
        <time>2023-01-29T10:43:24Z</time>
      </trkpt>
      <trkpt lat="46.250965353101492" lon="8.010096112266183">
        <ele>2169.4899999999998</ele>
        <time>2023-01-29T10:43:38Z</time>
      </trkpt>
      <trkpt lat="46.250957138836384" lon="8.009978095069528">
        <ele>2171.6399999999999</ele>
        <time>2023-01-29T10:43:52Z</time>
      </trkpt>
      <trkpt lat="46.25096820294857" lon="8.009845744818449">
        <ele>2173.0700000000002</ele>
        <time>2023-01-29T10:44:07Z</time>
      </trkpt>
      <trkpt lat="46.250997371971607" lon="8.009705347940326">
        <ele>2174.46</ele>
        <time>2023-01-29T10:44:20Z</time>
      </trkpt>
      <trkpt lat="46.251027211546898" lon="8.009601412340999">
        <ele>2175.77</ele>
        <time>2023-01-29T10:44:32Z</time>
      </trkpt>
      <trkpt lat="46.251044059172273" lon="8.009499656036496">
        <ele>2176.6900000000001</ele>
        <time>2023-01-29T10:44:45Z</time>
      </trkpt>
      <trkpt lat="46.25107180327177" lon="8.00938256084919">
        <ele>2179.02</ele>
        <time>2023-01-29T10:45:02Z</time>
      </trkpt>
      <trkpt lat="46.251075994223356" lon="8.009284660220146">
        <ele>2179.6700000000001</ele>
        <time>2023-01-29T10:45:14Z</time>
      </trkpt>
      <trkpt lat="46.251116562634706" lon="8.009157255291939">
        <ele>2180.71</ele>
        <time>2023-01-29T10:45:32Z</time>
      </trkpt>
      <trkpt lat="46.25116509385407" lon="8.009130097925663">
        <ele>2182</ele>
        <time>2023-01-29T10:45:43Z</time>
      </trkpt>
      <trkpt lat="46.251172386109829" lon="8.00912850536406">
        <ele>2182.5</ele>
        <time>2023-01-29T10:46:01Z</time>
      </trkpt>
      <trkpt lat="46.251178253442049" lon="8.009129846468568">
        <ele>2182.8299999999999</ele>
        <time>2023-01-29T10:46:17Z</time>
      </trkpt>
      <trkpt lat="46.251180516555905" lon="8.009127750992775">
        <ele>2183.4400000000001</ele>
        <time>2023-01-29T10:46:36Z</time>
      </trkpt>
      <trkpt lat="46.251186635345221" lon="8.009138312190771">
        <ele>2183.8499999999999</ele>
        <time>2023-01-29T10:46:51Z</time>
      </trkpt>
      <trkpt lat="46.251187389716506" lon="8.009141832590103">
        <ele>2184.29</ele>
        <time>2023-01-29T10:47:14Z</time>
      </trkpt>
      <trkpt lat="46.251189736649394" lon="8.009156668558717">
        <ele>2184.4000000000001</ele>
        <time>2023-01-29T10:47:32Z</time>
      </trkpt>
      <trkpt lat="46.251186300069094" lon="8.009154992178083">
        <ele>2185.0300000000002</ele>
        <time>2023-01-29T10:47:51Z</time>
      </trkpt>
      <trkpt lat="46.251235753297806" lon="8.00918709486723">
        <ele>2185.5500000000002</ele>
        <time>2023-01-29T10:48:10Z</time>
      </trkpt>
      <trkpt lat="46.25133222900331" lon="8.00926479510963">
        <ele>2185.4899999999998</ele>
        <time>2023-01-29T10:48:23Z</time>
      </trkpt>
      <trkpt lat="46.251410599797964" lon="8.009292120113969">
        <ele>2186.77</ele>
        <time>2023-01-29T10:48:37Z</time>
      </trkpt>
      <trkpt lat="46.251467177644372" lon="8.009303351864219">
        <ele>2186.3699999999999</ele>
        <time>2023-01-29T10:48:45Z</time>
      </trkpt>
      <trkpt lat="46.251539262011647" lon="8.009439893066883">
        <ele>2186.0900000000001</ele>
        <time>2023-01-29T10:48:59Z</time>
      </trkpt>
      <trkpt lat="46.251581003889441" lon="8.009571908041835">
        <ele>2186.21</ele>
        <time>2023-01-29T10:49:13Z</time>
      </trkpt>
      <trkpt lat="46.251579076051712" lon="8.00956578925252">
        <ele>2186.5500000000002</ele>
        <time>2023-01-29T10:49:33Z</time>
      </trkpt>
      <trkpt lat="46.251573041081429" lon="8.009564615786076">
        <ele>2186.1799999999998</ele>
        <time>2023-01-29T10:49:54Z</time>
      </trkpt>
      <trkpt lat="46.251580081880093" lon="8.009577691555023">
        <ele>2185.6300000000001</ele>
        <time>2023-01-29T10:50:11Z</time>
      </trkpt>
      <trkpt lat="46.251627691090107" lon="8.00966452807188">
        <ele>2185.0300000000002</ele>
        <time>2023-01-29T10:50:22Z</time>
      </trkpt>
      <trkpt lat="46.251646131277084" lon="8.009675424546003">
        <ele>2185.0599999999999</ele>
        <time>2023-01-29T10:50:24Z</time>
      </trkpt>
      <trkpt lat="46.25175978988409" lon="8.009779276326299">
        <ele>2186.4299999999998</ele>
        <time>2023-01-29T10:50:40Z</time>
      </trkpt>
      <trkpt lat="46.251817457377911" lon="8.009899221360683">
        <ele>2186.25</ele>
        <time>2023-01-29T10:50:54Z</time>
      </trkpt>
      <trkpt lat="46.251834137365222" lon="8.009908189997077">
        <ele>2186.6100000000001</ele>
        <time>2023-01-29T10:51:09Z</time>
      </trkpt>
      <trkpt lat="46.251871520653367" lon="8.009952362626791">
        <ele>2186.77</ele>
        <time>2023-01-29T10:51:26Z</time>
      </trkpt>
      <trkpt lat="46.251950562000275" lon="8.010025788098574">
        <ele>2187.7800000000002</ele>
        <time>2023-01-29T10:51:42Z</time>
      </trkpt>
      <trkpt lat="46.252013426274061" lon="8.010079264640808">
        <ele>2188.98</ele>
        <time>2023-01-29T10:51:53Z</time>
      </trkpt>
      <trkpt lat="46.252007391303778" lon="8.010112373158336">
        <ele>2190.5100000000002</ele>
        <time>2023-01-29T10:51:58Z</time>
      </trkpt>
      <trkpt lat="46.252116523683071" lon="8.010163083672524">
        <ele>2192.2199999999998</ele>
        <time>2023-01-29T10:52:16Z</time>
      </trkpt>
      <trkpt lat="46.252134963870049" lon="8.0101487506181">
        <ele>2193.71</ele>
        <time>2023-01-29T10:52:34Z</time>
      </trkpt>
      <trkpt lat="46.252144183963537" lon="8.010160988196731">
        <ele>2195.4299999999998</ele>
        <time>2023-01-29T10:52:50Z</time>
      </trkpt>
      <trkpt lat="46.252176286652684" lon="8.010199293494225">
        <ele>2195.9699999999998</ele>
        <time>2023-01-29T10:53:03Z</time>
      </trkpt>
      <trkpt lat="46.252203108742833" lon="8.010215889662504">
        <ele>2197.1999999999998</ele>
        <time>2023-01-29T10:53:15Z</time>
      </trkpt>
      <trkpt lat="46.252232613041997" lon="8.01024648360908">
        <ele>2198.54</ele>
        <time>2023-01-29T10:53:28Z</time>
      </trkpt>
      <trkpt lat="46.252259938046336" lon="8.010268025100231">
        <ele>2199.6799999999998</ele>
        <time>2023-01-29T10:53:37Z</time>
      </trkpt>
      <trkpt lat="46.252285083755851" lon="8.010294260457158">
        <ele>2200.71</ele>
        <time>2023-01-29T10:53:43Z</time>
      </trkpt>
      <trkpt lat="46.252286760136485" lon="8.010323345661163">
        <ele>2197.1900000000001</ele>
        <time>2023-01-29T10:53:49Z</time>
      </trkpt>
      <trkpt lat="46.25232020393014" lon="8.010432729497552">
        <ele>2199.5599999999999</ele>
        <time>2023-01-29T10:54:03Z</time>
      </trkpt>
      <trkpt lat="46.252311067655683" lon="8.010477907955647">
        <ele>2200.9400000000001</ele>
        <time>2023-01-29T10:54:15Z</time>
      </trkpt>
      <trkpt lat="46.252291370183229" lon="8.010475980117917">
        <ele>2201.8899999999999</ele>
        <time>2023-01-29T10:54:28Z</time>
      </trkpt>
      <trkpt lat="46.252292795106769" lon="8.010472794994712">
        <ele>2202.8000000000002</ele>
        <time>2023-01-29T10:54:43Z</time>
      </trkpt>
      <trkpt lat="46.25228701159358" lon="8.010477824136615">
        <ele>2203.5300000000002</ele>
        <time>2023-01-29T10:55:08Z</time>
      </trkpt>
      <trkpt lat="46.252287849783897" lon="8.010484278202057">
        <ele>2203.9200000000001</ele>
        <time>2023-01-29T10:55:27Z</time>
      </trkpt>
      <trkpt lat="46.252286173403263" lon="8.010480338707566">
        <ele>2204.5599999999999</ele>
        <time>2023-01-29T10:55:49Z</time>
      </trkpt>
      <trkpt lat="46.252281982451677" lon="8.010465418919921">
        <ele>2205.1500000000001</ele>
        <time>2023-01-29T10:56:19Z</time>
      </trkpt>
      <trkpt lat="46.25228307209909" lon="8.010465586557984">
        <ele>2205.9099999999999</ele>
        <time>2023-01-29T10:56:33Z</time>
      </trkpt>
      <trkpt lat="46.252297991886735" lon="8.01047220826149">
        <ele>2205.27</ele>
        <time>2023-01-29T10:56:48Z</time>
      </trkpt>
      <trkpt lat="46.252295561134815" lon="8.010413115844131">
        <ele>2205.1700000000001</ele>
        <time>2023-01-29T10:56:59Z</time>
      </trkpt>
      <trkpt lat="46.252295477315784" lon="8.010410601273179">
        <ele>2206.3000000000002</ele>
        <time>2023-01-29T10:57:23Z</time>
      </trkpt>
      <trkpt lat="46.252312324941158" lon="8.010475393384695">
        <ele>2207.3699999999999</ele>
        <time>2023-01-29T10:57:36Z</time>
      </trkpt>
      <trkpt lat="46.252350797876716" lon="8.010497856885195">
        <ele>2207.5</ele>
        <time>2023-01-29T10:57:49Z</time>
      </trkpt>
      <trkpt lat="46.252395557239652" lon="8.010630626231432">
        <ele>2207.4299999999998</ele>
        <time>2023-01-29T10:58:02Z</time>
      </trkpt>
      <trkpt lat="46.252410979941487" lon="8.010677397251129">
        <ele>2207.5700000000002</ele>
        <time>2023-01-29T10:58:15Z</time>
      </trkpt>
      <trkpt lat="46.252426486462355" lon="8.010724084451795">
        <ele>2207.0900000000001</ele>
        <time>2023-01-29T10:58:26Z</time>
      </trkpt>
      <trkpt lat="46.252438053488731" lon="8.010754594579339">
        <ele>2206.4699999999998</ele>
        <time>2023-01-29T10:58:29Z</time>
      </trkpt>
      <trkpt lat="46.252449033781886" lon="8.010780243203044">
        <ele>2206.1700000000001</ele>
        <time>2023-01-29T10:58:31Z</time>
      </trkpt>
      <trkpt lat="46.25251030549407" lon="8.010923070833087">
        <ele>2206.0900000000001</ele>
        <time>2023-01-29T10:58:44Z</time>
      </trkpt>
      <trkpt lat="46.252603260800242" lon="8.011050811037421">
        <ele>2205.8800000000001</ele>
        <time>2023-01-29T10:58:58Z</time>
      </trkpt>
      <trkpt lat="46.252634525299072" lon="8.011067155748606">
        <ele>2205.75</ele>
        <time>2023-01-29T10:59:02Z</time>
      </trkpt>
      <trkpt lat="46.252722619101405" lon="8.011111663654447">
        <ele>2206.1399999999999</ele>
        <time>2023-01-29T10:59:13Z</time>
      </trkpt>
      <trkpt lat="46.25278833322227" lon="8.011260274797678">
        <ele>2206.5700000000002</ele>
        <time>2023-01-29T10:59:27Z</time>
      </trkpt>
      <trkpt lat="46.252870056778193" lon="8.011318193748593">
        <ele>2206.9699999999998</ele>
        <time>2023-01-29T10:59:39Z</time>
      </trkpt>
      <trkpt lat="46.252890340983868" lon="8.011319870129228">
        <ele>2206.9299999999998</ele>
        <time>2023-01-29T10:59:49Z</time>
      </trkpt>
      <trkpt lat="46.252878522500396" lon="8.011341243982315">
        <ele>2207.1999999999998</ele>
        <time>2023-01-29T11:00:09Z</time>
      </trkpt>
      <trkpt lat="46.252865865826607" lon="8.011340908706188">
        <ele>2206.9899999999998</ele>
        <time>2023-01-29T11:00:22Z</time>
      </trkpt>
      <trkpt lat="46.252873074263334" lon="8.011349206790328">
        <ele>2206.4899999999998</ele>
        <time>2023-01-29T11:00:37Z</time>
      </trkpt>
      <trkpt lat="46.252865949645638" lon="8.011343004181981">
        <ele>2206.1399999999999</ele>
        <time>2023-01-29T11:00:55Z</time>
      </trkpt>
      <trkpt lat="46.252873158082366" lon="8.011347530409694">
        <ele>2206.0900000000001</ele>
        <time>2023-01-29T11:01:16Z</time>
      </trkpt>
      <trkpt lat="46.252946415916085" lon="8.011428415775299">
        <ele>2205.5300000000002</ele>
        <time>2023-01-29T11:01:29Z</time>
      </trkpt>
      <trkpt lat="46.25303266569972" lon="8.011524388566613">
        <ele>2202.8299999999999</ele>
        <time>2023-01-29T11:01:40Z</time>
      </trkpt>
      <trkpt lat="46.253107851371169" lon="8.011594796553254">
        <ele>2201.3000000000002</ele>
        <time>2023-01-29T11:01:49Z</time>
      </trkpt>
      <trkpt lat="46.253187730908394" lon="8.011640980839729">
        <ele>2200.3899999999999</ele>
        <time>2023-01-29T11:01:59Z</time>
      </trkpt>
      <trkpt lat="46.253233077004552" lon="8.01163662225008">
        <ele>2199.9299999999998</ele>
        <time>2023-01-29T11:02:04Z</time>
      </trkpt>
      <trkpt lat="46.253287643194199" lon="8.011613236740232">
        <ele>2198.9899999999998</ele>
        <time>2023-01-29T11:02:12Z</time>
      </trkpt>
      <trkpt lat="46.253317818045616" lon="8.011607201769948">
        <ele>2198.8200000000002</ele>
        <time>2023-01-29T11:02:17Z</time>
      </trkpt>
      <trkpt lat="46.25338445417583" lon="8.011582056060433">
        <ele>2198.79</ele>
        <time>2023-01-29T11:02:27Z</time>
      </trkpt>
      <trkpt lat="46.253412114456296" lon="8.011552970856428">
        <ele>2199.3400000000001</ele>
        <time>2023-01-29T11:02:39Z</time>
      </trkpt>
      <trkpt lat="46.253409599885345" lon="8.011550791561604">
        <ele>2200.21</ele>
        <time>2023-01-29T11:03:00Z</time>
      </trkpt>
      <trkpt lat="46.253413204103708" lon="8.011550959199667">
        <ele>2201.73</ele>
        <time>2023-01-29T11:03:19Z</time>
      </trkpt>
      <trkpt lat="46.253418568521738" lon="8.011543331667781">
        <ele>2201.7800000000002</ele>
        <time>2023-01-29T11:03:21Z</time>
      </trkpt>
      <trkpt lat="46.253483779728413" lon="8.011536039412022">
        <ele>2202.4200000000001</ele>
        <time>2023-01-29T11:03:31Z</time>
      </trkpt>
      <trkpt lat="46.25349048525095" lon="8.01143922843039">
        <ele>2203.8600000000001</ele>
        <time>2023-01-29T11:03:44Z</time>
      </trkpt>
      <trkpt lat="46.25347145833075" lon="8.011306375265122">
        <ele>2204.7800000000002</ele>
        <time>2023-01-29T11:04:02Z</time>
      </trkpt>
      <trkpt lat="46.25344748608768" lon="8.011235548183322">
        <ele>2205.9000000000001</ele>
        <time>2023-01-29T11:04:11Z</time>
      </trkpt>
      <trkpt lat="46.253443211317062" lon="8.011156674474478">
        <ele>2206.1999999999998</ele>
        <time>2023-01-29T11:04:20Z</time>
      </trkpt>
      <trkpt lat="46.253438768908381" lon="8.011064389720559">
        <ele>2207.2199999999998</ele>
        <time>2023-01-29T11:04:33Z</time>
      </trkpt>
      <trkpt lat="46.253423765301704" lon="8.011012254282832">
        <ele>2205.4099999999999</ele>
        <time>2023-01-29T11:04:41Z</time>
      </trkpt>
      <trkpt lat="46.253452431410551" lon="8.010925250127912">
        <ele>2205.5900000000001</ele>
        <time>2023-01-29T11:04:56Z</time>
      </trkpt>
      <trkpt lat="46.253474643453956" lon="8.010854423046112">
        <ele>2207.5</ele>
        <time>2023-01-29T11:05:09Z</time>
      </trkpt>
      <trkpt lat="46.253502136096358" lon="8.010785104706883">
        <ele>2209.1900000000001</ele>
        <time>2023-01-29T11:05:19Z</time>
      </trkpt>
      <trkpt lat="46.253514206036925" lon="8.010690389201045">
        <ele>2210.3099999999999</ele>
        <time>2023-01-29T11:05:33Z</time>
      </trkpt>
      <trkpt lat="46.253539770841599" lon="8.010614365339279">
        <ele>2212.7399999999998</ele>
        <time>2023-01-29T11:05:48Z</time>
      </trkpt>
      <trkpt lat="46.253550248220563" lon="8.010541191324592">
        <ele>2213.77</ele>
        <time>2023-01-29T11:06:02Z</time>
      </trkpt>
      <trkpt lat="46.253591319546103" lon="8.010484697297216">
        <ele>2216.3299999999999</ele>
        <time>2023-01-29T11:06:16Z</time>
      </trkpt>
      <trkpt lat="46.253644041717052" lon="8.010500958189368">
        <ele>2219.8800000000001</ele>
        <time>2023-01-29T11:06:28Z</time>
      </trkpt>
      <trkpt lat="46.253701541572809" lon="8.010533899068832">
        <ele>2223.0500000000002</ele>
        <time>2023-01-29T11:06:41Z</time>
      </trkpt>
      <trkpt lat="46.253735907375813" lon="8.010503137484193">
        <ele>2224.8600000000001</ele>
        <time>2023-01-29T11:06:51Z</time>
      </trkpt>
      <trkpt lat="46.253767507150769" lon="8.010477321222425">
        <ele>2226.7399999999998</ele>
        <time>2023-01-29T11:07:04Z</time>
      </trkpt>
      <trkpt lat="46.253764322027564" lon="8.010486457496882">
        <ele>2227.7199999999998</ele>
        <time>2023-01-29T11:07:22Z</time>
      </trkpt>
      <trkpt lat="46.253764154389501" lon="8.010479332879186">
        <ele>2230.7600000000002</ele>
        <time>2023-01-29T11:07:49Z</time>
      </trkpt>
      <trkpt lat="46.253765914589167" lon="8.010483859106898">
        <ele>2231.3800000000001</ele>
        <time>2023-01-29T11:08:08Z</time>
      </trkpt>
      <trkpt lat="46.253763064742088" lon="8.010479919612408">
        <ele>2231.6799999999998</ele>
        <time>2023-01-29T11:08:29Z</time>
      </trkpt>
      <trkpt lat="46.253761807456613" lon="8.01048930734396">
        <ele>2231.3400000000001</ele>
        <time>2023-01-29T11:08:55Z</time>
      </trkpt>
      <trkpt lat="46.253762813284993" lon="8.010489726439118">
        <ele>2230.9400000000001</ele>
        <time>2023-01-29T11:09:12Z</time>
      </trkpt>
      <trkpt lat="46.253764322027564" lon="8.01048880442977">
        <ele>2231.73</ele>
        <time>2023-01-29T11:09:39Z</time>
      </trkpt>
      <trkpt lat="46.253769937902689" lon="8.010489894077182">
        <ele>2232.6399999999999</ele>
        <time>2023-01-29T11:10:21Z</time>
      </trkpt>
      <trkpt lat="46.253769937902689" lon="8.010484613478184">
        <ele>2232.8299999999999</ele>
        <time>2023-01-29T11:10:55Z</time>
      </trkpt>
      <trkpt lat="46.253782594576478" lon="8.010511351749301">
        <ele>2233.0799999999999</ele>
        <time>2023-01-29T11:11:16Z</time>
      </trkpt>
      <trkpt lat="46.253854930400848" lon="8.010566588491201">
        <ele>2234.23</ele>
        <time>2023-01-29T11:11:30Z</time>
      </trkpt>
      <trkpt lat="46.253942856565118" lon="8.010560972616077">
        <ele>2236.29</ele>
        <time>2023-01-29T11:11:46Z</time>
      </trkpt>
      <trkpt lat="46.253989124670625" lon="8.010561475530267">
        <ele>2237.9200000000001</ele>
        <time>2023-01-29T11:11:57Z</time>
      </trkpt>
      <trkpt lat="46.254038326442242" lon="8.010561559349299">
        <ele>2239.1500000000001</ele>
        <time>2023-01-29T11:12:08Z</time>
      </trkpt>
      <trkpt lat="46.254101023077965" lon="8.010555440559983">
        <ele>2241.21</ele>
        <time>2023-01-29T11:12:21Z</time>
      </trkpt>
      <trkpt lat="46.254160031676292" lon="8.0105562787503">
        <ele>2243.1300000000001</ele>
        <time>2023-01-29T11:12:34Z</time>
      </trkpt>
      <trkpt lat="46.254214765504003" lon="8.010572791099548">
        <ele>2244.7800000000002</ele>
        <time>2023-01-29T11:12:47Z</time>
      </trkpt>
      <trkpt lat="46.254254747182131" lon="8.010589806362987">
        <ele>2245.5100000000002</ele>
        <time>2023-01-29T11:12:58Z</time>
      </trkpt>
      <trkpt lat="46.254291711375117" lon="8.010611431673169">
        <ele>2246.0799999999999</ele>
        <time>2023-01-29T11:13:11Z</time>
      </trkpt>
      <trkpt lat="46.254336051642895" lon="8.010636745020747">
        <ele>2247.3099999999999</ele>
        <time>2023-01-29T11:13:22Z</time>
      </trkpt>
      <trkpt lat="46.254383660852909" lon="8.010664070025086">
        <ele>2248.8800000000001</ele>
        <time>2023-01-29T11:13:33Z</time>
      </trkpt>
      <trkpt lat="46.254424815997481" lon="8.010699190199375">
        <ele>2250.6300000000001</ele>
        <time>2023-01-29T11:13:45Z</time>
      </trkpt>
      <trkpt lat="46.254464043304324" lon="8.010732550173998">
        <ele>2252.2800000000002</ele>
        <time>2023-01-29T11:13:56Z</time>
      </trkpt>
      <trkpt lat="46.254483573138714" lon="8.010756270959973">
        <ele>2253.52</ele>
        <time>2023-01-29T11:14:09Z</time>
      </trkpt>
      <trkpt lat="46.254518525674939" lon="8.010827098041773">
        <ele>2253.9499999999998</ele>
        <time>2023-01-29T11:14:24Z</time>
      </trkpt>
      <trkpt lat="46.254572756588459" lon="8.010919718071818">
        <ele>2256.1399999999999</ele>
        <time>2023-01-29T11:14:38Z</time>
      </trkpt>
      <trkpt lat="46.254601171240211" lon="8.010975373908877">
        <ele>2258.0900000000001</ele>
        <time>2023-01-29T11:14:50Z</time>
      </trkpt>
      <trkpt lat="46.254638554528356" lon="8.011062126606703">
        <ele>2259.0100000000002</ele>
        <time>2023-01-29T11:15:04Z</time>
      </trkpt>
      <trkpt lat="46.254683313891292" lon="8.011169247329235">
        <ele>2261.23</ele>
        <time>2023-01-29T11:15:21Z</time>
      </trkpt>
      <trkpt lat="46.254717847332358" lon="8.0112574249506">
        <ele>2262.4400000000001</ele>
        <time>2023-01-29T11:15:34Z</time>
      </trkpt>
      <trkpt lat="46.254756990820169" lon="8.011342752724886">
        <ele>2263.3099999999999</ele>
        <time>2023-01-29T11:15:47Z</time>
      </trkpt>
      <trkpt lat="46.254797391593456" lon="8.011419363319874">
        <ele>2264.2800000000002</ele>
        <time>2023-01-29T11:16:00Z</time>
      </trkpt>
      <trkpt lat="46.254829745739698" lon="8.011489016935229">
        <ele>2265.29</ele>
        <time>2023-01-29T11:16:12Z</time>
      </trkpt>
      <trkpt lat="46.254848437383771" lon="8.011565711349249">
        <ele>2265.7199999999998</ele>
        <time>2023-01-29T11:16:22Z</time>
      </trkpt>
      <trkpt lat="46.254847599193454" lon="8.011592449620366">
        <ele>2266.0700000000002</ele>
        <time>2023-01-29T11:16:35Z</time>
      </trkpt>
      <trkpt lat="46.254840474575758" lon="8.011612063273788">
        <ele>2266.27</ele>
        <time>2023-01-29T11:16:49Z</time>
      </trkpt>
      <trkpt lat="46.254838714376092" lon="8.011687081307173">
        <ele>2266.1100000000001</ele>
        <time>2023-01-29T11:17:03Z</time>
      </trkpt>
      <trkpt lat="46.254868889227509" lon="8.01175681874156">
        <ele>2266.2600000000002</ele>
        <time>2023-01-29T11:17:14Z</time>
      </trkpt>
      <trkpt lat="46.254882551729679" lon="8.01167861558497">
        <ele>2267.1700000000001</ele>
        <time>2023-01-29T11:17:29Z</time>
      </trkpt>
      <trkpt lat="46.254885820671916" lon="8.011656738817692">
        <ele>2267.8400000000001</ele>
        <time>2023-01-29T11:17:39Z</time>
      </trkpt>
      <trkpt lat="46.254878947511315" lon="8.011657074093819">
        <ele>2269.1700000000001</ele>
        <time>2023-01-29T11:17:54Z</time>
      </trkpt>
      <trkpt lat="46.254867883399129" lon="8.011648692190647">
        <ele>2271.0300000000002</ele>
        <time>2023-01-29T11:18:15Z</time>
      </trkpt>
      <trkpt lat="46.254860255867243" lon="8.011651206761599">
        <ele>2271.25</ele>
        <time>2023-01-29T11:18:44Z</time>
      </trkpt>
      <trkpt lat="46.254864782094955" lon="8.011669814586639">
        <ele>2271.0599999999999</ele>
        <time>2023-01-29T11:18:56Z</time>
      </trkpt>
      <trkpt lat="46.254870314151049" lon="8.011664198711515">
        <ele>2270.2199999999998</ele>
        <time>2023-01-29T11:19:07Z</time>
      </trkpt>
      <trkpt lat="46.25484885647893" lon="8.011662270873785">
        <ele>2269.4299999999998</ele>
        <time>2023-01-29T11:19:20Z</time>
      </trkpt>
      <trkpt lat="46.254862267524004" lon="8.011669060215354">
        <ele>2270.8299999999999</ele>
        <time>2023-01-29T11:19:35Z</time>
      </trkpt>
      <trkpt lat="46.254858998581767" lon="8.011662689968944">
        <ele>2271.3099999999999</ele>
        <time>2023-01-29T11:19:51Z</time>
      </trkpt>
      <trkpt lat="46.254853382706642" lon="8.011663276702166">
        <ele>2271.9299999999998</ele>
        <time>2023-01-29T11:20:13Z</time>
      </trkpt>
      <trkpt lat="46.254841983318329" lon="8.011658750474453">
        <ele>2272.3499999999999</ele>
        <time>2023-01-29T11:20:19Z</time>
      </trkpt>
      <trkpt lat="46.254839301109314" lon="8.011658834293485">
        <ele>2272.2800000000002</ele>
        <time>2023-01-29T11:20:38Z</time>
      </trkpt>
      <trkpt lat="46.25484449788928" lon="8.011660594493151">
        <ele>2271.8000000000002</ele>
        <time>2023-01-29T11:21:01Z</time>
      </trkpt>
      <trkpt lat="46.254844916984439" lon="8.011668892577291">
        <ele>2271.8000000000002</ele>
        <time>2023-01-29T11:21:21Z</time>
      </trkpt>
      <trkpt lat="46.254841815680265" lon="8.011668724939227">
        <ele>2271.8499999999999</ele>
        <time>2023-01-29T11:21:43Z</time>
      </trkpt>
      <trkpt lat="46.254843408241868" lon="8.011670485138893">
        <ele>2271.54</ele>
        <time>2023-01-29T11:22:05Z</time>
      </trkpt>
      <trkpt lat="46.254841731861234" lon="8.01167132332921">
        <ele>2271.6300000000001</ele>
        <time>2023-01-29T11:22:25Z</time>
      </trkpt>
      <trkpt lat="46.254837792366743" lon="8.011664114892483">
        <ele>2271.6500000000001</ele>
        <time>2023-01-29T11:22:44Z</time>
      </trkpt>
      <trkpt lat="46.254836618900299" lon="8.011656403541565">
        <ele>2271.3099999999999</ele>
        <time>2023-01-29T11:23:03Z</time>
      </trkpt>
      <trkpt lat="46.25483569689095" lon="8.011658834293485">
        <ele>2271.3000000000002</ele>
        <time>2023-01-29T11:23:24Z</time>
      </trkpt>
      <trkpt lat="46.25484743155539" lon="8.011671490967274">
        <ele>2271.4400000000001</ele>
        <time>2023-01-29T11:23:45Z</time>
      </trkpt>
      <trkpt lat="46.254855394363403" lon="8.01167325116694">
        <ele>2271.2399999999998</ele>
        <time>2023-01-29T11:24:10Z</time>
      </trkpt>
      <trkpt lat="46.254848102107644" lon="8.011680711060762">
        <ele>2270.9200000000001</ele>
        <time>2023-01-29T11:24:38Z</time>
      </trkpt>
      <trkpt lat="46.254837289452553" lon="8.011693535372615">
        <ele>2271.1399999999999</ele>
        <time>2023-01-29T11:24:59Z</time>
      </trkpt>
      <trkpt lat="46.254833936691284" lon="8.011699989438057">
        <ele>2270.4000000000001</ele>
        <time>2023-01-29T11:25:18Z</time>
      </trkpt>
      <trkpt lat="46.254839133471251" lon="8.011700911447406">
        <ele>2270.6599999999999</ele>
        <time>2023-01-29T11:25:38Z</time>
      </trkpt>
      <trkpt lat="46.254843240603805" lon="8.011698732152581">
        <ele>2271.48</ele>
        <time>2023-01-29T11:25:59Z</time>
      </trkpt>
      <trkpt lat="46.254841228947043" lon="8.01169328391552">
        <ele>2271.3800000000001</ele>
        <time>2023-01-29T11:26:22Z</time>
      </trkpt>
      <trkpt lat="46.254839636385441" lon="8.011692697182298">
        <ele>2271.6599999999999</ele>
        <time>2023-01-29T11:26:38Z</time>
      </trkpt>
      <trkpt lat="46.25484399497509" lon="8.0116874165833">
        <ele>2271.54</ele>
        <time>2023-01-29T11:27:02Z</time>
      </trkpt>
      <trkpt lat="46.254834188148379" lon="8.011674005538225">
        <ele>2272.7800000000002</ele>
        <time>2023-01-29T11:27:20Z</time>
      </trkpt>
      <trkpt lat="46.254831925034523" lon="8.011671742424369">
        <ele>2272.4699999999998</ele>
        <time>2023-01-29T11:27:48Z</time>
      </trkpt>
      <trkpt lat="46.254840726032853" lon="8.011678028851748">
        <ele>2271.9499999999998</ele>
        <time>2023-01-29T11:28:19Z</time>
      </trkpt>
      <trkpt lat="46.25483863055706" lon="8.011677609756589">
        <ele>2272.25</ele>
        <time>2023-01-29T11:28:40Z</time>
      </trkpt>
      <trkpt lat="46.254832930862904" lon="8.011673083528876">
        <ele>2272.1100000000001</ele>
        <time>2023-01-29T11:28:57Z</time>
      </trkpt>
      <trkpt lat="46.254830164834857" lon="8.01166252233088">
        <ele>2272.54</ele>
        <time>2023-01-29T11:29:12Z</time>
      </trkpt>
      <trkpt lat="46.254819016903639" lon="8.011641567572951">
        <ele>2271.9200000000001</ele>
        <time>2023-01-29T11:29:31Z</time>
      </trkpt>
      <trkpt lat="46.254824632778764" lon="8.011617846786976">
        <ele>2272.9400000000001</ele>
        <time>2023-01-29T11:29:47Z</time>
      </trkpt>
      <trkpt lat="46.254880288615823" lon="8.011559257283807">
        <ele>2272.27</ele>
        <time>2023-01-29T11:29:59Z</time>
      </trkpt>
      <trkpt lat="46.254949606955051" lon="8.011518940329552">
        <ele>2273.1300000000001</ele>
        <time>2023-01-29T11:30:12Z</time>
      </trkpt>
      <trkpt lat="46.25499595887959" lon="8.011492621153593">
        <ele>2273.8099999999999</ele>
        <time>2023-01-29T11:30:22Z</time>
      </trkpt>
      <trkpt lat="46.255009872838855" lon="8.011483149603009">
        <ele>2274.1999999999998</ele>
        <time>2023-01-29T11:30:34Z</time>
      </trkpt>
      <trkpt lat="46.255019009113312" lon="8.011464877054095">
        <ele>2274.0999999999999</ele>
        <time>2023-01-29T11:30:46Z</time>
      </trkpt>
      <trkpt lat="46.255017584189773" lon="8.011450963094831">
        <ele>2274.7199999999998</ele>
        <time>2023-01-29T11:31:06Z</time>
      </trkpt>
      <trkpt lat="46.255020350217819" lon="8.011444760486484">
        <ele>2275.5999999999999</ele>
        <time>2023-01-29T11:31:25Z</time>
      </trkpt>
      <trkpt lat="46.25506242737174" lon="8.011404275894165">
        <ele>2276.04</ele>
        <time>2023-01-29T11:31:36Z</time>
      </trkpt>
      <trkpt lat="46.255120765417814" lon="8.011373681947589">
        <ele>2277.6700000000001</ele>
        <time>2023-01-29T11:31:50Z</time>
      </trkpt>
      <trkpt lat="46.255156304687262" lon="8.011339483782649">
        <ele>2277.4000000000001</ele>
        <time>2023-01-29T11:31:55Z</time>
      </trkpt>
      <trkpt lat="46.255248505622149" lon="8.011275194585323">
        <ele>2277.1599999999999</ele>
        <time>2023-01-29T11:32:08Z</time>
      </trkpt>
      <trkpt lat="46.255318410694599" lon="8.011263124644756">
        <ele>2279.27</ele>
        <time>2023-01-29T11:32:20Z</time>
      </trkpt>
      <trkpt lat="46.255360823124647" lon="8.011237140744925">
        <ele>2280.75</ele>
        <time>2023-01-29T11:32:31Z</time>
      </trkpt>
      <trkpt lat="46.255411617457867" lon="8.011201685294509">
        <ele>2282.27</ele>
        <time>2023-01-29T11:32:43Z</time>
      </trkpt>
      <trkpt lat="46.255450760945678" lon="8.011167990043759">
        <ele>2283.5</ele>
        <time>2023-01-29T11:32:57Z</time>
      </trkpt>
      <trkpt lat="46.255460064858198" lon="8.01115533336997">
        <ele>2284.0599999999999</ele>
        <time>2023-01-29T11:33:13Z</time>
      </trkpt>
      <trkpt lat="46.255474397912621" lon="8.011116776615381">
        <ele>2284.3400000000001</ele>
        <time>2023-01-29T11:33:30Z</time>
      </trkpt>
      <trkpt lat="46.255479343235493" lon="8.011117950081825">
        <ele>2284.6500000000001</ele>
        <time>2023-01-29T11:33:45Z</time>
      </trkpt>
      <trkpt lat="46.255481103435159" lon="8.011116273701191">
        <ele>2284.8299999999999</ele>
        <time>2023-01-29T11:33:57Z</time>
      </trkpt>
      <trkpt lat="46.255486970767379" lon="8.011110406368971">
        <ele>2284.96</ele>
        <time>2023-01-29T11:34:18Z</time>
      </trkpt>
      <trkpt lat="46.255493592470884" lon="8.01110596396029">
        <ele>2285.1300000000001</ele>
        <time>2023-01-29T11:34:31Z</time>
      </trkpt>
      <trkpt lat="46.255489736795425" lon="8.011118788272142">
        <ele>2285.02</ele>
        <time>2023-01-29T11:34:46Z</time>
      </trkpt>
      <trkpt lat="46.255489820614457" lon="8.011120045557618">
        <ele>2284.9200000000001</ele>
        <time>2023-01-29T11:34:59Z</time>
      </trkpt>
      <trkpt lat="46.25548554584384" lon="8.011122979223728">
        <ele>2285</ele>
        <time>2023-01-29T11:35:09Z</time>
      </trkpt>
      <trkpt lat="46.25550021417439" lon="8.011109316721559">
        <ele>2284.3099999999999</ele>
        <time>2023-01-29T11:35:31Z</time>
      </trkpt>
      <trkpt lat="46.25549677759409" lon="8.011113172397018">
        <ele>2284.3000000000002</ele>
        <time>2023-01-29T11:35:42Z</time>
      </trkpt>
      <trkpt lat="46.255500381812453" lon="8.011111076921225">
        <ele>2284.25</ele>
        <time>2023-01-29T11:35:52Z</time>
      </trkpt>
      <trkpt lat="46.255502393469214" lon="8.011120883747935">
        <ele>2284.7399999999998</ele>
        <time>2023-01-29T11:36:03Z</time>
      </trkpt>
      <trkpt lat="46.255498956888914" lon="8.011124823242426">
        <ele>2285.0799999999999</ele>
        <time>2023-01-29T11:36:13Z</time>
      </trkpt>
      <trkpt lat="46.255508344620466" lon="8.011119542643428">
        <ele>2284.9299999999998</ele>
        <time>2023-01-29T11:36:25Z</time>
      </trkpt>
      <trkpt lat="46.255507757887244" lon="8.011118033900857">
        <ele>2284.9699999999998</ele>
        <time>2023-01-29T11:36:36Z</time>
      </trkpt>
      <trkpt lat="46.255506835877895" lon="8.011116189882159">
        <ele>2285.02</ele>
        <time>2023-01-29T11:36:46Z</time>
      </trkpt>
      <trkpt lat="46.255512703210115" lon="8.011111663654447">
        <ele>2285.0599999999999</ele>
        <time>2023-01-29T11:36:57Z</time>
      </trkpt>
      <trkpt lat="46.255506332963705" lon="8.011124404147267">
        <ele>2285.1300000000001</ele>
        <time>2023-01-29T11:37:07Z</time>
      </trkpt>
      <trkpt lat="46.255510272458196" lon="8.011119039729238">
        <ele>2285.1100000000001</ele>
        <time>2023-01-29T11:37:17Z</time>
      </trkpt>
      <trkpt lat="46.255508344620466" lon="8.01112356595695">
        <ele>2285.1599999999999</ele>
        <time>2023-01-29T11:37:26Z</time>
      </trkpt>
      <trkpt lat="46.255510356277227" lon="8.011116776615381">
        <ele>2285.02</ele>
        <time>2023-01-29T11:37:35Z</time>
      </trkpt>
      <trkpt lat="46.255500130355358" lon="8.011125577613711">
        <ele>2284.8299999999999</ele>
        <time>2023-01-29T11:37:46Z</time>
      </trkpt>
      <trkpt lat="46.255506165325642" lon="8.011124068871141">
        <ele>2284.6199999999999</ele>
        <time>2023-01-29T11:37:55Z</time>
      </trkpt>
      <trkpt lat="46.25550365075469" lon="8.011120045557618">
        <ele>2284.9000000000001</ele>
        <time>2023-01-29T11:38:06Z</time>
      </trkpt>
      <trkpt lat="46.255506249144673" lon="8.011110071092844">
        <ele>2285.0900000000001</ele>
        <time>2023-01-29T11:38:26Z</time>
      </trkpt>
      <trkpt lat="46.255504069849849" lon="8.011109735816717">
        <ele>2284.3499999999999</ele>
        <time>2023-01-29T11:38:36Z</time>
      </trkpt>
      <trkpt lat="46.255496190860868" lon="8.011117866262794">
        <ele>2283.7199999999998</ele>
        <time>2023-01-29T11:38:55Z</time>
      </trkpt>
      <trkpt lat="46.255491496995091" lon="8.011127756908536">
        <ele>2284.7600000000002</ele>
        <time>2023-01-29T11:39:17Z</time>
      </trkpt>
      <trkpt lat="46.25548948533833" lon="8.01112256012857">
        <ele>2285.7600000000002</ele>
        <time>2023-01-29T11:39:33Z</time>
      </trkpt>
      <trkpt lat="46.255493760108948" lon="8.011121973395348">
        <ele>2286.3499999999999</ele>
        <time>2023-01-29T11:39:51Z</time>
      </trkpt>
      <trkpt lat="46.255495101213455" lon="8.011124487966299">
        <ele>2287.48</ele>
        <time>2023-01-29T11:40:13Z</time>
      </trkpt>
      <trkpt lat="46.25550122000277" lon="8.011136474087834">
        <ele>2288.5799999999999</ele>
        <time>2023-01-29T11:40:27Z</time>
      </trkpt>
      <trkpt lat="46.2555031478405" lon="8.011138821020722">
        <ele>2288.5500000000002</ele>
        <time>2023-01-29T11:40:33Z</time>
      </trkpt>
      <trkpt lat="46.255504740402102" lon="8.011137647554278">
        <ele>2288.7800000000002</ele>
        <time>2023-01-29T11:40:46Z</time>
      </trkpt>
      <trkpt lat="46.255503483116627" lon="8.011129265651107">
        <ele>2288.8400000000001</ele>
        <time>2023-01-29T11:40:59Z</time>
      </trkpt>
      <trkpt lat="46.255505159497261" lon="8.011125409975648">
        <ele>2289.4200000000001</ele>
        <time>2023-01-29T11:41:10Z</time>
      </trkpt>
      <trkpt lat="46.25550557859242" lon="8.011125409975648">
        <ele>2289.9099999999999</ele>
        <time>2023-01-29T11:41:21Z</time>
      </trkpt>
      <trkpt lat="46.255507422611117" lon="8.011124907061458">
        <ele>2290.27</ele>
        <time>2023-01-29T11:41:31Z</time>
      </trkpt>
      <trkpt lat="46.255556456744671" lon="8.011091044172645">
        <ele>2289.5300000000002</ele>
        <time>2023-01-29T11:41:41Z</time>
      </trkpt>
      <trkpt lat="46.255631893873215" lon="8.011066820472479">
        <ele>2289.6399999999999</ele>
        <time>2023-01-29T11:41:52Z</time>
      </trkpt>
      <trkpt lat="46.255689142271876" lon="8.011088026687503">
        <ele>2291.4000000000001</ele>
        <time>2023-01-29T11:41:59Z</time>
      </trkpt>
      <trkpt lat="46.255753599107265" lon="8.011150471866131">
        <ele>2292.52</ele>
        <time>2023-01-29T11:42:10Z</time>
      </trkpt>
      <trkpt lat="46.255809254944324" lon="8.011214341968298">
        <ele>2293.9899999999998</ele>
        <time>2023-01-29T11:42:20Z</time>
      </trkpt>
      <trkpt lat="46.255858708173037" lon="8.011269411072135">
        <ele>2295.3000000000002</ele>
        <time>2023-01-29T11:42:29Z</time>
      </trkpt>
      <trkpt lat="46.25587941147387" lon="8.011287096887827">
        <ele>2296.2399999999998</ele>
        <time>2023-01-29T11:42:33Z</time>
      </trkpt>
      <trkpt lat="46.255943616852164" lon="8.011315762996674">
        <ele>2298.0300000000002</ele>
        <time>2023-01-29T11:42:43Z</time>
      </trkpt>
      <trkpt lat="46.255993656814098" lon="8.011355828493834">
        <ele>2298.3200000000002</ele>
        <time>2023-01-29T11:42:53Z</time>
      </trkpt>
      <trkpt lat="46.256047217175364" lon="8.011401426047087">
        <ele>2299.9200000000001</ele>
        <time>2023-01-29T11:43:02Z</time>
      </trkpt>
      <trkpt lat="46.256085941568017" lon="8.011440737172961">
        <ele>2300.8099999999999</ele>
        <time>2023-01-29T11:43:10Z</time>
      </trkpt>
      <trkpt lat="46.256124414503574" lon="8.011467726901174">
        <ele>2301.6900000000001</ele>
        <time>2023-01-29T11:43:17Z</time>
      </trkpt>
      <trkpt lat="46.256127934902906" lon="8.011473510414362">
        <ele>2301.8299999999999</ele>
        <time>2023-01-29T11:43:18Z</time>
      </trkpt>
      <trkpt lat="46.256178477779031" lon="8.011496728286147">
        <ele>2302.5999999999999</ele>
        <time>2023-01-29T11:43:28Z</time>
      </trkpt>
      <trkpt lat="46.256214771419764" lon="8.011522460728884">
        <ele>2303.77</ele>
        <time>2023-01-29T11:43:36Z</time>
      </trkpt>
      <trkpt lat="46.256250897422433" lon="8.011549282819033">
        <ele>2305.1599999999999</ele>
        <time>2023-01-29T11:43:44Z</time>
      </trkpt>
      <trkpt lat="46.256308816373348" lon="8.011588007211685">
        <ele>2307.6300000000001</ele>
        <time>2023-01-29T11:43:56Z</time>
      </trkpt>
      <trkpt lat="46.256335470825434" lon="8.011599238961935">
        <ele>2308.6500000000001</ele>
        <time>2023-01-29T11:44:09Z</time>
      </trkpt>
      <trkpt lat="46.256336057558656" lon="8.011609297245741">
        <ele>2308.46</ele>
        <time>2023-01-29T11:44:30Z</time>
      </trkpt>
      <trkpt lat="46.256337063387036" lon="8.01160192117095">
        <ele>2308.29</ele>
        <time>2023-01-29T11:44:50Z</time>
      </trkpt>
      <trkpt lat="46.256338572129607" lon="8.011617679148912">
        <ele>2308.1199999999999</ele>
        <time>2023-01-29T11:44:55Z</time>
      </trkpt>
      <trkpt lat="46.256319964304566" lon="8.011599658057094">
        <ele>2307.8800000000001</ele>
        <time>2023-01-29T11:45:12Z</time>
      </trkpt>
      <trkpt lat="46.256303284317255" lon="8.011618014425039">
        <ele>2306.8899999999999</ele>
        <time>2023-01-29T11:45:30Z</time>
      </trkpt>
      <trkpt lat="46.256300434470177" lon="8.011613069102168">
        <ele>2306.0500000000002</ele>
        <time>2023-01-29T11:45:53Z</time>
      </trkpt>
      <trkpt lat="46.256317868828773" lon="8.011628491804004">
        <ele>2304.6900000000001</ele>
        <time>2023-01-29T11:46:03Z</time>
      </trkpt>
      <trkpt lat="46.256373943760991" lon="8.011655565351248">
        <ele>2305.0900000000001</ele>
        <time>2023-01-29T11:46:12Z</time>
      </trkpt>
      <trkpt lat="46.256406968459487" lon="8.011697810143232">
        <ele>2305.9200000000001</ele>
        <time>2023-01-29T11:46:19Z</time>
      </trkpt>
      <trkpt lat="46.256432114169002" lon="8.011715076863766">
        <ele>2306.1900000000001</ele>
        <time>2023-01-29T11:46:23Z</time>
      </trkpt>
      <trkpt lat="46.256462289020419" lon="8.011745922267437">
        <ele>2306.4299999999998</ele>
        <time>2023-01-29T11:46:28Z</time>
      </trkpt>
      <trkpt lat="46.256493721157312" lon="8.011763691902161">
        <ele>2306.6500000000001</ele>
        <time>2023-01-29T11:46:33Z</time>
      </trkpt>
      <trkpt lat="46.25652976334095" lon="8.011809960007668">
        <ele>2306.9499999999998</ele>
        <time>2023-01-29T11:46:40Z</time>
      </trkpt>
      <trkpt lat="46.256563207134604" lon="8.011854300275445">
        <ele>2306.8800000000001</ele>
        <time>2023-01-29T11:46:47Z</time>
      </trkpt>
      <trkpt lat="46.256579803302884" lon="8.011867962777615">
        <ele>2306.3699999999999</ele>
        <time>2023-01-29T11:46:54Z</time>
      </trkpt>
      <trkpt lat="46.256584832444787" lon="8.011868968605995">
        <ele>2306.27</ele>
        <time>2023-01-29T11:47:01Z</time>
      </trkpt>
      <trkpt lat="46.256586844101548" lon="8.011874333024025">
        <ele>2304.8099999999999</ele>
        <time>2023-01-29T11:47:15Z</time>
      </trkpt>
      <trkpt lat="46.256553567945957" lon="8.01188045181334">
        <ele>2304.1900000000001</ele>
        <time>2023-01-29T11:47:24Z</time>
      </trkpt>
      <trkpt lat="46.256542671471834" lon="8.011878859251738">
        <ele>2305.3499999999999</ele>
        <time>2023-01-29T11:47:44Z</time>
      </trkpt>
      <trkpt lat="46.256569242104888" lon="8.011887911707163">
        <ele>2305</ele>
        <time>2023-01-29T11:47:52Z</time>
      </trkpt>
      <trkpt lat="46.256589442491531" lon="8.011888079345226">
        <ele>2305.3800000000001</ele>
        <time>2023-01-29T11:48:01Z</time>
      </trkpt>
      <trkpt lat="46.256597992032766" lon="8.011891096830368">
        <ele>2304.77</ele>
        <time>2023-01-29T11:48:06Z</time>
      </trkpt>
      <trkpt lat="46.25663336366415" lon="8.011924372985959">
        <ele>2305.6399999999999</ele>
        <time>2023-01-29T11:48:12Z</time>
      </trkpt>
      <trkpt lat="46.256664209067822" lon="8.011950189247727">
        <ele>2305.5599999999999</ele>
        <time>2023-01-29T11:48:17Z</time>
      </trkpt>
      <trkpt lat="46.256697233766317" lon="8.011992685496807">
        <ele>2305.8099999999999</ele>
        <time>2023-01-29T11:48:23Z</time>
      </trkpt>
      <trkpt lat="46.256705280393362" lon="8.012010036036372">
        <ele>2305.8000000000002</ele>
        <time>2023-01-29T11:48:25Z</time>
      </trkpt>
      <trkpt lat="46.256722044199705" lon="8.012032918632031">
        <ele>2306</ele>
        <time>2023-01-29T11:48:28Z</time>
      </trkpt>
      <trkpt lat="46.25680242665112" lon="8.012109277769923">
        <ele>2305.6500000000001</ele>
        <time>2023-01-29T11:48:39Z</time>
      </trkpt>
      <trkpt lat="46.256818016991019" lon="8.012120760977268">
        <ele>2305.3800000000001</ele>
        <time>2023-01-29T11:48:41Z</time>
      </trkpt>
      <trkpt lat="46.256831176578999" lon="8.01214724779129">
        <ele>2304.48</ele>
        <time>2023-01-29T11:48:44Z</time>
      </trkpt>
      <trkpt lat="46.256865542382002" lon="8.012164682149887">
        <ele>2304.02</ele>
        <time>2023-01-29T11:48:48Z</time>
      </trkpt>
      <trkpt lat="46.256884653121233" lon="8.012195779010654">
        <ele>2301.8099999999999</ele>
        <time>2023-01-29T11:48:57Z</time>
      </trkpt>
      <trkpt lat="46.256921868771315" lon="8.012240286916494">
        <ele>2300.6300000000001</ele>
        <time>2023-01-29T11:49:03Z</time>
      </trkpt>
      <trkpt lat="46.256978781893849" lon="8.012269120663405">
        <ele>2300.52</ele>
        <time>2023-01-29T11:49:10Z</time>
      </trkpt>
      <trkpt lat="46.257007615640759" lon="8.012278759852052">
        <ele>2300.6700000000001</ele>
        <time>2023-01-29T11:49:13Z</time>
      </trkpt>
      <trkpt lat="46.257032174617052" lon="8.012293092906475">
        <ele>2300.9099999999999</ele>
        <time>2023-01-29T11:49:16Z</time>
      </trkpt>
      <trkpt lat="46.257085734978318" lon="8.012359058484435">
        <ele>2300.1799999999998</ele>
        <time>2023-01-29T11:49:25Z</time>
      </trkpt>
      <trkpt lat="46.257167290896177" lon="8.012432148680091">
        <ele>2296.1900000000001</ele>
        <time>2023-01-29T11:49:37Z</time>
      </trkpt>
      <trkpt lat="46.25720014795661" lon="8.012458300217986">
        <ele>2295.1300000000001</ele>
        <time>2023-01-29T11:49:42Z</time>
      </trkpt>
      <trkpt lat="46.257214145734906" lon="8.012480093166232">
        <ele>2295.0799999999999</ele>
        <time>2023-01-29T11:49:45Z</time>
      </trkpt>
      <trkpt lat="46.257263515144587" lon="8.012508759275079">
        <ele>2295.4400000000001</ele>
        <time>2023-01-29T11:49:52Z</time>
      </trkpt>
      <trkpt lat="46.257359907031059" lon="8.012594170868397">
        <ele>2297.3600000000001</ele>
        <time>2023-01-29T11:50:08Z</time>
      </trkpt>
      <trkpt lat="46.257435092702508" lon="8.012662818655372">
        <ele>2299.3899999999999</ele>
        <time>2023-01-29T11:50:20Z</time>
      </trkpt>
      <trkpt lat="46.257496615871787" lon="8.012740183621645">
        <ele>2301.4699999999998</ele>
        <time>2023-01-29T11:50:31Z</time>
      </trkpt>
      <trkpt lat="46.257512206211686" lon="8.012751499190927">
        <ele>2302.1300000000001</ele>
        <time>2023-01-29T11:50:33Z</time>
      </trkpt>
      <trkpt lat="46.257555708289146" lon="8.012824505567551">
        <ele>2303.6300000000001</ele>
        <time>2023-01-29T11:50:43Z</time>
      </trkpt>
      <trkpt lat="46.257606334984303" lon="8.012922909110785">
        <ele>2306.3000000000002</ele>
        <time>2023-01-29T11:50:57Z</time>
      </trkpt>
      <trkpt lat="46.257640784606338" lon="8.013036232441664">
        <ele>2308.6199999999999</ele>
        <time>2023-01-29T11:51:12Z</time>
      </trkpt>
      <trkpt lat="46.257660146802664" lon="8.013126589357853">
        <ele>2310.7600000000002</ele>
        <time>2023-01-29T11:51:24Z</time>
      </trkpt>
      <trkpt lat="46.257673222571611" lon="8.013208396732807">
        <ele>2312.0100000000002</ele>
        <time>2023-01-29T11:51:36Z</time>
      </trkpt>
      <trkpt lat="46.257673390209675" lon="8.013227004557848">
        <ele>2312.29</ele>
        <time>2023-01-29T11:51:38Z</time>
      </trkpt>
      <trkpt lat="46.257664924487472" lon="8.013277212157846">
        <ele>2313.0900000000001</ele>
        <time>2023-01-29T11:51:44Z</time>
      </trkpt>
      <trkpt lat="46.257681604474783" lon="8.013277631253004">
        <ele>2313.7800000000002</ele>
        <time>2023-01-29T11:51:47Z</time>
      </trkpt>
      <trkpt lat="46.2577273696661" lon="8.013275368139148">
        <ele>2315.8899999999999</ele>
        <time>2023-01-29T11:51:55Z</time>
      </trkpt>
      <trkpt lat="46.257773889228702" lon="8.013264387845993">
        <ele>2318.5300000000002</ele>
        <time>2023-01-29T11:52:04Z</time>
      </trkpt>
      <trkpt lat="46.257810182869434" lon="8.013268746435642">
        <ele>2320.54</ele>
        <time>2023-01-29T11:52:14Z</time>
      </trkpt>
      <trkpt lat="46.257824096828699" lon="8.013275116682053">
        <ele>2321.1199999999999</ele>
        <time>2023-01-29T11:52:18Z</time>
      </trkpt>
      <trkpt lat="46.257836418226361" lon="8.013277715072036">
        <ele>2321.4899999999998</ele>
        <time>2023-01-29T11:52:21Z</time>
      </trkpt>
      <trkpt lat="46.257847901433706" lon="8.013283330947161">
        <ele>2321.8499999999999</ele>
        <time>2023-01-29T11:52:24Z</time>
      </trkpt>
      <trkpt lat="46.257875645533204" lon="8.013304201886058">
        <ele>2322.77</ele>
        <time>2023-01-29T11:52:33Z</time>
      </trkpt>
      <trkpt lat="46.257882434874773" lon="8.013308141380549">
        <ele>2323.4899999999998</ele>
        <time>2023-01-29T11:52:35Z</time>
      </trkpt>
      <trkpt lat="46.25790573656559" lon="8.013323396444321">
        <ele>2324.1799999999998</ele>
        <time>2023-01-29T11:52:41Z</time>
      </trkpt>
      <trkpt lat="46.257942197844386" lon="8.013324150815606">
        <ele>2325.1900000000001</ele>
        <time>2023-01-29T11:52:49Z</time>
      </trkpt>
      <trkpt lat="46.257965667173266" lon="8.013328760862351">
        <ele>2325.46</ele>
        <time>2023-01-29T11:52:55Z</time>
      </trkpt>
      <trkpt lat="46.257989890873432" lon="8.013339070603252">
        <ele>2325.96</ele>
        <time>2023-01-29T11:53:02Z</time>
      </trkpt>
      <trkpt lat="46.258011097088456" lon="8.013343680649996">
        <ele>2326.02</ele>
        <time>2023-01-29T11:53:09Z</time>
      </trkpt>
      <trkpt lat="46.258036745712161" lon="8.01336295902729">
        <ele>2326.5100000000002</ele>
        <time>2023-01-29T11:53:16Z</time>
      </trkpt>
      <trkpt lat="46.258045714348555" lon="8.013362204656005">
        <ele>2327</ele>
        <time>2023-01-29T11:53:17Z</time>
      </trkpt>
      <trkpt lat="46.258042696863413" lon="8.013383243232966">
        <ele>2326.6599999999999</ele>
        <time>2023-01-29T11:53:19Z</time>
      </trkpt>
      <trkpt lat="46.258068094030023" lon="8.013398246839643">
        <ele>2327.0999999999999</ele>
        <time>2023-01-29T11:53:24Z</time>
      </trkpt>
      <trkpt lat="46.258102795109153" lon="8.013431187719107">
        <ele>2329.1300000000001</ele>
        <time>2023-01-29T11:53:30Z</time>
      </trkpt>
      <trkpt lat="46.258108578622341" lon="8.013480808585882">
        <ele>2328.4699999999998</ele>
        <time>2023-01-29T11:53:37Z</time>
      </trkpt>
      <trkpt lat="46.258128024637699" lon="8.013512408360839">
        <ele>2328.5100000000002</ele>
        <time>2023-01-29T11:53:43Z</time>
      </trkpt>
      <trkpt lat="46.258139843121171" lon="8.01353101618588">
        <ele>2329.5500000000002</ele>
        <time>2023-01-29T11:53:46Z</time>
      </trkpt>
      <trkpt lat="46.258152751252055" lon="8.013554066419601">
        <ele>2330.0999999999999</ele>
        <time>2023-01-29T11:53:50Z</time>
      </trkpt>
      <trkpt lat="46.258170856162906" lon="8.013591198250651">
        <ele>2330.4400000000001</ele>
        <time>2023-01-29T11:53:56Z</time>
      </trkpt>
      <trkpt lat="46.258213939145207" lon="8.013629922643304">
        <ele>2331.4499999999998</ele>
        <time>2023-01-29T11:54:06Z</time>
      </trkpt>
      <trkpt lat="46.258256603032351" lon="8.01368348300457">
        <ele>2333.04</ele>
        <time>2023-01-29T11:54:17Z</time>
      </trkpt>
      <trkpt lat="46.258298764005303" lon="8.01373184658587">
        <ele>2334.4499999999998</ele>
        <time>2023-01-29T11:54:28Z</time>
      </trkpt>
      <trkpt lat="46.258308989927173" lon="8.013740396127105">
        <ele>2334.9099999999999</ele>
        <time>2023-01-29T11:54:30Z</time>
      </trkpt>
      <trkpt lat="46.258355174213648" lon="8.013764033094049">
        <ele>2336.4099999999999</ele>
        <time>2023-01-29T11:54:37Z</time>
      </trkpt>
      <trkpt lat="46.258377302438021" lon="8.013775432482362">
        <ele>2337.4400000000001</ele>
        <time>2023-01-29T11:54:40Z</time>
      </trkpt>
      <trkpt lat="46.258417032659054" lon="8.013848103582859">
        <ele>2338.6799999999998</ele>
        <time>2023-01-29T11:54:51Z</time>
      </trkpt>
      <trkpt lat="46.25842709094286" lon="8.01386134698987">
        <ele>2338.7600000000002</ele>
        <time>2023-01-29T11:54:53Z</time>
      </trkpt>
      <trkpt lat="46.258479310199618" lon="8.013922953978181">
        <ele>2340.5300000000002</ele>
        <time>2023-01-29T11:55:04Z</time>
      </trkpt>
      <trkpt lat="46.258508479222655" lon="8.013952374458313">
        <ele>2340.9499999999998</ele>
        <time>2023-01-29T11:55:10Z</time>
      </trkpt>
      <trkpt lat="46.258563632145524" lon="8.013974670320749">
        <ele>2342.6700000000001</ele>
        <time>2023-01-29T11:55:17Z</time>
      </trkpt>
      <trkpt lat="46.258578300476074" lon="8.013980034738779">
        <ele>2343.4899999999998</ele>
        <time>2023-01-29T11:55:19Z</time>
      </trkpt>
      <trkpt lat="46.258546868339181" lon="8.014020854607225">
        <ele>2344</ele>
        <time>2023-01-29T11:55:31Z</time>
      </trkpt>
      <trkpt lat="46.258530355989933" lon="8.014034684747458">
        <ele>2344.9000000000001</ele>
        <time>2023-01-29T11:55:43Z</time>
      </trkpt>
      <trkpt lat="46.258517783135176" lon="8.014028482139111">
        <ele>2345.77</ele>
        <time>2023-01-29T11:55:59Z</time>
      </trkpt>
      <trkpt lat="46.258525913581252" lon="8.01403820514679">
        <ele>2345.77</ele>
        <time>2023-01-29T11:56:14Z</time>
      </trkpt>
      <trkpt lat="46.25859615392983" lon="8.01406268030405">
        <ele>2344.6999999999998</ele>
        <time>2023-01-29T11:56:26Z</time>
      </trkpt>
      <trkpt lat="46.258644517511129" lon="8.014099476858974">
        <ele>2344.25</ele>
        <time>2023-01-29T11:56:35Z</time>
      </trkpt>
      <trkpt lat="46.258702855557203" lon="8.014153121039271">
        <ele>2344.6399999999999</ele>
        <time>2023-01-29T11:56:44Z</time>
      </trkpt>
      <trkpt lat="46.258784243836999" lon="8.014220176264644">
        <ele>2346.0599999999999</ele>
        <time>2023-01-29T11:56:57Z</time>
      </trkpt>
      <trkpt lat="46.258847443386912" lon="8.01428890787065">
        <ele>2347.3699999999999</ele>
        <time>2023-01-29T11:57:10Z</time>
      </trkpt>
      <trkpt lat="46.258938889950514" lon="8.014354202896357">
        <ele>2349.0999999999999</ele>
        <time>2023-01-29T11:57:25Z</time>
      </trkpt>
      <trkpt lat="46.259015249088407" lon="8.014412457123399">
        <ele>2349.5500000000002</ele>
        <time>2023-01-29T11:57:38Z</time>
      </trkpt>
      <trkpt lat="46.259083393961191" lon="8.014478506520391">
        <ele>2350.71</ele>
        <time>2023-01-29T11:57:52Z</time>
      </trkpt>
      <trkpt lat="46.259160842746496" lon="8.014530977234244">
        <ele>2352.2800000000002</ele>
        <time>2023-01-29T11:58:05Z</time>
      </trkpt>
      <trkpt lat="46.259239381179214" lon="8.01460356451571">
        <ele>2353.75</ele>
        <time>2023-01-29T11:58:20Z</time>
      </trkpt>
      <trkpt lat="46.259314063936472" lon="8.014664500951767">
        <ele>2355.9400000000001</ele>
        <time>2023-01-29T11:58:35Z</time>
      </trkpt>
      <trkpt lat="46.259368127211928" lon="8.014709511771798">
        <ele>2357.2199999999998</ele>
        <time>2023-01-29T11:58:46Z</time>
      </trkpt>
      <trkpt lat="46.25943417660892" lon="8.014760976657271">
        <ele>2358.3099999999999</ele>
        <time>2023-01-29T11:59:00Z</time>
      </trkpt>
      <trkpt lat="46.259511457756162" lon="8.014810932800174">
        <ele>2360.46</ele>
        <time>2023-01-29T11:59:15Z</time>
      </trkpt>
      <trkpt lat="46.259571136906743" lon="8.014867762103677">
        <ele>2361.8000000000002</ele>
        <time>2023-01-29T11:59:27Z</time>
      </trkpt>
      <trkpt lat="46.25964866951108" lon="8.014941271394491">
        <ele>2363.0700000000002</ele>
        <time>2023-01-29T11:59:41Z</time>
      </trkpt>
      <trkpt lat="46.259709354490042" lon="8.015021318569779">
        <ele>2364.6300000000001</ele>
        <time>2023-01-29T11:59:55Z</time>
      </trkpt>
      <trkpt lat="46.259776493534446" lon="8.015095749869943">
        <ele>2367.9200000000001</ele>
        <time>2023-01-29T12:00:10Z</time>
      </trkpt>
      <trkpt lat="46.259827371686697" lon="8.015198092907667">
        <ele>2369.96</ele>
        <time>2023-01-29T12:00:26Z</time>
      </trkpt>
      <trkpt lat="46.25985536724329" lon="8.015275457873941">
        <ele>2370.71</ele>
        <time>2023-01-29T12:00:37Z</time>
      </trkpt>
      <trkpt lat="46.259898953139782" lon="8.015358271077275">
        <ele>2372.25</ele>
        <time>2023-01-29T12:00:48Z</time>
      </trkpt>
      <trkpt lat="46.259906580671668" lon="8.015414848923683">
        <ele>2373.79</ele>
        <time>2023-01-29T12:00:59Z</time>
      </trkpt>
      <trkpt lat="46.259887553751469" lon="8.015451645478606">
        <ele>2374.5599999999999</ele>
        <time>2023-01-29T12:01:17Z</time>
      </trkpt>
      <trkpt lat="46.259879171848297" lon="8.015464302152395">
        <ele>2374.8000000000002</ele>
        <time>2023-01-29T12:01:31Z</time>
      </trkpt>
      <trkpt lat="46.259909011423588" lon="8.015405796468258">
        <ele>2375.5</ele>
        <time>2023-01-29T12:01:44Z</time>
      </trkpt>
      <trkpt lat="46.259902389720082" lon="8.015322647988796">
        <ele>2375.9200000000001</ele>
        <time>2023-01-29T12:01:54Z</time>
      </trkpt>
      <trkpt lat="46.259917812421918" lon="8.015384171158075">
        <ele>2376.1500000000001</ele>
        <time>2023-01-29T12:02:09Z</time>
      </trkpt>
      <trkpt lat="46.259916387498379" lon="8.015386937186122">
        <ele>2376.4899999999998</ele>
        <time>2023-01-29T12:02:35Z</time>
      </trkpt>
      <trkpt lat="46.25991202890873" lon="8.015395486727357">
        <ele>2376.2600000000002</ele>
        <time>2023-01-29T12:03:01Z</time>
      </trkpt>
      <trkpt lat="46.259913621470332" lon="8.015390792861581">
        <ele>2377.0700000000002</ele>
        <time>2023-01-29T12:03:20Z</time>
      </trkpt>
      <trkpt lat="46.259914040565491" lon="8.015383584424853">
        <ele>2376.8200000000002</ele>
        <time>2023-01-29T12:03:45Z</time>
      </trkpt>
      <trkpt lat="46.259909346699715" lon="8.015384841710329">
        <ele>2377.3000000000002</ele>
        <time>2023-01-29T12:04:16Z</time>
      </trkpt>
      <trkpt lat="46.259911023080349" lon="8.015380399301648">
        <ele>2377.3099999999999</ele>
        <time>2023-01-29T12:04:37Z</time>
      </trkpt>
      <trkpt lat="46.259911274537444" lon="8.015384841710329">
        <ele>2377.4000000000001</ele>
        <time>2023-01-29T12:04:55Z</time>
      </trkpt>
      <trkpt lat="46.259908424690366" lon="8.015384422615171">
        <ele>2377.73</ele>
        <time>2023-01-29T12:05:13Z</time>
      </trkpt>
      <trkpt lat="46.25990909524262" lon="8.015390876680613">
        <ele>2378.1100000000001</ele>
        <time>2023-01-29T12:05:34Z</time>
      </trkpt>
      <trkpt lat="46.259907083585858" lon="8.015392553061247">
        <ele>2378.3400000000001</ele>
        <time>2023-01-29T12:05:51Z</time>
      </trkpt>
      <trkpt lat="46.259907921776175" lon="8.015397498384118">
        <ele>2378.8499999999999</ele>
        <time>2023-01-29T12:06:11Z</time>
      </trkpt>
      <trkpt lat="46.259971037507057" lon="8.015490453690291">
        <ele>2378.6399999999999</ele>
        <time>2023-01-29T12:06:24Z</time>
      </trkpt>
      <trkpt lat="46.260044882073998" lon="8.015592377632856">
        <ele>2378.8200000000002</ele>
        <time>2023-01-29T12:06:35Z</time>
      </trkpt>
      <trkpt lat="46.260167006403208" lon="8.015787089243531">
        <ele>2377.4699999999998</ele>
        <time>2023-01-29T12:06:52Z</time>
      </trkpt>
      <trkpt lat="46.26024822704494" lon="8.016002336516976">
        <ele>2376.8299999999999</ele>
        <time>2023-01-29T12:07:09Z</time>
      </trkpt>
      <trkpt lat="46.260293405503035" lon="8.016202664002776">
        <ele>2377.23</ele>
        <time>2023-01-29T12:07:25Z</time>
      </trkpt>
      <trkpt lat="46.260297931730747" lon="8.016340797767043">
        <ele>2377.7199999999998</ele>
        <time>2023-01-29T12:07:39Z</time>
      </trkpt>
      <trkpt lat="46.260309582576156" lon="8.016488486900926">
        <ele>2380.2399999999998</ele>
        <time>2023-01-29T12:07:54Z</time>
      </trkpt>
      <trkpt lat="46.260335734114051" lon="8.016621423885226">
        <ele>2381.8400000000001</ele>
        <time>2023-01-29T12:08:09Z</time>
      </trkpt>
      <trkpt lat="46.260360041633248" lon="8.016730975359678">
        <ele>2383.8600000000001</ele>
        <time>2023-01-29T12:08:24Z</time>
      </trkpt>
      <trkpt lat="46.260415194556117" lon="8.016855781897903">
        <ele>2385.4699999999998</ele>
        <time>2023-01-29T12:08:38Z</time>
      </trkpt>
      <trkpt lat="46.260468419641256" lon="8.016928704455495">
        <ele>2385.6300000000001</ele>
        <time>2023-01-29T12:08:47Z</time>
      </trkpt>
      <trkpt lat="46.260518711060286" lon="8.017080333083868">
        <ele>2386.8000000000002</ele>
        <time>2023-01-29T12:09:03Z</time>
      </trkpt>
      <trkpt lat="46.26053798943758" lon="8.017191309481859">
        <ele>2388.8899999999999</ele>
        <time>2023-01-29T12:09:17Z</time>
      </trkpt>
      <trkpt lat="46.260549388825893" lon="8.017277307808399">
        <ele>2391.0500000000002</ele>
        <time>2023-01-29T12:09:30Z</time>
      </trkpt>
      <trkpt lat="46.260554501786828" lon="8.017351403832436">
        <ele>2392.52</ele>
        <time>2023-01-29T12:09:43Z</time>
      </trkpt>
      <trkpt lat="46.260559530928731" lon="8.017462631687522">
        <ele>2394.02</ele>
        <time>2023-01-29T12:09:56Z</time>
      </trkpt>
      <trkpt lat="46.260580066591501" lon="8.017591293901205">
        <ele>2395.6199999999999</ele>
        <time>2023-01-29T12:10:12Z</time>
      </trkpt>
      <trkpt lat="46.260614600032568" lon="8.017681483179331">
        <ele>2396.9200000000001</ele>
        <time>2023-01-29T12:10:23Z</time>
      </trkpt>
      <trkpt lat="46.260622730478644" lon="8.017744347453117">
        <ele>2396.9299999999998</ele>
        <time>2023-01-29T12:10:33Z</time>
      </trkpt>
      <trkpt lat="46.260648295283318" lon="8.017807044088841">
        <ele>2399.0300000000002</ele>
        <time>2023-01-29T12:10:47Z</time>
      </trkpt>
      <trkpt lat="46.260647960007191" lon="8.017904022708535">
        <ele>2400.75</ele>
        <time>2023-01-29T12:11:00Z</time>
      </trkpt>
      <trkpt lat="46.260662293061614" lon="8.018014580011368">
        <ele>2403.4499999999998</ele>
        <time>2023-01-29T12:11:15Z</time>
      </trkpt>
      <trkpt lat="46.260688696056604" lon="8.018117928877473">
        <ele>2404.79</ele>
        <time>2023-01-29T12:11:27Z</time>
      </trkpt>
      <trkpt lat="46.260717194527388" lon="8.018206190317869">
        <ele>2405.6799999999998</ele>
        <time>2023-01-29T12:11:41Z</time>
      </trkpt>
      <trkpt lat="46.260742759332061" lon="8.018286656588316">
        <ele>2406.4899999999998</ele>
        <time>2023-01-29T12:11:54Z</time>
      </trkpt>
      <trkpt lat="46.260768407955766" lon="8.018329739570618">
        <ele>2407.3600000000001</ele>
        <time>2023-01-29T12:12:09Z</time>
      </trkpt>
      <trkpt lat="46.260789027437568" lon="8.018371313810349">
        <ele>2407.6500000000001</ele>
        <time>2023-01-29T12:12:29Z</time>
      </trkpt>
      <trkpt lat="46.260854993015528" lon="8.01841976121068">
        <ele>2410.0100000000002</ele>
        <time>2023-01-29T12:12:43Z</time>
      </trkpt>
      <trkpt lat="46.260875444859266" lon="8.018512884154916">
        <ele>2412.1700000000001</ele>
        <time>2023-01-29T12:12:54Z</time>
      </trkpt>
      <trkpt lat="46.260932022705674" lon="8.018583711236715">
        <ele>2412.73</ele>
        <time>2023-01-29T12:13:06Z</time>
      </trkpt>
      <trkpt lat="46.260978123173118" lon="8.018643474206328">
        <ele>2412.8000000000002</ele>
        <time>2023-01-29T12:13:18Z</time>
      </trkpt>
      <trkpt lat="46.261030593886971" lon="8.018695609644055">
        <ele>2415.1999999999998</ele>
        <time>2023-01-29T12:13:30Z</time>
      </trkpt>
      <trkpt lat="46.261065294966102" lon="8.018782529979944">
        <ele>2416.6999999999998</ele>
        <time>2023-01-29T12:13:43Z</time>
      </trkpt>
      <trkpt lat="46.261093039065599" lon="8.018854027613998">
        <ele>2418.5500000000002</ele>
        <time>2023-01-29T12:13:55Z</time>
      </trkpt>
      <trkpt lat="46.261123800650239" lon="8.0189264472574">
        <ele>2420.54</ele>
        <time>2023-01-29T12:14:07Z</time>
      </trkpt>
      <trkpt lat="46.261159423738718" lon="8.018957376480103">
        <ele>2421.98</ele>
        <time>2023-01-29T12:14:20Z</time>
      </trkpt>
      <trkpt lat="46.261193370446563" lon="8.018991742283106">
        <ele>2423</ele>
        <time>2023-01-29T12:14:31Z</time>
      </trkpt>
      <trkpt lat="46.261229831725359" lon="8.019023090600967">
        <ele>2423.3899999999999</ele>
        <time>2023-01-29T12:14:41Z</time>
      </trkpt>
      <trkpt lat="46.261278111487627" lon="8.01905008032918">
        <ele>2425.6900000000001</ele>
        <time>2023-01-29T12:14:53Z</time>
      </trkpt>
      <trkpt lat="46.261322535574436" lon="8.019097102805972">
        <ele>2427.96</ele>
        <time>2023-01-29T12:15:03Z</time>
      </trkpt>
      <trkpt lat="46.261344747617841" lon="8.01918301731348">
        <ele>2430.0999999999999</ele>
        <time>2023-01-29T12:15:14Z</time>
      </trkpt>
      <trkpt lat="46.261372743174434" lon="8.019272368401289">
        <ele>2431.54</ele>
        <time>2023-01-29T12:15:26Z</time>
      </trkpt>
      <trkpt lat="46.261396044865251" lon="8.01933933980763">
        <ele>2432.6900000000001</ele>
        <time>2023-01-29T12:15:39Z</time>
      </trkpt>
      <trkpt lat="46.26140970736742" lon="8.019425170496106">
        <ele>2433.8800000000001</ele>
        <time>2023-01-29T12:15:53Z</time>
      </trkpt>
      <trkpt lat="46.26141800545156" lon="8.019490297883749">
        <ele>2435.2800000000002</ele>
        <time>2023-01-29T12:16:06Z</time>
      </trkpt>
      <trkpt lat="46.261436445638537" lon="8.019554587081075">
        <ele>2436.6100000000001</ele>
        <time>2023-01-29T12:16:20Z</time>
      </trkpt>
      <trkpt lat="46.261459914967418" lon="8.019606219604611">
        <ele>2439.0599999999999</ele>
        <time>2023-01-29T12:16:31Z</time>
      </trkpt>
      <trkpt lat="46.261493358761072" lon="8.019657349213958">
        <ele>2442.5300000000002</ele>
        <time>2023-01-29T12:16:42Z</time>
      </trkpt>
      <trkpt lat="46.261533927172422" lon="8.019725829362869">
        <ele>2444.3299999999999</ele>
        <time>2023-01-29T12:16:54Z</time>
      </trkpt>
      <trkpt lat="46.26154993660748" lon="8.019826915115118">
        <ele>2445.7800000000002</ele>
        <time>2023-01-29T12:17:07Z</time>
      </trkpt>
      <trkpt lat="46.261594109237194" lon="8.01988122984767">
        <ele>2447.3499999999999</ele>
        <time>2023-01-29T12:17:19Z</time>
      </trkpt>
      <trkpt lat="46.261658314615488" lon="8.019908051937819">
        <ele>2448.9400000000001</ele>
        <time>2023-01-29T12:17:31Z</time>
      </trkpt>
      <trkpt lat="46.261723525822163" lon="8.019912829622626">
        <ele>2451.21</ele>
        <time>2023-01-29T12:17:45Z</time>
      </trkpt>
      <trkpt lat="46.261758813634515" lon="8.01995113492012">
        <ele>2452.46</ele>
        <time>2023-01-29T12:17:56Z</time>
      </trkpt>
      <trkpt lat="46.261801058426499" lon="8.020002767443657">
        <ele>2454.7399999999998</ele>
        <time>2023-01-29T12:18:12Z</time>
      </trkpt>
      <trkpt lat="46.261861575767398" lon="8.02008549682796">
        <ele>2456.48</ele>
        <time>2023-01-29T12:18:26Z</time>
      </trkpt>
      <trkpt lat="46.261903569102287" lon="8.020144002512097">
        <ele>2457.3000000000002</ele>
        <time>2023-01-29T12:18:36Z</time>
      </trkpt>
      <trkpt lat="46.261952100321651" lon="8.020207704976201">
        <ele>2458.6999999999998</ele>
        <time>2023-01-29T12:18:47Z</time>
      </trkpt>
      <trkpt lat="46.261993423104286" lon="8.020279621705413">
        <ele>2460.3099999999999</ele>
        <time>2023-01-29T12:18:58Z</time>
      </trkpt>
      <trkpt lat="46.262029632925987" lon="8.020357405766845">
        <ele>2460.9400000000001</ele>
        <time>2023-01-29T12:19:09Z</time>
      </trkpt>
      <trkpt lat="46.262083696201444" lon="8.020424963906407">
        <ele>2461.73</ele>
        <time>2023-01-29T12:19:20Z</time>
      </trkpt>
      <trkpt lat="46.262150835245848" lon="8.020476512610912">
        <ele>2464.52</ele>
        <time>2023-01-29T12:19:33Z</time>
      </trkpt>
      <trkpt lat="46.262158881872892" lon="8.020485229790211">
        <ele>2464.96</ele>
        <time>2023-01-29T12:19:43Z</time>
      </trkpt>
      <trkpt lat="46.26215728931129" lon="8.020470226183534">
        <ele>2464.9499999999998</ele>
        <time>2023-01-29T12:19:59Z</time>
      </trkpt>
      <trkpt lat="46.262147901579738" lon="8.020483972504735">
        <ele>2465.0599999999999</ele>
        <time>2023-01-29T12:20:11Z</time>
      </trkpt>
      <trkpt lat="46.262139352038503" lon="8.02048715762794">
        <ele>2465.1999999999998</ele>
        <time>2023-01-29T12:20:30Z</time>
      </trkpt>
      <trkpt lat="46.262132981792092" lon="8.020484056323767">
        <ele>2465.8499999999999</ele>
        <time>2023-01-29T12:21:01Z</time>
      </trkpt>
      <trkpt lat="46.26213482581079" lon="8.020484894514084">
        <ele>2465.98</ele>
        <time>2023-01-29T12:21:24Z</time>
      </trkpt>
      <trkpt lat="46.262136669829488" lon="8.020485984161496">
        <ele>2465.6500000000001</ele>
        <time>2023-01-29T12:21:46Z</time>
      </trkpt>
      <trkpt lat="46.262140441685915" lon="8.020473998039961">
        <ele>2465.3699999999999</ele>
        <time>2023-01-29T12:22:01Z</time>
      </trkpt>
      <trkpt lat="46.262145973742008" lon="8.020470729097724">
        <ele>2465.2199999999998</ele>
        <time>2023-01-29T12:22:18Z</time>
      </trkpt>
      <trkpt lat="46.262141279876232" lon="8.020473830401897">
        <ele>2465.4200000000001</ele>
        <time>2023-01-29T12:22:34Z</time>
      </trkpt>
      <trkpt lat="46.262139435857534" lon="8.020468549802899">
        <ele>2465.1999999999998</ele>
        <time>2023-01-29T12:22:56Z</time>
      </trkpt>
      <trkpt lat="46.262140944600105" lon="8.020471567288041">
        <ele>2464.9400000000001</ele>
        <time>2023-01-29T12:23:22Z</time>
      </trkpt>
      <trkpt lat="46.262141950428486" lon="8.020450277253985">
        <ele>2464.7399999999998</ele>
        <time>2023-01-29T12:23:39Z</time>
      </trkpt>
      <trkpt lat="46.262136334553361" lon="8.020465197041631">
        <ele>2464.46</ele>
        <time>2023-01-29T12:23:59Z</time>
      </trkpt>
      <trkpt lat="46.262141447514296" lon="8.020467627793551">
        <ele>2464.4899999999998</ele>
        <time>2023-01-29T12:24:22Z</time>
      </trkpt>
      <trkpt lat="46.262219902127981" lon="8.020465029403567">
        <ele>2464.9299999999998</ele>
        <time>2023-01-29T12:24:35Z</time>
      </trkpt>
      <trkpt lat="46.262251250445843" lon="8.020417336374521">
        <ele>2465.9699999999998</ele>
        <time>2023-01-29T12:24:47Z</time>
      </trkpt>
      <trkpt lat="46.262254100292921" lon="8.020419096574187">
        <ele>2465.8400000000001</ele>
        <time>2023-01-29T12:25:06Z</time>
      </trkpt>
      <trkpt lat="46.262244544923306" lon="8.020454803481698">
        <ele>2465.04</ele>
        <time>2023-01-29T12:25:15Z</time>
      </trkpt>
      <trkpt lat="46.262166174128652" lon="8.020493108779192">
        <ele>2464.1999999999998</ele>
        <time>2023-01-29T12:25:28Z</time>
      </trkpt>
      <trkpt lat="46.26215779222548" lon="8.020490342751145">
        <ele>2464.21</ele>
        <time>2023-01-29T12:25:46Z</time>
      </trkpt>
      <trkpt lat="46.262151170521975" lon="8.020485397428274">
        <ele>2464.1500000000001</ele>
        <time>2023-01-29T12:26:04Z</time>
      </trkpt>
      <trkpt lat="46.262147063389421" lon="8.020490845665336">
        <ele>2464.3400000000001</ele>
        <time>2023-01-29T12:26:28Z</time>
      </trkpt>
      <trkpt lat="46.262212106958032" lon="8.020471902564168">
        <ele>2464.8499999999999</ele>
        <time>2023-01-29T12:26:38Z</time>
      </trkpt>
      <trkpt lat="46.262291986495256" lon="8.020445248112083">
        <ele>2465.4000000000001</ele>
        <time>2023-01-29T12:26:51Z</time>
      </trkpt>
      <trkpt lat="46.262365747243166" lon="8.020427143201232">
        <ele>2465.7800000000002</ele>
        <time>2023-01-29T12:27:04Z</time>
      </trkpt>
      <trkpt lat="46.262388629838824" lon="8.020437872037292">
        <ele>2466.2600000000002</ele>
        <time>2023-01-29T12:27:17Z</time>
      </trkpt>
      <trkpt lat="46.262388378381729" lon="8.020430747419596">
        <ele>2465.6999999999998</ele>
        <time>2023-01-29T12:27:43Z</time>
      </trkpt>
      <trkpt lat="46.262384103611112" lon="8.020425802096725">
        <ele>2465.46</ele>
        <time>2023-01-29T12:28:02Z</time>
      </trkpt>
      <trkpt lat="46.262346552684903" lon="8.020419850945473">
        <ele>2465.27</ele>
        <time>2023-01-29T12:28:18Z</time>
      </trkpt>
      <trkpt lat="46.262340182438493" lon="8.020419096574187">
        <ele>2465.1700000000001</ele>
        <time>2023-01-29T12:28:19Z</time>
      </trkpt>
      <trkpt lat="46.262301374226809" lon="8.020367799326778">
        <ele>2466.1599999999999</ele>
        <time>2023-01-29T12:28:30Z</time>
      </trkpt>
      <trkpt lat="46.262264829128981" lon="8.020356651395559">
        <ele>2466.4200000000001</ele>
        <time>2023-01-29T12:28:39Z</time>
      </trkpt>
      <trkpt lat="46.262254100292921" lon="8.02038942463696">
        <ele>2466.8200000000002</ele>
        <time>2023-01-29T12:28:52Z</time>
      </trkpt>
      <trkpt lat="46.262249825522304" lon="8.020389676094055">
        <ele>2467.0599999999999</ele>
        <time>2023-01-29T12:29:09Z</time>
      </trkpt>
      <trkpt lat="46.262226356193423" lon="8.020376767963171">
        <ele>2466.0799999999999</ele>
        <time>2023-01-29T12:29:22Z</time>
      </trkpt>
      <trkpt lat="46.262201881036162" lon="8.020298397168517">
        <ele>2466.4000000000001</ele>
        <time>2023-01-29T12:29:36Z</time>
      </trkpt>
      <trkpt lat="46.262217219918966" lon="8.020323207601905">
        <ele>2466.1199999999999</ele>
        <time>2023-01-29T12:29:48Z</time>
      </trkpt>
      <trkpt lat="46.262234067544341" lon="8.02034835331142">
        <ele>2466.3099999999999</ele>
        <time>2023-01-29T12:30:06Z</time>
      </trkpt>
      <trkpt lat="46.262268098071218" lon="8.02036008797586">
        <ele>2466.1599999999999</ele>
        <time>2023-01-29T12:30:21Z</time>
      </trkpt>
      <trkpt lat="46.262317216023803" lon="8.020424963906407">
        <ele>2466.23</ele>
        <time>2023-01-29T12:30:33Z</time>
      </trkpt>
      <trkpt lat="46.262310342863202" lon="8.020433429628611">
        <ele>2465.9099999999999</ele>
        <time>2023-01-29T12:30:47Z</time>
      </trkpt>
      <trkpt lat="46.262274384498596" lon="8.020446337759495">
        <ele>2465.3600000000001</ele>
        <time>2023-01-29T12:30:59Z</time>
      </trkpt>
      <trkpt lat="46.262205066159368" lon="8.020514482632279">
        <ele>2464.5</ele>
        <time>2023-01-29T12:31:12Z</time>
      </trkpt>
      <trkpt lat="46.262211855500937" lon="8.020526887848973">
        <ele>2463.8200000000002</ele>
        <time>2023-01-29T12:31:25Z</time>
      </trkpt>
      <trkpt lat="46.262202635407448" lon="8.020528061315417">
        <ele>2463.5500000000002</ele>
        <time>2023-01-29T12:31:39Z</time>
      </trkpt>
      <trkpt lat="46.262199366465211" lon="8.02052085287869">
        <ele>2462.9099999999999</ele>
        <time>2023-01-29T12:31:57Z</time>
      </trkpt>
      <trkpt lat="46.262185368686914" lon="8.020522613078356">
        <ele>2462.8800000000001</ele>
        <time>2023-01-29T12:32:39Z</time>
      </trkpt>
      <trkpt lat="46.262181513011456" lon="8.020528396591544">
        <ele>2463.7800000000002</ele>
        <time>2023-01-29T12:33:22Z</time>
      </trkpt>
      <trkpt lat="46.262183105573058" lon="8.020525211468339">
        <ele>2464.2399999999998</ele>
        <time>2023-01-29T12:34:01Z</time>
      </trkpt>
      <trkpt lat="46.262181932106614" lon="8.020525379106402">
        <ele>2465.23</ele>
        <time>2023-01-29T12:34:39Z</time>
      </trkpt>
      <trkpt lat="46.262177992612123" lon="8.0205272231251">
        <ele>2466.6900000000001</ele>
        <time>2023-01-29T12:35:23Z</time>
      </trkpt>
      <trkpt lat="46.262173634022474" lon="8.0205272231251">
        <ele>2467.1399999999999</ele>
        <time>2023-01-29T12:36:08Z</time>
      </trkpt>
      <trkpt lat="46.262174556031823" lon="8.020526468753815">
        <ele>2467.5500000000002</ele>
        <time>2023-01-29T12:36:52Z</time>
      </trkpt>
      <trkpt lat="46.262174975126982" lon="8.020532168447971">
        <ele>2467.0999999999999</ele>
        <time>2023-01-29T12:37:42Z</time>
      </trkpt>
      <trkpt lat="46.262171203270555" lon="8.020532336086035">
        <ele>2467.4000000000001</ele>
        <time>2023-01-29T12:38:23Z</time>
      </trkpt>
      <trkpt lat="46.262172544375062" lon="8.020532000809908">
        <ele>2467.7600000000002</ele>
        <time>2023-01-29T12:39:06Z</time>
      </trkpt>
      <trkpt lat="46.262172041460872" lon="8.02053015679121">
        <ele>2467.9200000000001</ele>
        <time>2023-01-29T12:39:53Z</time>
      </trkpt>
      <trkpt lat="46.262171287089586" lon="8.020533174276352">
        <ele>2468.04</ele>
        <time>2023-01-29T12:40:41Z</time>
      </trkpt>
      <trkpt lat="46.262175058946013" lon="8.020531162619591">
        <ele>2467.0300000000002</ele>
        <time>2023-01-29T12:41:21Z</time>
      </trkpt>
      <trkpt lat="46.262175142765045" lon="8.020535688847303">
        <ele>2465.8400000000001</ele>
        <time>2023-01-29T12:41:55Z</time>
      </trkpt>
      <trkpt lat="46.262172041460872" lon="8.020537784323096">
        <ele>2466.1700000000001</ele>
        <time>2023-01-29T12:42:34Z</time>
      </trkpt>
      <trkpt lat="46.262171203270555" lon="8.020530072972179">
        <ele>2466.7600000000002</ele>
        <time>2023-01-29T12:43:09Z</time>
      </trkpt>
      <trkpt lat="46.262171538546681" lon="8.020526636391878">
        <ele>2468.3099999999999</ele>
        <time>2023-01-29T12:43:47Z</time>
      </trkpt>
      <trkpt lat="46.26217145472765" lon="8.020516578108072">
        <ele>2468.7800000000002</ele>
        <time>2023-01-29T12:44:32Z</time>
      </trkpt>
      <trkpt lat="46.262166257947683" lon="8.020524121820927">
        <ele>2469.1199999999999</ele>
        <time>2023-01-29T12:45:10Z</time>
      </trkpt>
      <trkpt lat="46.262165168300271" lon="8.020519679412246">
        <ele>2469.0300000000002</ele>
        <time>2023-01-29T12:45:50Z</time>
      </trkpt>
      <trkpt lat="46.262171622365713" lon="8.020518254488707">
        <ele>2468.9000000000001</ele>
        <time>2023-01-29T12:46:32Z</time>
      </trkpt>
      <trkpt lat="46.262179417535663" lon="8.020520936697722">
        <ele>2468.3899999999999</ele>
        <time>2023-01-29T12:47:15Z</time>
      </trkpt>
      <trkpt lat="46.262183273211122" lon="8.020518589764834">
        <ele>2468.96</ele>
        <time>2023-01-29T12:47:56Z</time>
      </trkpt>
      <trkpt lat="46.262186458334327" lon="8.020515153184533">
        <ele>2469.5599999999999</ele>
        <time>2023-01-29T12:48:36Z</time>
      </trkpt>
      <trkpt lat="46.262182183563709" lon="8.020518254488707">
        <ele>2469.5100000000002</ele>
        <time>2023-01-29T12:49:20Z</time>
      </trkpt>
      <trkpt lat="46.262173466384411" lon="8.020519511774182">
        <ele>2468.4699999999998</ele>
        <time>2023-01-29T12:50:12Z</time>
      </trkpt>
      <trkpt lat="46.26217489130795" lon="8.020516578108072">
        <ele>2467.3699999999999</ele>
        <time>2023-01-29T12:51:05Z</time>
      </trkpt>
      <trkpt lat="46.262171538546681" lon="8.020516745746136">
        <ele>2467.0500000000002</ele>
        <time>2023-01-29T12:51:55Z</time>
      </trkpt>
      <trkpt lat="46.262170700356364" lon="8.020517751574516">
        <ele>2467.4000000000001</ele>
        <time>2023-01-29T12:52:38Z</time>
      </trkpt>
      <trkpt lat="46.262177405878901" lon="8.020523954182863">
        <ele>2468.4099999999999</ele>
        <time>2023-01-29T12:53:19Z</time>
      </trkpt>
      <trkpt lat="46.262176986783743" lon="8.020522613078356">
        <ele>2468.3299999999999</ele>
        <time>2023-01-29T12:53:30Z</time>
      </trkpt>
      <trkpt lat="46.262183776125312" lon="8.020521439611912">
        <ele>2468.0799999999999</ele>
        <time>2023-01-29T12:53:45Z</time>
      </trkpt>
      <trkpt lat="46.262160139158368" lon="8.020496545359492">
        <ele>2467.4499999999998</ele>
        <time>2023-01-29T12:54:02Z</time>
      </trkpt>
      <trkpt lat="46.262158630415797" lon="8.02048028446734">
        <ele>2467.3299999999999</ele>
        <time>2023-01-29T12:54:11Z</time>
      </trkpt>
      <trkpt lat="46.262169107794762" lon="8.020482379943132">
        <ele>2468.3699999999999</ele>
        <time>2023-01-29T12:54:32Z</time>
      </trkpt>
      <trkpt lat="46.26217975281179" lon="8.020487241446972">
        <ele>2469.3000000000002</ele>
        <time>2023-01-29T12:55:00Z</time>
      </trkpt>
      <trkpt lat="46.262180507183075" lon="8.020485145971179">
        <ele>2469.6999999999998</ele>
        <time>2023-01-29T12:55:27Z</time>
      </trkpt>
      <trkpt lat="46.262180842459202" lon="8.020481541752815">
        <ele>2469.6399999999999</ele>
        <time>2023-01-29T12:55:56Z</time>
      </trkpt>
      <trkpt lat="46.26218318939209" lon="8.02047592587769">
        <ele>2469.79</ele>
        <time>2023-01-29T12:56:18Z</time>
      </trkpt>
      <trkpt lat="46.262181429192424" lon="8.020480033010244">
        <ele>2469.3000000000002</ele>
        <time>2023-01-29T12:56:31Z</time>
      </trkpt>
      <trkpt lat="46.262158462777734" lon="8.020480368286371">
        <ele>2467.6799999999998</ele>
        <time>2023-01-29T12:56:48Z</time>
      </trkpt>
      <trkpt lat="46.262130383402109" lon="8.020442146807909">
        <ele>2467.1599999999999</ele>
        <time>2023-01-29T12:56:59Z</time>
      </trkpt>
      <trkpt lat="46.262119486927986" lon="8.020436950027943">
        <ele>2467.2600000000002</ele>
        <time>2023-01-29T12:57:09Z</time>
      </trkpt>
      <trkpt lat="46.262092664837837" lon="8.020410630851984">
        <ele>2466.3899999999999</ele>
        <time>2023-01-29T12:57:16Z</time>
      </trkpt>
      <trkpt lat="46.261971043422818" lon="8.020212566480041">
        <ele>2462.3800000000001</ele>
        <time>2023-01-29T12:57:32Z</time>
      </trkpt>
      <trkpt lat="46.261837519705296" lon="8.020027913153172">
        <ele>2456.96</ele>
        <time>2023-01-29T12:57:48Z</time>
      </trkpt>
      <trkpt lat="46.261742385104299" lon="8.019905537366867">
        <ele>2452.8499999999999</ele>
        <time>2023-01-29T12:58:01Z</time>
      </trkpt>
      <trkpt lat="46.261700391769409" lon="8.019887851551175">
        <ele>2451.4499999999998</ele>
        <time>2023-01-29T12:58:06Z</time>
      </trkpt>
      <trkpt lat="46.261673485860229" lon="8.019888270646334">
        <ele>2450.6199999999999</ele>
        <time>2023-01-29T12:58:09Z</time>
      </trkpt>
      <trkpt lat="46.261563515290618" lon="8.019839404150844">
        <ele>2447.9000000000001</ele>
        <time>2023-01-29T12:58:20Z</time>
      </trkpt>
      <trkpt lat="46.261534681543708" lon="8.019745023921132">
        <ele>2446.1700000000001</ele>
        <time>2023-01-29T12:58:27Z</time>
      </trkpt>
      <trkpt lat="46.261492520570755" lon="8.019628347828984">
        <ele>2443.9499999999998</ele>
        <time>2023-01-29T12:58:39Z</time>
      </trkpt>
      <trkpt lat="46.261429740116" lon="8.019476048648357">
        <ele>2438.6999999999998</ele>
        <time>2023-01-29T12:58:53Z</time>
      </trkpt>
      <trkpt lat="46.26139746978879" lon="8.019307907670736">
        <ele>2433.5300000000002</ele>
        <time>2023-01-29T12:59:07Z</time>
      </trkpt>
      <trkpt lat="46.261338461190462" lon="8.019138090312481">
        <ele>2430.5700000000002</ele>
        <time>2023-01-29T12:59:21Z</time>
      </trkpt>
      <trkpt lat="46.26130267046392" lon="8.019062904641032">
        <ele>2429.3800000000001</ele>
        <time>2023-01-29T12:59:33Z</time>
      </trkpt>
      <trkpt lat="46.261256486177444" lon="8.01901588216424">
        <ele>2427.9699999999998</ele>
        <time>2023-01-29T12:59:43Z</time>
      </trkpt>
      <trkpt lat="46.26120937988162" lon="8.018968859687448">
        <ele>2425.21</ele>
        <time>2023-01-29T12:59:55Z</time>
      </trkpt>
      <trkpt lat="46.261164369061589" lon="8.018940109759569">
        <ele>2423.79</ele>
        <time>2023-01-29T13:00:05Z</time>
      </trkpt>
      <trkpt lat="46.26110821031034" lon="8.018881771713495">
        <ele>2421.3000000000002</ele>
        <time>2023-01-29T13:00:18Z</time>
      </trkpt>
      <trkpt lat="46.261067977175117" lon="8.018774902448058">
        <ele>2418.6500000000001</ele>
        <time>2023-01-29T13:00:30Z</time>
      </trkpt>
      <trkpt lat="46.261004777625203" lon="8.018666943535209">
        <ele>2416.04</ele>
        <time>2023-01-29T13:00:45Z</time>
      </trkpt>
      <trkpt lat="46.260979464277625" lon="8.018637523055077">
        <ele>2415.2399999999998</ele>
        <time>2023-01-29T13:00:49Z</time>
      </trkpt>
      <trkpt lat="46.260963706299663" lon="8.018619921058416">
        <ele>2414.7800000000002</ele>
        <time>2023-01-29T13:00:51Z</time>
      </trkpt>
      <trkpt lat="46.26093864440918" lon="8.018587566912174">
        <ele>2413.96</ele>
        <time>2023-01-29T13:00:57Z</time>
      </trkpt>
      <trkpt lat="46.260913498699665" lon="8.018559655174613">
        <ele>2413.0599999999999</ele>
        <time>2023-01-29T13:01:00Z</time>
      </trkpt>
      <trkpt lat="46.260837642475963" lon="8.018399812281132">
        <ele>2409.27</ele>
        <time>2023-01-29T13:01:14Z</time>
      </trkpt>
      <trkpt lat="46.260787937790155" lon="8.018360082060099">
        <ele>2407.5799999999999</ele>
        <time>2023-01-29T13:01:20Z</time>
      </trkpt>
      <trkpt lat="46.260719876736403" lon="8.018243154510856">
        <ele>2404.6599999999999</ele>
        <time>2023-01-29T13:01:31Z</time>
      </trkpt>
      <trkpt lat="46.260713841766119" lon="8.0181666277349">
        <ele>2403.0599999999999</ele>
        <time>2023-01-29T13:01:36Z</time>
      </trkpt>
      <trkpt lat="46.260645277798176" lon="8.017949117347598">
        <ele>2400.6500000000001</ele>
        <time>2023-01-29T13:01:53Z</time>
      </trkpt>
      <trkpt lat="46.260634129866958" lon="8.017784999683499">
        <ele>2397.71</ele>
        <time>2023-01-29T13:02:06Z</time>
      </trkpt>
      <trkpt lat="46.260577132925391" lon="8.017639741301537">
        <ele>2394.1999999999998</ele>
        <time>2023-01-29T13:02:18Z</time>
      </trkpt>
      <trkpt lat="46.260504042729735" lon="8.017510073259473">
        <ele>2391.5999999999999</ele>
        <time>2023-01-29T13:02:30Z</time>
      </trkpt>
      <trkpt lat="46.260462384670973" lon="8.017366658896208">
        <ele>2389.1199999999999</ele>
        <time>2023-01-29T13:02:41Z</time>
      </trkpt>
      <trkpt lat="46.26048032194376" lon="8.017179574817419">
        <ele>2386.2399999999998</ele>
        <time>2023-01-29T13:02:55Z</time>
      </trkpt>
      <trkpt lat="46.260480908676982" lon="8.017063401639462">
        <ele>2384.7600000000002</ele>
        <time>2023-01-29T13:03:03Z</time>
      </trkpt>
      <trkpt lat="46.260419804602861" lon="8.016919735819101">
        <ele>2383.5</ele>
        <time>2023-01-29T13:03:16Z</time>
      </trkpt>
      <trkpt lat="46.260366579517722" lon="8.016818650066853">
        <ele>2385.2600000000002</ele>
        <time>2023-01-29T13:03:30Z</time>
      </trkpt>
      <trkpt lat="46.260383427143097" lon="8.016821751371026">
        <ele>2385.75</ele>
        <time>2023-01-29T13:03:53Z</time>
      </trkpt>
      <trkpt lat="46.26038552261889" lon="8.016838179901242">
        <ele>2386.1300000000001</ele>
        <time>2023-01-29T13:04:12Z</time>
      </trkpt>
      <trkpt lat="46.260390467941761" lon="8.016834491863847">
        <ele>2386.3800000000001</ele>
        <time>2023-01-29T13:04:33Z</time>
      </trkpt>
      <trkpt lat="46.26039239577949" lon="8.016831306740642">
        <ele>2387.8200000000002</ele>
        <time>2023-01-29T13:05:00Z</time>
      </trkpt>
      <trkpt lat="46.260392814874649" lon="8.016832480207086">
        <ele>2388.4499999999998</ele>
        <time>2023-01-29T13:05:16Z</time>
      </trkpt>
      <trkpt lat="46.260394491255283" lon="8.01683709025383">
        <ele>2389.54</ele>
        <time>2023-01-29T13:05:45Z</time>
      </trkpt>
      <trkpt lat="46.260393485426903" lon="8.016837341710925">
        <ele>2390.0300000000002</ele>
        <time>2023-01-29T13:06:05Z</time>
      </trkpt>
      <trkpt lat="46.260393233969808" lon="8.016838850453496">
        <ele>2390.1999999999998</ele>
        <time>2023-01-29T13:06:31Z</time>
      </trkpt>
      <trkpt lat="46.260394155979156" lon="8.016843795776367">
        <ele>2390.3099999999999</ele>
        <time>2023-01-29T13:06:53Z</time>
      </trkpt>
      <trkpt lat="46.260395999997854" lon="8.016846226528287">
        <ele>2390.6500000000001</ele>
        <time>2023-01-29T13:07:15Z</time>
      </trkpt>
      <trkpt lat="46.260390970855951" lon="8.016931721940637">
        <ele>2390.5100000000002</ele>
        <time>2023-01-29T13:07:26Z</time>
      </trkpt>
      <trkpt lat="46.260392647236586" lon="8.016926860436797">
        <ele>2390.4000000000001</ele>
        <time>2023-01-29T13:07:40Z</time>
      </trkpt>
      <trkpt lat="46.260392898693681" lon="8.016915125772357">
        <ele>2389.98</ele>
        <time>2023-01-29T13:07:54Z</time>
      </trkpt>
      <trkpt lat="46.26038552261889" lon="8.016837257891893">
        <ele>2388.02</ele>
        <time>2023-01-29T13:08:06Z</time>
      </trkpt>
      <trkpt lat="46.260386276990175" lon="8.016834491863847">
        <ele>2388.3200000000002</ele>
        <time>2023-01-29T13:08:28Z</time>
      </trkpt>
      <trkpt lat="46.260386444628239" lon="8.016836168244481">
        <ele>2388.7199999999998</ele>
        <time>2023-01-29T13:08:49Z</time>
      </trkpt>
      <trkpt lat="46.260375464335084" lon="8.016808675602078">
        <ele>2388.9400000000001</ele>
        <time>2023-01-29T13:09:11Z</time>
      </trkpt>
      <trkpt lat="46.26032592728734" lon="8.016655370593071">
        <ele>2386.8600000000001</ele>
        <time>2023-01-29T13:09:23Z</time>
      </trkpt>
      <trkpt lat="46.260292818769813" lon="8.016448505222797">
        <ele>2382.52</ele>
        <time>2023-01-29T13:09:40Z</time>
      </trkpt>
      <trkpt lat="46.260279323905706" lon="8.016253458335996">
        <ele>2380.3600000000001</ele>
        <time>2023-01-29T13:09:55Z</time>
      </trkpt>
      <trkpt lat="46.260260632261634" lon="8.016133848577738">
        <ele>2379.5700000000002</ele>
        <time>2023-01-29T13:10:06Z</time>
      </trkpt>
      <trkpt lat="46.26022282987833" lon="8.016145331785083">
        <ele>2379.5300000000002</ele>
        <time>2023-01-29T13:10:19Z</time>
      </trkpt>
      <trkpt lat="46.260169437155128" lon="8.016136195510626">
        <ele>2378.8699999999999</ele>
        <time>2023-01-29T13:10:25Z</time>
      </trkpt>
      <trkpt lat="46.260051419958472" lon="8.016048688441515">
        <ele>2378.0300000000002</ele>
        <time>2023-01-29T13:10:40Z</time>
      </trkpt>
      <trkpt lat="46.26002250239253" lon="8.01598590798676">
        <ele>2378.2600000000002</ele>
        <time>2023-01-29T13:10:46Z</time>
      </trkpt>
      <trkpt lat="46.259917225688696" lon="8.015829753130674">
        <ele>2377.9699999999998</ele>
        <time>2023-01-29T13:11:03Z</time>
      </trkpt>
      <trkpt lat="46.25981823541224" lon="8.015729002654553">
        <ele>2377.5900000000001</ele>
        <time>2023-01-29T13:11:17Z</time>
      </trkpt>
      <trkpt lat="46.259692255407572" lon="8.015616433694959">
        <ele>2376.3499999999999</ele>
        <time>2023-01-29T13:11:32Z</time>
      </trkpt>
      <trkpt lat="46.259592594578862" lon="8.015517108142376">
        <ele>2375.9200000000001</ele>
        <time>2023-01-29T13:11:44Z</time>
      </trkpt>
      <trkpt lat="46.259489664807916" lon="8.015391966328025">
        <ele>2375.2800000000002</ele>
        <time>2023-01-29T13:11:58Z</time>
      </trkpt>
      <trkpt lat="46.259495783597231" lon="8.015410993248224">
        <ele>2376.1199999999999</ele>
        <time>2023-01-29T13:12:07Z</time>
      </trkpt>
      <trkpt lat="46.259507015347481" lon="8.015463463962078">
        <ele>2378.77</ele>
        <time>2023-01-29T13:12:19Z</time>
      </trkpt>
      <trkpt lat="46.259508859366179" lon="8.015458267182112">
        <ele>2377.8400000000001</ele>
        <time>2023-01-29T13:12:37Z</time>
      </trkpt>
      <trkpt lat="46.259503997862339" lon="8.0154640506953">
        <ele>2378.1700000000001</ele>
        <time>2023-01-29T13:12:55Z</time>
      </trkpt>
      <trkpt lat="46.259454628452659" lon="8.015419207513332">
        <ele>2377.5999999999999</ele>
        <time>2023-01-29T13:13:12Z</time>
      </trkpt>
      <trkpt lat="46.259428896009922" lon="8.015382662415505">
        <ele>2376.8600000000001</ele>
        <time>2023-01-29T13:13:17Z</time>
      </trkpt>
      <trkpt lat="46.259450688958168" lon="8.015317702665925">
        <ele>2374.4899999999998</ele>
        <time>2023-01-29T13:13:21Z</time>
      </trkpt>
      <trkpt lat="46.259471476078033" lon="8.015255006030202">
        <ele>2374.4899999999998</ele>
        <time>2023-01-29T13:13:31Z</time>
      </trkpt>
      <trkpt lat="46.259494526311755" lon="8.015158195048571">
        <ele>2373.3699999999999</ele>
        <time>2023-01-29T13:13:42Z</time>
      </trkpt>
      <trkpt lat="46.259477091953158" lon="8.01507605239749">
        <ele>2373.3200000000002</ele>
        <time>2023-01-29T13:13:54Z</time>
      </trkpt>
      <trkpt lat="46.259478768333793" lon="8.015078650787473">
        <ele>2374.2800000000002</ele>
        <time>2023-01-29T13:14:03Z</time>
      </trkpt>
      <trkpt lat="46.259441552683711" lon="8.015042021870613">
        <ele>2374.3800000000001</ele>
        <time>2023-01-29T13:14:10Z</time>
      </trkpt>
      <trkpt lat="46.259408947080374" lon="8.014981085434556">
        <ele>2374.3000000000002</ele>
        <time>2023-01-29T13:14:16Z</time>
      </trkpt>
      <trkpt lat="46.259388495236635" lon="8.014915119856596">
        <ele>2373.52</ele>
        <time>2023-01-29T13:14:26Z</time>
      </trkpt>
      <trkpt lat="46.259401738643646" lon="8.014920484274626">
        <ele>2373.02</ele>
        <time>2023-01-29T13:14:43Z</time>
      </trkpt>
      <trkpt lat="46.259405007585883" lon="8.014921490103006">
        <ele>2371.7800000000002</ele>
        <time>2023-01-29T13:15:04Z</time>
      </trkpt>
      <trkpt lat="46.259380113333464" lon="8.014931967481971">
        <ele>2370.9899999999998</ele>
        <time>2023-01-29T13:15:14Z</time>
      </trkpt>
      <trkpt lat="46.259311800822616" lon="8.014909420162439">
        <ele>2368.75</ele>
        <time>2023-01-29T13:15:19Z</time>
      </trkpt>
      <trkpt lat="46.259164698421955" lon="8.014802215620875">
        <ele>2364.4499999999998</ele>
        <time>2023-01-29T13:15:33Z</time>
      </trkpt>
      <trkpt lat="46.259069982916117" lon="8.014751086011529">
        <ele>2361.77</ele>
        <time>2023-01-29T13:15:43Z</time>
      </trkpt>
      <trkpt lat="46.259061768651009" lon="8.014745302498341">
        <ele>2361.5999999999999</ele>
        <time>2023-01-29T13:15:44Z</time>
      </trkpt>
      <trkpt lat="46.259034695103765" lon="8.014735244214535">
        <ele>2360.8299999999999</ele>
        <time>2023-01-29T13:15:46Z</time>
      </trkpt>
      <trkpt lat="46.258992198854685" lon="8.014691574499011">
        <ele>2359.3200000000002</ele>
        <time>2023-01-29T13:15:51Z</time>
      </trkpt>
      <trkpt lat="46.258945679292083" lon="8.014676654711366">
        <ele>2358.0799999999999</ele>
        <time>2023-01-29T13:15:56Z</time>
      </trkpt>
      <trkpt lat="46.258906619623303" lon="8.014656119048595">
        <ele>2357.1599999999999</ele>
        <time>2023-01-29T13:16:01Z</time>
      </trkpt>
      <trkpt lat="46.258869990706444" lon="8.014630638062954">
        <ele>2356.52</ele>
        <time>2023-01-29T13:16:05Z</time>
      </trkpt>
      <trkpt lat="46.258739652112126" lon="8.014521170407534">
        <ele>2353.6500000000001</ele>
        <time>2023-01-29T13:16:19Z</time>
      </trkpt>
      <trkpt lat="46.258659940212965" lon="8.014382114633918">
        <ele>2351.8699999999999</ele>
        <time>2023-01-29T13:16:31Z</time>
      </trkpt>
      <trkpt lat="46.258654240518808" lon="8.014354621991515">
        <ele>2351.9400000000001</ele>
        <time>2023-01-29T13:16:41Z</time>
      </trkpt>
      <trkpt lat="46.258668657392263" lon="8.014360656961799">
        <ele>2353.1799999999998</ele>
        <time>2023-01-29T13:17:04Z</time>
      </trkpt>
      <trkpt lat="46.2586684897542" lon="8.014355544000864">
        <ele>2353.3000000000002</ele>
        <time>2023-01-29T13:17:29Z</time>
      </trkpt>
      <trkpt lat="46.258662706241012" lon="8.014353448525071">
        <ele>2353.25</ele>
        <time>2023-01-29T13:17:30Z</time>
      </trkpt>
      <trkpt lat="46.25862305983901" lon="8.014329308643937">
        <ele>2352.5700000000002</ele>
        <time>2023-01-29T13:17:34Z</time>
      </trkpt>
      <trkpt lat="46.258464558050036" lon="8.014205759391189">
        <ele>2350.27</ele>
        <time>2023-01-29T13:17:49Z</time>
      </trkpt>
      <trkpt lat="46.25839683227241" lon="8.014123281463981">
        <ele>2349.9499999999998</ele>
        <time>2023-01-29T13:17:57Z</time>
      </trkpt>
      <trkpt lat="46.258332710713148" lon="8.014043401926756">
        <ele>2349.3800000000001</ele>
        <time>2023-01-29T13:18:06Z</time>
      </trkpt>
      <trkpt lat="46.258304631337523" lon="8.014030661433935">
        <ele>2348.7399999999998</ele>
        <time>2023-01-29T13:18:09Z</time>
      </trkpt>
      <trkpt lat="46.258204970508814" lon="8.013912476599217">
        <ele>2344.7399999999998</ele>
        <time>2023-01-29T13:18:23Z</time>
      </trkpt>
      <trkpt lat="46.258127773180604" lon="8.013856485486031">
        <ele>2342.9400000000001</ele>
        <time>2023-01-29T13:18:36Z</time>
      </trkpt>
      <trkpt lat="46.258105728775263" lon="8.013873836025596">
        <ele>2342.46</ele>
        <time>2023-01-29T13:18:46Z</time>
      </trkpt>
      <trkpt lat="46.258085444569588" lon="8.013879284262657">
        <ele>2342.0300000000002</ele>
        <time>2023-01-29T13:18:48Z</time>
      </trkpt>
      <trkpt lat="46.257967092096806" lon="8.013875680044293">
        <ele>2340.3899999999999</ele>
        <time>2023-01-29T13:19:00Z</time>
      </trkpt>
      <trkpt lat="46.257930966094136" lon="8.0138373747468">
        <ele>2338.7800000000002</ele>
        <time>2023-01-29T13:19:10Z</time>
      </trkpt>
      <trkpt lat="46.257877321913838" lon="8.013776103034616">
        <ele>2337.9200000000001</ele>
        <time>2023-01-29T13:19:18Z</time>
      </trkpt>
      <trkpt lat="46.25785393640399" lon="8.013729164376855">
        <ele>2336.9299999999998</ele>
        <time>2023-01-29T13:19:22Z</time>
      </trkpt>
      <trkpt lat="46.257781097665429" lon="8.013665210455656">
        <ele>2334.8699999999999</ele>
        <time>2023-01-29T13:19:31Z</time>
      </trkpt>
      <trkpt lat="46.257679676637053" lon="8.013573260977864">
        <ele>2331.2199999999998</ele>
        <time>2023-01-29T13:19:44Z</time>
      </trkpt>
      <trkpt lat="46.25766433775425" lon="8.0135593470186">
        <ele>2330.6900000000001</ele>
        <time>2023-01-29T13:19:46Z</time>
      </trkpt>
      <trkpt lat="46.257607340812683" lon="8.013526406139135">
        <ele>2328.3600000000001</ele>
        <time>2023-01-29T13:19:53Z</time>
      </trkpt>
      <trkpt lat="46.257552271708846" lon="8.013487849384546">
        <ele>2326.5799999999999</ele>
        <time>2023-01-29T13:20:00Z</time>
      </trkpt>
      <trkpt lat="46.257495610043406" lon="8.013473767787218">
        <ele>2326.1300000000001</ele>
        <time>2023-01-29T13:20:06Z</time>
      </trkpt>
      <trkpt lat="46.257422100752592" lon="8.013419955968857">
        <ele>2327.0300000000002</ele>
        <time>2023-01-29T13:20:16Z</time>
      </trkpt>
      <trkpt lat="46.257391003891826" lon="8.013381147757173">
        <ele>2327.1100000000001</ele>
        <time>2023-01-29T13:20:21Z</time>
      </trkpt>
      <trkpt lat="46.257330905646086" lon="8.013202445581555">
        <ele>2326.23</ele>
        <time>2023-01-29T13:20:36Z</time>
      </trkpt>
      <trkpt lat="46.257265526801348" lon="8.013107143342495">
        <ele>2324</ele>
        <time>2023-01-29T13:20:49Z</time>
      </trkpt>
      <trkpt lat="46.25726024620235" lon="8.013097420334816">
        <ele>2323.6399999999999</ele>
        <time>2023-01-29T13:20:50Z</time>
      </trkpt>
      <trkpt lat="46.257185647264123" lon="8.012988707050681">
        <ele>2320.4899999999998</ele>
        <time>2023-01-29T13:21:03Z</time>
      </trkpt>
      <trkpt lat="46.25711465254426" lon="8.012917544692755">
        <ele>2321.0999999999999</ele>
        <time>2023-01-29T13:21:17Z</time>
      </trkpt>
      <trkpt lat="46.257107360288501" lon="8.012911174446344">
        <ele>2320.79</ele>
        <time>2023-01-29T13:21:26Z</time>
      </trkpt>
      <trkpt lat="46.25711758621037" lon="8.012928860262036">
        <ele>2321.0599999999999</ele>
        <time>2023-01-29T13:21:34Z</time>
      </trkpt>
      <trkpt lat="46.25712244771421" lon="8.012932045385242">
        <ele>2321.5900000000001</ele>
        <time>2023-01-29T13:21:48Z</time>
      </trkpt>
      <trkpt lat="46.257105264812708" lon="8.012928441166878">
        <ele>2321.9400000000001</ele>
        <time>2023-01-29T13:22:00Z</time>
      </trkpt>
      <trkpt lat="46.257108030840755" lon="8.012931542471051">
        <ele>2322.79</ele>
        <time>2023-01-29T13:22:15Z</time>
      </trkpt>
      <trkpt lat="46.257107192650437" lon="8.012933470308781">
        <ele>2323.5799999999999</ele>
        <time>2023-01-29T13:22:37Z</time>
      </trkpt>
      <trkpt lat="46.25710928812623" lon="8.012932213023305">
        <ele>2323.9000000000001</ele>
        <time>2023-01-29T13:22:51Z</time>
      </trkpt>
      <trkpt lat="46.257101576775312" lon="8.012907151132822">
        <ele>2324.1799999999998</ele>
        <time>2023-01-29T13:23:04Z</time>
      </trkpt>
      <trkpt lat="46.257102498784661" lon="8.012857865542173">
        <ele>2323.0599999999999</ele>
        <time>2023-01-29T13:23:17Z</time>
      </trkpt>
      <trkpt lat="46.257083807140589" lon="8.01284009590745">
        <ele>2322.54</ele>
        <time>2023-01-29T13:23:23Z</time>
      </trkpt>
      <trkpt lat="46.257041227072477" lon="8.012804891914129">
        <ele>2321.6900000000001</ele>
        <time>2023-01-29T13:23:28Z</time>
      </trkpt>
      <trkpt lat="46.256953636184335" lon="8.012687209993601">
        <ele>2318.8400000000001</ele>
        <time>2023-01-29T13:23:40Z</time>
      </trkpt>
      <trkpt lat="46.256842073053122" lon="8.012554608285427">
        <ele>2318.1599999999999</ele>
        <time>2023-01-29T13:23:54Z</time>
      </trkpt>
      <trkpt lat="46.256771832704544" lon="8.012474477291107">
        <ele>2316.48</ele>
        <time>2023-01-29T13:24:04Z</time>
      </trkpt>
      <trkpt lat="46.25667099840939" lon="8.012372301891446">
        <ele>2310.75</ele>
        <time>2023-01-29T13:24:17Z</time>
      </trkpt>
      <trkpt lat="46.256645182147622" lon="8.012361908331513">
        <ele>2309.73</ele>
        <time>2023-01-29T13:24:20Z</time>
      </trkpt>
      <trkpt lat="46.25652632676065" lon="8.012274820357561">
        <ele>2306.4000000000001</ele>
        <time>2023-01-29T13:24:34Z</time>
      </trkpt>
      <trkpt lat="46.256473436951637" lon="8.012181362137198">
        <ele>2303.1399999999999</ele>
        <time>2023-01-29T13:24:46Z</time>
      </trkpt>
      <trkpt lat="46.256413757801056" lon="8.012144146487117">
        <ele>2300.4299999999998</ele>
        <time>2023-01-29T13:24:56Z</time>
      </trkpt>
      <trkpt lat="46.256412751972675" lon="8.012135764583945">
        <ele>2300.1500000000001</ele>
        <time>2023-01-29T13:25:09Z</time>
      </trkpt>
      <trkpt lat="46.256407722830772" lon="8.012095112353563">
        <ele>2299.3400000000001</ele>
        <time>2023-01-29T13:25:19Z</time>
      </trkpt>
      <trkpt lat="46.256360448896885" lon="8.012000983580947">
        <ele>2297.52</ele>
        <time>2023-01-29T13:25:28Z</time>
      </trkpt>
      <trkpt lat="46.256260955706239" lon="8.01186628639698">
        <ele>2296.1500000000001</ele>
        <time>2023-01-29T13:25:45Z</time>
      </trkpt>
      <trkpt lat="46.256158193573356" lon="8.011729326099157">
        <ele>2293.4000000000001</ele>
        <time>2023-01-29T13:26:00Z</time>
      </trkpt>
      <trkpt lat="46.256035566329956" lon="8.011582978069782">
        <ele>2290.4400000000001</ele>
        <time>2023-01-29T13:26:16Z</time>
      </trkpt>
      <trkpt lat="46.255907658487558" lon="8.011445011943579">
        <ele>2288.2600000000002</ele>
        <time>2023-01-29T13:26:33Z</time>
      </trkpt>
      <trkpt lat="46.255798442289233" lon="8.011357756331563">
        <ele>2285.8200000000002</ele>
        <time>2023-01-29T13:26:47Z</time>
      </trkpt>
      <trkpt lat="46.255661984905601" lon="8.011265639215708">
        <ele>2282.1700000000001</ele>
        <time>2023-01-29T13:27:03Z</time>
      </trkpt>
      <trkpt lat="46.255540531128645" lon="8.011230770498514">
        <ele>2280.5700000000002</ele>
        <time>2023-01-29T13:27:19Z</time>
      </trkpt>
      <trkpt lat="46.255487389862537" lon="8.011231608688831">
        <ele>2281.7600000000002</ele>
        <time>2023-01-29T13:27:32Z</time>
      </trkpt>
      <trkpt lat="46.255451934412122" lon="8.011234290897846">
        <ele>2282.3200000000002</ele>
        <time>2023-01-29T13:27:44Z</time>
      </trkpt>
      <trkpt lat="46.255454616621137" lon="8.011245774105191">
        <ele>2282.5599999999999</ele>
        <time>2023-01-29T13:28:05Z</time>
      </trkpt>
      <trkpt lat="46.255464004352689" lon="8.011259939521551">
        <ele>2282.0799999999999</ele>
        <time>2023-01-29T13:28:16Z</time>
      </trkpt>
      <trkpt lat="46.255481354892254" lon="8.01126966252923">
        <ele>2281.2600000000002</ele>
        <time>2023-01-29T13:28:27Z</time>
      </trkpt>
      <trkpt lat="46.255480768159032" lon="8.011267734691501">
        <ele>2280.1199999999999</ele>
        <time>2023-01-29T13:28:57Z</time>
      </trkpt>
      <trkpt lat="46.255478840321302" lon="8.011265974491835">
        <ele>2280.04</ele>
        <time>2023-01-29T13:29:16Z</time>
      </trkpt>
      <trkpt lat="46.255462914705276" lon="8.011270668357611">
        <ele>2279.9099999999999</ele>
        <time>2023-01-29T13:29:28Z</time>
      </trkpt>
      <trkpt lat="46.255423352122307" lon="8.011298915371299">
        <ele>2279.6399999999999</ele>
        <time>2023-01-29T13:29:44Z</time>
      </trkpt>
      <trkpt lat="46.255388986319304" lon="8.011308889836073">
        <ele>2279.0500000000002</ele>
        <time>2023-01-29T13:29:56Z</time>
      </trkpt>
      <trkpt lat="46.255386471748352" lon="8.011296233162284">
        <ele>2279.0599999999999</ele>
        <time>2023-01-29T13:30:29Z</time>
      </trkpt>
      <trkpt lat="46.25538538210094" lon="8.011303693056107">
        <ele>2279.4200000000001</ele>
        <time>2023-01-29T13:30:49Z</time>
      </trkpt>
      <trkpt lat="46.255379347130656" lon="8.01130386069417">
        <ele>2279.3899999999999</ele>
        <time>2023-01-29T13:31:01Z</time>
      </trkpt>
      <trkpt lat="46.25539124943316" lon="8.011304531246424">
        <ele>2279.3899999999999</ele>
        <time>2023-01-29T13:31:30Z</time>
      </trkpt>
      <trkpt lat="46.255384124815464" lon="8.011302771046758">
        <ele>2279.3400000000001</ele>
        <time>2023-01-29T13:31:43Z</time>
      </trkpt>
      <trkpt lat="46.255377251654863" lon="8.011298663914204">
        <ele>2279.3099999999999</ele>
        <time>2023-01-29T13:31:59Z</time>
      </trkpt>
      <trkpt lat="46.255366522818804" lon="8.011297574266791">
        <ele>2279.3699999999999</ele>
        <time>2023-01-29T13:32:20Z</time>
      </trkpt>
      <trkpt lat="46.255364259704947" lon="8.011298077180982">
        <ele>2279.6500000000001</ele>
        <time>2023-01-29T13:32:36Z</time>
      </trkpt>
      <trkpt lat="46.255353530868888" lon="8.011304279789329">
        <ele>2279.6599999999999</ele>
        <time>2023-01-29T13:32:44Z</time>
      </trkpt>
      <trkpt lat="46.255324026569724" lon="8.011325402185321">
        <ele>2279.46</ele>
        <time>2023-01-29T13:32:47Z</time>
      </trkpt>
      <trkpt lat="46.255283541977406" lon="8.011362869292498">
        <ele>2279.0100000000002</ele>
        <time>2023-01-29T13:32:51Z</time>
      </trkpt>
      <trkpt lat="46.255173487588763" lon="8.011454734951258">
        <ele>2277.8099999999999</ele>
        <time>2023-01-29T13:33:05Z</time>
      </trkpt>
      <trkpt lat="46.255149934440851" lon="8.011481473222375">
        <ele>2277.2199999999998</ele>
        <time>2023-01-29T13:33:12Z</time>
      </trkpt>
      <trkpt lat="46.255117831751704" lon="8.011507792398334">
        <ele>2276.0799999999999</ele>
        <time>2023-01-29T13:33:16Z</time>
      </trkpt>
      <trkpt lat="46.255000317469239" lon="8.011591779068112">
        <ele>2274.0599999999999</ele>
        <time>2023-01-29T13:33:31Z</time>
      </trkpt>
      <trkpt lat="46.254907278344035" lon="8.011638885363936">
        <ele>2271.5900000000001</ele>
        <time>2023-01-29T13:33:43Z</time>
      </trkpt>
      <trkpt lat="46.254818933084607" lon="8.011735361069441">
        <ele>2269.7199999999998</ele>
        <time>2023-01-29T13:33:56Z</time>
      </trkpt>
      <trkpt lat="46.254701418802142" lon="8.011737540364265">
        <ele>2267.4299999999998</ele>
        <time>2023-01-29T13:34:10Z</time>
      </trkpt>
      <trkpt lat="46.254657916724682" lon="8.011728236451745">
        <ele>2266.7800000000002</ele>
        <time>2023-01-29T13:34:15Z</time>
      </trkpt>
      <trkpt lat="46.254630172625184" lon="8.011719267815352">
        <ele>2266.1100000000001</ele>
        <time>2023-01-29T13:34:18Z</time>
      </trkpt>
      <trkpt lat="46.254490446299314" lon="8.011684650555253">
        <ele>2264.98</ele>
        <time>2023-01-29T13:34:33Z</time>
      </trkpt>
      <trkpt lat="46.254383409395814" lon="8.011626144871116">
        <ele>2265.4899999999998</ele>
        <time>2023-01-29T13:34:47Z</time>
      </trkpt>
      <trkpt lat="46.254377961158752" lon="8.011616757139564">
        <ele>2265.5300000000002</ele>
        <time>2023-01-29T13:34:48Z</time>
      </trkpt>
      <trkpt lat="46.254333704710007" lon="8.011455656960607">
        <ele>2263.79</ele>
        <time>2023-01-29T13:35:02Z</time>
      </trkpt>
      <trkpt lat="46.254330854862928" lon="8.011412741616368">
        <ele>2263.4499999999998</ele>
        <time>2023-01-29T13:35:11Z</time>
      </trkpt>
      <trkpt lat="46.254335716366768" lon="8.011428499594331">
        <ele>2264.3099999999999</ele>
        <time>2023-01-29T13:35:30Z</time>
      </trkpt>
      <trkpt lat="46.254335297271609" lon="8.011431097984314">
        <ele>2264.3200000000002</ele>
        <time>2023-01-29T13:35:46Z</time>
      </trkpt>
      <trkpt lat="46.254325406625867" lon="8.011432942003012">
        <ele>2263.5999999999999</ele>
        <time>2023-01-29T13:36:21Z</time>
      </trkpt>
      <trkpt lat="46.254315851256251" lon="8.011437216773629">
        <ele>2263.4000000000001</ele>
        <time>2023-01-29T13:36:44Z</time>
      </trkpt>
      <trkpt lat="46.254337392747402" lon="8.011432690545917">
        <ele>2263.9200000000001</ele>
        <time>2023-01-29T13:37:03Z</time>
      </trkpt>
      <trkpt lat="46.254341499879956" lon="8.011437300592661">
        <ele>2263.9499999999998</ele>
        <time>2023-01-29T13:37:17Z</time>
      </trkpt>
      <trkpt lat="46.254343260079622" lon="8.011421961709857">
        <ele>2264.1199999999999</ele>
        <time>2023-01-29T13:37:38Z</time>
      </trkpt>
      <trkpt lat="46.254342086613178" lon="8.011420369148254">
        <ele>2264.5</ele>
        <time>2023-01-29T13:37:59Z</time>
      </trkpt>
      <trkpt lat="46.254334626719356" lon="8.0114162620157">
        <ele>2264.2399999999998</ele>
        <time>2023-01-29T13:38:15Z</time>
      </trkpt>
      <trkpt lat="46.254270505160093" lon="8.011358762159944">
        <ele>2262.5999999999999</ele>
        <time>2023-01-29T13:38:25Z</time>
      </trkpt>
      <trkpt lat="46.254202611744404" lon="8.011213168501854">
        <ele>2258.3800000000001</ele>
        <time>2023-01-29T13:38:39Z</time>
      </trkpt>
      <trkpt lat="46.254146955907345" lon="8.011109316721559">
        <ele>2255.3299999999999</ele>
        <time>2023-01-29T13:38:50Z</time>
      </trkpt>
      <trkpt lat="46.254096161574125" lon="8.010994736105204">
        <ele>2251.4400000000001</ele>
        <time>2023-01-29T13:39:01Z</time>
      </trkpt>
      <trkpt lat="46.25407780520618" lon="8.01088317297399">
        <ele>2248.1399999999999</ele>
        <time>2023-01-29T13:39:12Z</time>
      </trkpt>
      <trkpt lat="46.254062298685312" lon="8.010751577094197">
        <ele>2242.3899999999999</ele>
        <time>2023-01-29T13:39:24Z</time>
      </trkpt>
      <trkpt lat="46.253995578736067" lon="8.010772196575999">
        <ele>2241.1599999999999</ele>
        <time>2023-01-29T13:39:35Z</time>
      </trkpt>
      <trkpt lat="46.253990801051259" lon="8.010783428326249">
        <ele>2241.1900000000001</ele>
        <time>2023-01-29T13:39:43Z</time>
      </trkpt>
      <trkpt lat="46.253907317295671" lon="8.010871605947614">
        <ele>2239.04</ele>
        <time>2023-01-29T13:39:55Z</time>
      </trkpt>
      <trkpt lat="46.253851745277643" lon="8.010944193229079">
        <ele>2236.3800000000001</ele>
        <time>2023-01-29T13:40:04Z</time>
      </trkpt>
      <trkpt lat="46.253785276785493" lon="8.010994819924235">
        <ele>2233.1599999999999</ele>
        <time>2023-01-29T13:40:16Z</time>
      </trkpt>
      <trkpt lat="46.253774296492338" lon="8.011027676984668">
        <ele>2232.3400000000001</ele>
        <time>2023-01-29T13:40:27Z</time>
      </trkpt>
      <trkpt lat="46.253720987588167" lon="8.011082410812378">
        <ele>2230.3800000000001</ele>
        <time>2023-01-29T13:40:38Z</time>
      </trkpt>
      <trkpt lat="46.25368787907064" lon="8.01113722845912">
        <ele>2228.3499999999999</ele>
        <time>2023-01-29T13:40:45Z</time>
      </trkpt>
      <trkpt lat="46.253706319257617" lon="8.011358929798007">
        <ele>2226.1500000000001</ele>
        <time>2023-01-29T13:41:03Z</time>
      </trkpt>
      <trkpt lat="46.253720987588167" lon="8.011449538171291">
        <ele>2223.9899999999998</ele>
        <time>2023-01-29T13:41:15Z</time>
      </trkpt>
      <trkpt lat="46.253724005073309" lon="8.011443922296166">
        <ele>2223.8299999999999</ele>
        <time>2023-01-29T13:41:28Z</time>
      </trkpt>
      <trkpt lat="46.253718389198184" lon="8.011531345546246">
        <ele>2221.46</ele>
        <time>2023-01-29T13:41:39Z</time>
      </trkpt>
      <trkpt lat="46.253678826615214" lon="8.011612482368946">
        <ele>2217.52</ele>
        <time>2023-01-29T13:41:51Z</time>
      </trkpt>
      <trkpt lat="46.253642784431577" lon="8.011576356366277">
        <ele>2215.5999999999999</ele>
        <time>2023-01-29T13:42:01Z</time>
      </trkpt>
      <trkpt lat="46.253634318709373" lon="8.011566046625376">
        <ele>2215.46</ele>
        <time>2023-01-29T13:42:16Z</time>
      </trkpt>
      <trkpt lat="46.253628870472312" lon="8.011565543711186">
        <ele>2215.0999999999999</ele>
        <time>2023-01-29T13:42:39Z</time>
      </trkpt>
      <trkpt lat="46.253624260425568" lon="8.011561268940568">
        <ele>2215.02</ele>
        <time>2023-01-29T13:43:02Z</time>
      </trkpt>
      <trkpt lat="46.253604982048273" lon="8.011531345546246">
        <ele>2214.7199999999998</ele>
        <time>2023-01-29T13:43:25Z</time>
      </trkpt>
      <trkpt lat="46.253556786105037" lon="8.011507373303175">
        <ele>2214.25</ele>
        <time>2023-01-29T13:43:37Z</time>
      </trkpt>
      <trkpt lat="46.253558211028576" lon="8.011625893414021">
        <ele>2213.3600000000001</ele>
        <time>2023-01-29T13:43:52Z</time>
      </trkpt>
      <trkpt lat="46.253544297069311" lon="8.011665539816022">
        <ele>2212.6700000000001</ele>
        <time>2023-01-29T13:44:02Z</time>
      </trkpt>
      <trkpt lat="46.253527114167809" lon="8.011665958911181">
        <ele>2212.3699999999999</ele>
        <time>2023-01-29T13:44:13Z</time>
      </trkpt>
      <trkpt lat="46.253522336483002" lon="8.011666629463434">
        <ele>2212.3400000000001</ele>
        <time>2023-01-29T13:44:34Z</time>
      </trkpt>
      <trkpt lat="46.25351051799953" lon="8.011673083528876">
        <ele>2211.6900000000001</ele>
        <time>2023-01-29T13:44:55Z</time>
      </trkpt>
      <trkpt lat="46.25340105034411" lon="8.01177442073822">
        <ele>2208.9899999999998</ele>
        <time>2023-01-29T13:45:06Z</time>
      </trkpt>
      <trkpt lat="46.253322763368487" lon="8.011888833716512">
        <ele>2206.5599999999999</ele>
        <time>2023-01-29T13:45:21Z</time>
      </trkpt>
      <trkpt lat="46.253327624872327" lon="8.011875506490469">
        <ele>2205.3299999999999</ele>
        <time>2023-01-29T13:45:37Z</time>
      </trkpt>
      <trkpt lat="46.253322008997202" lon="8.01187064498663">
        <ele>2204.2399999999998</ele>
        <time>2023-01-29T13:45:54Z</time>
      </trkpt>
      <trkpt lat="46.253326283767819" lon="8.011864442378283">
        <ele>2203.3499999999999</ele>
        <time>2023-01-29T13:46:21Z</time>
      </trkpt>
      <trkpt lat="46.253318153321743" lon="8.011897215619683">
        <ele>2202.1300000000001</ele>
        <time>2023-01-29T13:46:44Z</time>
      </trkpt>
      <trkpt lat="46.253260904923081" lon="8.012083796784282">
        <ele>2200.0700000000002</ele>
        <time>2023-01-29T13:46:59Z</time>
      </trkpt>
      <trkpt lat="46.253248583525419" lon="8.012109193950892">
        <ele>2198.9099999999999</ele>
        <time>2023-01-29T13:47:13Z</time>
      </trkpt>
      <trkpt lat="46.253226539120078" lon="8.012155964970589">
        <ele>2197.9400000000001</ele>
        <time>2023-01-29T13:47:33Z</time>
      </trkpt>
      <trkpt lat="46.253202985972166" lon="8.012334750965238">
        <ele>2195.5</ele>
        <time>2023-01-29T13:47:48Z</time>
      </trkpt>
      <trkpt lat="46.253113383427262" lon="8.012504652142525">
        <ele>2188.9899999999998</ele>
        <time>2023-01-29T13:48:04Z</time>
      </trkpt>
      <trkpt lat="46.253036018460989" lon="8.012704728171229">
        <ele>2183.6399999999999</ele>
        <time>2023-01-29T13:48:18Z</time>
      </trkpt>
      <trkpt lat="46.252961335703731" lon="8.012827439233661">
        <ele>2181.3299999999999</ele>
        <time>2023-01-29T13:48:31Z</time>
      </trkpt>
      <trkpt lat="46.252896962687373" lon="8.012965572997928">
        <ele>2177.6100000000001</ele>
        <time>2023-01-29T13:48:44Z</time>
      </trkpt>
      <trkpt lat="46.252879612147808" lon="8.012979654595256">
        <ele>2178.4499999999998</ele>
        <time>2023-01-29T13:48:55Z</time>
      </trkpt>
      <trkpt lat="46.252887155860662" lon="8.013014858588576">
        <ele>2178.4699999999998</ele>
        <time>2023-01-29T13:49:13Z</time>
      </trkpt>
      <trkpt lat="46.252892520278692" lon="8.01312156021595">
        <ele>2175.8499999999999</ele>
        <time>2023-01-29T13:49:25Z</time>
      </trkpt>
      <trkpt lat="46.252858741208911" lon="8.013160955160856">
        <ele>2172.6500000000001</ele>
        <time>2023-01-29T13:49:37Z</time>
      </trkpt>
      <trkpt lat="46.252855556085706" lon="8.01318945363164">
        <ele>2171.6100000000001</ele>
        <time>2023-01-29T13:49:49Z</time>
      </trkpt>
      <trkpt lat="46.252854969352484" lon="8.013177970424295">
        <ele>2170.7600000000002</ele>
        <time>2023-01-29T13:50:10Z</time>
      </trkpt>
      <trkpt lat="46.252853879705071" lon="8.013165565207601">
        <ele>2169.75</ele>
        <time>2023-01-29T13:50:34Z</time>
      </trkpt>
      <trkpt lat="46.252855723723769" lon="8.013164643198252">
        <ele>2168.4299999999998</ele>
        <time>2023-01-29T13:51:07Z</time>
      </trkpt>
      <trkpt lat="46.252856813371181" lon="8.013185597956181">
        <ele>2168.27</ele>
        <time>2023-01-29T13:51:17Z</time>
      </trkpt>
      <trkpt lat="46.252837618812919" lon="8.013196242973208">
        <ele>2166.71</ele>
        <time>2023-01-29T13:51:26Z</time>
      </trkpt>
      <trkpt lat="46.252881120890379" lon="8.013241505250335">
        <ele>2168.0300000000002</ele>
        <time>2023-01-29T13:51:40Z</time>
      </trkpt>
      <trkpt lat="46.252897381782532" lon="8.013314846903086">
        <ele>2167.96</ele>
        <time>2023-01-29T13:51:51Z</time>
      </trkpt>
      <trkpt lat="46.252886150032282" lon="8.013353487476707">
        <ele>2167.1900000000001</ele>
        <time>2023-01-29T13:52:03Z</time>
      </trkpt>
      <trkpt lat="46.252881875261664" lon="8.01338542252779">
        <ele>2166.21</ele>
        <time>2023-01-29T13:52:19Z</time>
      </trkpt>
      <trkpt lat="46.252826470881701" lon="8.013464463874698">
        <ele>2162.6500000000001</ele>
        <time>2023-01-29T13:52:30Z</time>
      </trkpt>
      <trkpt lat="46.252702502533793" lon="8.013410400599241">
        <ele>2159.29</ele>
        <time>2023-01-29T13:52:44Z</time>
      </trkpt>
      <trkpt lat="46.252617593854666" lon="8.013333538547158">
        <ele>2156.8899999999999</ele>
        <time>2023-01-29T13:52:56Z</time>
      </trkpt>
      <trkpt lat="46.252543497830629" lon="8.013252401724458">
        <ele>2154.1399999999999</ele>
        <time>2023-01-29T13:53:07Z</time>
      </trkpt>
      <trkpt lat="46.252452973276377" lon="8.013180401176214">
        <ele>2150.7399999999998</ele>
        <time>2023-01-29T13:53:21Z</time>
      </trkpt>
      <trkpt lat="46.252412153407931" lon="8.013177551329136">
        <ele>2148.29</ele>
        <time>2023-01-29T13:53:30Z</time>
      </trkpt>
      <trkpt lat="46.252342751249671" lon="8.013163134455681">
        <ele>2144.5100000000002</ele>
        <time>2023-01-29T13:53:41Z</time>
      </trkpt>
      <trkpt lat="46.252306457608938" lon="8.013237649574876">
        <ele>2140.6900000000001</ele>
        <time>2023-01-29T13:53:52Z</time>
      </trkpt>
      <trkpt lat="46.252284329384565" lon="8.013254161924124">
        <ele>2139.2600000000002</ele>
        <time>2023-01-29T13:53:55Z</time>
      </trkpt>
      <trkpt lat="46.252244934439659" lon="8.013275116682053">
        <ele>2136.8699999999999</ele>
        <time>2023-01-29T13:54:06Z</time>
      </trkpt>
      <trkpt lat="46.252241833135486" lon="8.013311577960849">
        <ele>2135.1599999999999</ele>
        <time>2023-01-29T13:54:18Z</time>
      </trkpt>
      <trkpt lat="46.252234121784568" lon="8.013310404494405">
        <ele>2134.8600000000001</ele>
        <time>2023-01-29T13:54:40Z</time>
      </trkpt>
      <trkpt lat="46.252233451232314" lon="8.0133140925318">
        <ele>2134.2399999999998</ele>
        <time>2023-01-29T13:54:56Z</time>
      </trkpt>
      <trkpt lat="46.252229092642665" lon="8.013306381180883">
        <ele>2134.54</ele>
        <time>2023-01-29T13:55:15Z</time>
      </trkpt>
      <trkpt lat="46.25222884118557" lon="8.01331652328372">
        <ele>2134.6399999999999</ele>
        <time>2023-01-29T13:55:29Z</time>
      </trkpt>
      <trkpt lat="46.2522342056036" lon="8.013306967914105">
        <ele>2134.04</ele>
        <time>2023-01-29T13:56:00Z</time>
      </trkpt>
      <trkpt lat="46.252228086814284" lon="8.013307806104422">
        <ele>2134.0300000000002</ele>
        <time>2023-01-29T13:56:21Z</time>
      </trkpt>
      <trkpt lat="46.252214843407273" lon="8.013342758640647">
        <ele>2133.4899999999998</ele>
        <time>2023-01-29T13:56:38Z</time>
      </trkpt>
      <trkpt lat="46.252207886427641" lon="8.013456501066685">
        <ele>2130.6599999999999</ele>
        <time>2023-01-29T13:56:47Z</time>
      </trkpt>
      <trkpt lat="46.252162456512451" lon="8.013667054474354">
        <ele>2124.8600000000001</ele>
        <time>2023-01-29T13:57:02Z</time>
      </trkpt>
      <trkpt lat="46.252065226435661" lon="8.013816503807902">
        <ele>2124.73</ele>
        <time>2023-01-29T13:57:17Z</time>
      </trkpt>
      <trkpt lat="46.251996159553528" lon="8.013988249003887">
        <ele>2122.6100000000001</ele>
        <time>2023-01-29T13:57:32Z</time>
      </trkpt>
      <trkpt lat="46.251925164833665" lon="8.014167370274663">
        <ele>2120.7199999999998</ele>
        <time>2023-01-29T13:57:46Z</time>
      </trkpt>
      <trkpt lat="46.251841178163886" lon="8.014370212331414">
        <ele>2118.9299999999998</ele>
        <time>2023-01-29T13:58:03Z</time>
      </trkpt>
      <trkpt lat="46.251791892573237" lon="8.014531647786498">
        <ele>2118.3400000000001</ele>
        <time>2023-01-29T13:58:16Z</time>
      </trkpt>
      <trkpt lat="46.251774374395609" lon="8.014553776010871">
        <ele>2118.9000000000001</ele>
        <time>2023-01-29T13:58:28Z</time>
      </trkpt>
      <trkpt lat="46.251761298626661" lon="8.014569114893675">
        <ele>2119.9499999999998</ele>
        <time>2023-01-29T13:58:53Z</time>
      </trkpt>
      <trkpt lat="46.251753587275743" lon="8.014567522332072">
        <ele>2120.0599999999999</ele>
        <time>2023-01-29T13:59:07Z</time>
      </trkpt>
      <trkpt lat="46.251750150695443" lon="8.014563834294677">
        <ele>2120.3400000000001</ele>
        <time>2023-01-29T13:59:29Z</time>
      </trkpt>
      <trkpt lat="46.251746462658048" lon="8.014635667204857">
        <ele>2120.1799999999998</ele>
        <time>2023-01-29T13:59:49Z</time>
      </trkpt>
      <trkpt lat="46.251712767407298" lon="8.014828367158771">
        <ele>2119.73</ele>
        <time>2023-01-29T14:00:04Z</time>
      </trkpt>
      <trkpt lat="46.251683346927166" lon="8.014992568641901">
        <ele>2118.1999999999998</ele>
        <time>2023-01-29T14:00:18Z</time>
      </trkpt>
      <trkpt lat="46.251665158197284" lon="8.015194572508335">
        <ele>2114.75</ele>
        <time>2023-01-29T14:00:34Z</time>
      </trkpt>
      <trkpt lat="46.251629367470741" lon="8.01537511870265">
        <ele>2113.2199999999998</ele>
        <time>2023-01-29T14:00:47Z</time>
      </trkpt>
      <trkpt lat="46.251602880656719" lon="8.015593299642205">
        <ele>2110.9299999999998</ele>
        <time>2023-01-29T14:01:02Z</time>
      </trkpt>
      <trkpt lat="46.251594163477421" lon="8.015881050378084">
        <ele>2108.23</ele>
        <time>2023-01-29T14:01:20Z</time>
      </trkpt>
      <trkpt lat="46.251593660563231" lon="8.016110463067889">
        <ele>2105.77</ele>
        <time>2023-01-29T14:01:35Z</time>
      </trkpt>
      <trkpt lat="46.251596426591277" lon="8.016318920999765">
        <ele>2103.5599999999999</ele>
        <time>2023-01-29T14:01:48Z</time>
      </trkpt>
      <trkpt lat="46.2516038864851" lon="8.016538275405765">
        <ele>2101.7199999999998</ele>
        <time>2023-01-29T14:02:02Z</time>
      </trkpt>
      <trkpt lat="46.251602629199624" lon="8.016761150211096">
        <ele>2098.5</ele>
        <time>2023-01-29T14:02:17Z</time>
      </trkpt>
      <trkpt lat="46.25162199139595" lon="8.016987880691886">
        <ele>2095.02</ele>
        <time>2023-01-29T14:02:33Z</time>
      </trkpt>
      <trkpt lat="46.251570358872414" lon="8.017174210399389">
        <ele>2091.6300000000001</ele>
        <time>2023-01-29T14:02:47Z</time>
      </trkpt>
      <trkpt lat="46.25156139023602" lon="8.017176305875182">
        <ele>2091.5700000000002</ele>
        <time>2023-01-29T14:02:48Z</time>
      </trkpt>
      <trkpt lat="46.25154429115355" lon="8.017156189307571">
        <ele>2091.3600000000001</ele>
        <time>2023-01-29T14:02:50Z</time>
      </trkpt>
      <trkpt lat="46.251526605337858" lon="8.017144622281194">
        <ele>2090.9099999999999</ele>
        <time>2023-01-29T14:02:52Z</time>
      </trkpt>
      <trkpt lat="46.251456281170249" lon="8.017296670004726">
        <ele>2086.25</ele>
        <time>2023-01-29T14:03:06Z</time>
      </trkpt>
      <trkpt lat="46.251429291442037" lon="8.017541840672493">
        <ele>2083.7600000000002</ele>
        <time>2023-01-29T14:03:21Z</time>
      </trkpt>
      <trkpt lat="46.25138939358294" lon="8.017771672457457">
        <ele>2082.7600000000002</ele>
        <time>2023-01-29T14:03:36Z</time>
      </trkpt>
      <trkpt lat="46.25134346075356" lon="8.017962109297514">
        <ele>2082.3600000000001</ele>
        <time>2023-01-29T14:03:50Z</time>
      </trkpt>
      <trkpt lat="46.251301215961576" lon="8.018166041001678">
        <ele>2081.4499999999998</ele>
        <time>2023-01-29T14:04:05Z</time>
      </trkpt>
      <trkpt lat="46.251263162121177" lon="8.0183479283005">
        <ele>2080.1799999999998</ele>
        <time>2023-01-29T14:04:20Z</time>
      </trkpt>
      <trkpt lat="46.25129409134388" lon="8.018500227481127">
        <ele>2078.6700000000001</ele>
        <time>2023-01-29T14:04:33Z</time>
      </trkpt>
      <trkpt lat="46.251308005303144" lon="8.018648838624358">
        <ele>2075.6900000000001</ele>
        <time>2023-01-29T14:04:48Z</time>
      </trkpt>
      <trkpt lat="46.251305742189288" lon="8.018788481131196">
        <ele>2072.46</ele>
        <time>2023-01-29T14:05:01Z</time>
      </trkpt>
      <trkpt lat="46.251334743574262" lon="8.018921837210655">
        <ele>2069.5900000000001</ele>
        <time>2023-01-29T14:05:13Z</time>
      </trkpt>
      <trkpt lat="46.251397440209985" lon="8.019051924347878">
        <ele>2066.4400000000001</ele>
        <time>2023-01-29T14:05:28Z</time>
      </trkpt>
      <trkpt lat="46.251402720808983" lon="8.019099365919828">
        <ele>2065.4699999999998</ele>
        <time>2023-01-29T14:05:32Z</time>
      </trkpt>
      <trkpt lat="46.251448653638363" lon="8.019286533817649">
        <ele>2063.25</ele>
        <time>2023-01-29T14:05:46Z</time>
      </trkpt>
      <trkpt lat="46.251454018056393" lon="8.019486106932163">
        <ele>2062.1399999999999</ele>
        <time>2023-01-29T14:05:59Z</time>
      </trkpt>
      <trkpt lat="46.251422083005309" lon="8.019626336172223">
        <ele>2058.8200000000002</ele>
        <time>2023-01-29T14:06:11Z</time>
      </trkpt>
      <trkpt lat="46.251401966437697" lon="8.019735552370548">
        <ele>2056.1300000000001</ele>
        <time>2023-01-29T14:06:19Z</time>
      </trkpt>
      <trkpt lat="46.251399535685778" lon="8.019763883203268">
        <ele>2055.3800000000001</ele>
        <time>2023-01-29T14:06:21Z</time>
      </trkpt>
      <trkpt lat="46.251388220116496" lon="8.019833117723465">
        <ele>2054.1199999999999</ele>
        <time>2023-01-29T14:06:26Z</time>
      </trkpt>
      <trkpt lat="46.251437673345208" lon="8.020025063306093">
        <ele>2049.8899999999999</ele>
        <time>2023-01-29T14:06:41Z</time>
      </trkpt>
      <trkpt lat="46.251438930630684" lon="8.020051969215274">
        <ele>2049.3000000000002</ele>
        <time>2023-01-29T14:06:43Z</time>
      </trkpt>
      <trkpt lat="46.251361900940537" lon="8.020177781581879">
        <ele>2045.23</ele>
        <time>2023-01-29T14:06:55Z</time>
      </trkpt>
      <trkpt lat="46.251209266483784" lon="8.020273000001907">
        <ele>2043.77</ele>
        <time>2023-01-29T14:07:10Z</time>
      </trkpt>
      <trkpt lat="46.251097954809666" lon="8.020369810983539">
        <ele>2044.0799999999999</ele>
        <time>2023-01-29T14:07:26Z</time>
      </trkpt>
      <trkpt lat="46.251075323671103" lon="8.020413396880031">
        <ele>2044.3599999999999</ele>
        <time>2023-01-29T14:07:36Z</time>
      </trkpt>
      <trkpt lat="46.251068450510502" lon="8.020413983613253">
        <ele>2044.1800000000001</ele>
        <time>2023-01-29T14:07:49Z</time>
      </trkpt>
      <trkpt lat="46.251059984788299" lon="8.020425802096725">
        <ele>2046.0999999999999</ele>
        <time>2023-01-29T14:08:12Z</time>
      </trkpt>
      <trkpt lat="46.251054704189301" lon="8.020422784611583">
        <ele>2046.8399999999999</ele>
        <time>2023-01-29T14:08:45Z</time>
      </trkpt>
      <trkpt lat="46.251056799665093" lon="8.020417001098394">
        <ele>2045.5799999999999</ele>
        <time>2023-01-29T14:09:28Z</time>
      </trkpt>
      <trkpt lat="46.251060906797647" lon="8.020416079089046">
        <ele>2045.9200000000001</ele>
        <time>2023-01-29T14:10:07Z</time>
      </trkpt>
      <trkpt lat="46.251058559864759" lon="8.020419850945473">
        <ele>2045.77</ele>
        <time>2023-01-29T14:10:43Z</time>
      </trkpt>
      <trkpt lat="46.251059230417013" lon="8.020407445728779">
        <ele>2045.52</ele>
        <time>2023-01-29T14:11:25Z</time>
      </trkpt>
      <trkpt lat="46.251064846292138" lon="8.020402668043971">
        <ele>2045.6400000000001</ele>
        <time>2023-01-29T14:12:08Z</time>
      </trkpt>
      <trkpt lat="46.251067444682121" lon="8.020398980006576">
        <ele>2045.6500000000001</ele>
        <time>2023-01-29T14:12:49Z</time>
      </trkpt>
      <trkpt lat="46.251060822978616" lon="8.020405182614923">
        <ele>2046.1099999999999</ele>
        <time>2023-01-29T14:13:25Z</time>
      </trkpt>
      <trkpt lat="46.251057302579284" lon="8.02040652371943">
        <ele>2045.4400000000001</ele>
        <time>2023-01-29T14:14:01Z</time>
      </trkpt>
      <trkpt lat="46.251064008101821" lon="8.020410547032952">
        <ele>2045.4100000000001</ele>
        <time>2023-01-29T14:14:34Z</time>
      </trkpt>
      <trkpt lat="46.251061577349901" lon="8.020409876480699">
        <ele>2046.03</ele>
        <time>2023-01-29T14:15:15Z</time>
      </trkpt>
      <trkpt lat="46.251061912626028" lon="8.02040308713913">
        <ele>2045.71</ele>
        <time>2023-01-29T14:15:50Z</time>
      </trkpt>
      <trkpt lat="46.251072473824024" lon="8.020397052168846">
        <ele>2046.4300000000001</ele>
        <time>2023-01-29T14:16:15Z</time>
      </trkpt>
      <trkpt lat="46.251077922061086" lon="8.020397471264005">
        <ele>2046.3900000000001</ele>
        <time>2023-01-29T14:16:30Z</time>
      </trkpt>
      <trkpt lat="46.251076748594642" lon="8.02041138522327">
        <ele>2046.4400000000001</ele>
        <time>2023-01-29T14:16:49Z</time>
      </trkpt>
      <trkpt lat="46.25106786377728" lon="8.020411469042301">
        <ele>2046.0899999999999</ele>
        <time>2023-01-29T14:16:59Z</time>
      </trkpt>
      <trkpt lat="46.251066438853741" lon="8.020418928936124">
        <ele>2046.23</ele>
        <time>2023-01-29T14:17:14Z</time>
      </trkpt>
      <trkpt lat="46.251047244295478" lon="8.02045438438654">
        <ele>2046.2</ele>
        <time>2023-01-29T14:17:26Z</time>
      </trkpt>
      <trkpt lat="46.250988068059087" lon="8.020507777109742">
        <ele>2047.1099999999999</ele>
        <time>2023-01-29T14:17:37Z</time>
      </trkpt>
      <trkpt lat="46.250893352553248" lon="8.020613472908735">
        <ele>2046.1099999999999</ele>
        <time>2023-01-29T14:17:53Z</time>
      </trkpt>
      <trkpt lat="46.250746417790651" lon="8.020698800683022">
        <ele>2045.4100000000001</ele>
        <time>2023-01-29T14:18:11Z</time>
      </trkpt>
      <trkpt lat="46.250640889629722" lon="8.020715648308396">
        <ele>2045.77</ele>
        <time>2023-01-29T14:18:24Z</time>
      </trkpt>
      <trkpt lat="46.250553131103516" lon="8.020779769867659">
        <ele>2044.8399999999999</ele>
        <time>2023-01-29T14:18:37Z</time>
      </trkpt>
      <trkpt lat="46.250493703410029" lon="8.020832492038608">
        <ele>2046.05</ele>
        <time>2023-01-29T14:18:50Z</time>
      </trkpt>
      <trkpt lat="46.250417260453105" lon="8.020898038521409">
        <ele>2047.6700000000001</ele>
        <time>2023-01-29T14:19:03Z</time>
      </trkpt>
      <trkpt lat="46.250385325402021" lon="8.021053690463305">
        <ele>2047.4200000000001</ele>
        <time>2023-01-29T14:19:17Z</time>
      </trkpt>
      <trkpt lat="46.250343583524227" lon="8.021173970773816">
        <ele>2046.3599999999999</ele>
        <time>2023-01-29T14:19:31Z</time>
      </trkpt>
      <trkpt lat="46.250323299318552" lon="8.021218730136752">
        <ele>2045.74</ele>
        <time>2023-01-29T14:19:36Z</time>
      </trkpt>
      <trkpt lat="46.250313073396683" lon="8.021241445094347">
        <ele>2045.45</ele>
        <time>2023-01-29T14:19:38Z</time>
      </trkpt>
      <trkpt lat="46.250246521085501" lon="8.021496254950762">
        <ele>2042.8399999999999</ele>
        <time>2023-01-29T14:19:56Z</time>
      </trkpt>
      <trkpt lat="46.250219531357288" lon="8.021653080359101">
        <ele>2042.0699999999999</ele>
        <time>2023-01-29T14:20:09Z</time>
      </trkpt>
      <trkpt lat="46.250201174989343" lon="8.02183723077178">
        <ele>2039.6199999999999</ele>
        <time>2023-01-29T14:20:23Z</time>
      </trkpt>
      <trkpt lat="46.250212993472815" lon="8.022017357870936">
        <ele>2037.7</ele>
        <time>2023-01-29T14:20:35Z</time>
      </trkpt>
      <trkpt lat="46.250176364555955" lon="8.022207459434867">
        <ele>2035.79</ele>
        <time>2023-01-29T14:20:48Z</time>
      </trkpt>
      <trkpt lat="46.250140992924571" lon="8.022405356168747">
        <ele>2034.47</ele>
        <time>2023-01-29T14:21:01Z</time>
      </trkpt>
      <trkpt lat="46.250098580494523" lon="8.022570060566068">
        <ele>2032.8499999999999</ele>
        <time>2023-01-29T14:21:14Z</time>
      </trkpt>
      <trkpt lat="46.250071758404374" lon="8.022744068875909">
        <ele>2031.6300000000001</ele>
        <time>2023-01-29T14:21:28Z</time>
      </trkpt>
      <trkpt lat="46.250079972669482" lon="8.022880190983415">
        <ele>2029.1900000000001</ele>
        <time>2023-01-29T14:21:41Z</time>
      </trkpt>
      <trkpt lat="46.250077961012721" lon="8.022929308936">
        <ele>2028.2</ele>
        <time>2023-01-29T14:21:45Z</time>
      </trkpt>
      <trkpt lat="46.250073853880167" lon="8.022971637547016">
        <ele>2027.4100000000001</ele>
        <time>2023-01-29T14:21:48Z</time>
      </trkpt>
      <trkpt lat="46.250043427571654" lon="8.023221753537655">
        <ele>2025.2</ele>
        <time>2023-01-29T14:22:04Z</time>
      </trkpt>
      <trkpt lat="46.250005541369319" lon="8.023426691070199">
        <ele>2021.3099999999999</ele>
        <time>2023-01-29T14:22:19Z</time>
      </trkpt>
      <trkpt lat="46.249971427023411" lon="8.023458877578378">
        <ele>2018.9100000000001</ele>
        <time>2023-01-29T14:22:28Z</time>
      </trkpt>
      <trkpt lat="46.249934295192361" lon="8.023491818457842">
        <ele>2016.3099999999999</ele>
        <time>2023-01-29T14:22:39Z</time>
      </trkpt>
      <trkpt lat="46.249921806156635" lon="8.023496931418777">
        <ele>2015.3099999999999</ele>
        <time>2023-01-29T14:22:51Z</time>
      </trkpt>
      <trkpt lat="46.249902360141277" lon="8.023489220067859">
        <ele>2015.04</ele>
        <time>2023-01-29T14:23:06Z</time>
      </trkpt>
      <trkpt lat="46.249836562201381" lon="8.023500116541982">
        <ele>2012.8399999999999</ele>
        <time>2023-01-29T14:23:18Z</time>
      </trkpt>
      <trkpt lat="46.249839160591364" lon="8.023501876741648">
        <ele>2011.8900000000001</ele>
        <time>2023-01-29T14:23:34Z</time>
      </trkpt>
      <trkpt lat="46.249838070943952" lon="8.023507995530963">
        <ele>2011.1400000000001</ele>
        <time>2023-01-29T14:23:46Z</time>
      </trkpt>
      <trkpt lat="46.249792389571667" lon="8.023567004129291">
        <ele>2008.6199999999999</ele>
        <time>2023-01-29T14:23:53Z</time>
      </trkpt>
      <trkpt lat="46.249752072617412" lon="8.023662474006414">
        <ele>2005.21</ele>
        <time>2023-01-29T14:24:05Z</time>
      </trkpt>
      <trkpt lat="46.249755090102553" lon="8.023661719635129">
        <ele>2005.47</ele>
        <time>2023-01-29T14:24:26Z</time>
      </trkpt>
      <trkpt lat="46.249752659350634" lon="8.023670185357332">
        <ele>2004.8800000000001</ele>
        <time>2023-01-29T14:24:47Z</time>
      </trkpt>
      <trkpt lat="46.249747378751636" lon="8.023690218105912">
        <ele>2004.3599999999999</ele>
        <time>2023-01-29T14:24:58Z</time>
      </trkpt>
      <trkpt lat="46.249740086495876" lon="8.023723913356662">
        <ele>2004.49</ele>
        <time>2023-01-29T14:25:10Z</time>
      </trkpt>
      <trkpt lat="46.249731117859483" lon="8.023739587515593">
        <ele>2004.27</ele>
        <time>2023-01-29T14:25:22Z</time>
      </trkpt>
      <trkpt lat="46.249728603288531" lon="8.023732546716929">
        <ele>2004.79</ele>
        <time>2023-01-29T14:25:43Z</time>
      </trkpt>
      <trkpt lat="46.249715108424425" lon="8.023799853399396">
        <ele>2004.53</ele>
        <time>2023-01-29T14:25:54Z</time>
      </trkpt>
      <trkpt lat="46.249695997685194" lon="8.023866405710578">
        <ele>2004.4100000000001</ele>
        <time>2023-01-29T14:26:05Z</time>
      </trkpt>
      <trkpt lat="46.249690297991037" lon="8.02387629635632">
        <ele>2004.77</ele>
        <time>2023-01-29T14:26:15Z</time>
      </trkpt>
      <trkpt lat="46.24968065880239" lon="8.023916278034449">
        <ele>2004.5999999999999</ele>
        <time>2023-01-29T14:26:18Z</time>
      </trkpt>
      <trkpt lat="46.249611927196383" lon="8.024076037108898">
        <ele>2003.25</ele>
        <time>2023-01-29T14:26:32Z</time>
      </trkpt>
      <trkpt lat="46.24960002489388" lon="8.024095231667161">
        <ele>2002.78</ele>
        <time>2023-01-29T14:26:34Z</time>
      </trkpt>
      <trkpt lat="46.249459460377693" lon="8.024144601076841">
        <ele>2001.6500000000001</ele>
        <time>2023-01-29T14:26:48Z</time>
      </trkpt>
      <trkpt lat="46.249334402382374" lon="8.024156922474504">
        <ele>2001.0899999999999</ele>
        <time>2023-01-29T14:27:01Z</time>
      </trkpt>
      <trkpt lat="46.249254774302244" lon="8.024189360439777">
        <ele>2000.5599999999999</ele>
        <time>2023-01-29T14:27:11Z</time>
      </trkpt>
      <trkpt lat="46.249121082946658" lon="8.024213332682848">
        <ele>1997.6700000000001</ele>
        <time>2023-01-29T14:27:24Z</time>
      </trkpt>
      <trkpt lat="46.249007089063525" lon="8.024327494204044">
        <ele>1997.8099999999999</ele>
        <time>2023-01-29T14:27:37Z</time>
      </trkpt>
      <trkpt lat="46.248902399092913" lon="8.024376947432756">
        <ele>1999.0999999999999</ele>
        <time>2023-01-29T14:27:49Z</time>
      </trkpt>
      <trkpt lat="46.248751105740666" lon="8.024401003494859">
        <ele>2000.1500000000001</ele>
        <time>2023-01-29T14:28:06Z</time>
      </trkpt>
      <trkpt lat="46.248615402728319" lon="8.024408128112555">
        <ele>1999.24</ele>
        <time>2023-01-29T14:28:21Z</time>
      </trkpt>
      <trkpt lat="46.248579444363713" lon="8.024418102577329">
        <ele>1999.04</ele>
        <time>2023-01-29T14:28:32Z</time>
      </trkpt>
      <trkpt lat="46.248575337231159" lon="8.024420533329248">
        <ele>1999.05</ele>
        <time>2023-01-29T14:28:37Z</time>
      </trkpt>
      <trkpt lat="46.248557735234499" lon="8.02441474981606">
        <ele>1998.8499999999999</ele>
        <time>2023-01-29T14:28:39Z</time>
      </trkpt>
      <trkpt lat="46.248394204303622" lon="8.02444014698267">
        <ele>1998.1700000000001</ele>
        <time>2023-01-29T14:28:54Z</time>
      </trkpt>
      <trkpt lat="46.248252214863896" lon="8.024499155580998">
        <ele>1997.3199999999999</ele>
        <time>2023-01-29T14:29:09Z</time>
      </trkpt>
      <trkpt lat="46.248099999502301" lon="8.024548776447773">
        <ele>1996.99</ele>
        <time>2023-01-29T14:29:25Z</time>
      </trkpt>
      <trkpt lat="46.247990615665913" lon="8.024603174999356">
        <ele>1997.76</ele>
        <time>2023-01-29T14:29:38Z</time>
      </trkpt>
      <trkpt lat="46.247931523248553" lon="8.024619100615382">
        <ele>1997.6400000000001</ele>
        <time>2023-01-29T14:29:46Z</time>
      </trkpt>
      <trkpt lat="46.247903108596802" lon="8.024620693176985">
        <ele>1996.9300000000001</ele>
        <time>2023-01-29T14:29:49Z</time>
      </trkpt>
      <trkpt lat="46.24777939170599" lon="8.024691771715879">
        <ele>1994.1600000000001</ele>
        <time>2023-01-29T14:30:03Z</time>
      </trkpt>
      <trkpt lat="46.247685430571437" lon="8.024769807234407">
        <ele>1993.1800000000001</ele>
        <time>2023-01-29T14:30:15Z</time>
      </trkpt>
      <trkpt lat="46.247549140825868" lon="8.02483937703073">
        <ele>1992.9100000000001</ele>
        <time>2023-01-29T14:30:29Z</time>
      </trkpt>
      <trkpt lat="46.247420059517026" lon="8.024851782247424">
        <ele>1992.8</ele>
        <time>2023-01-29T14:30:41Z</time>
      </trkpt>
      <trkpt lat="46.247251247987151" lon="8.024873156100512">
        <ele>1992.26</ele>
        <time>2023-01-29T14:30:57Z</time>
      </trkpt>
      <trkpt lat="46.247101044282317" lon="8.024908863008022">
        <ele>1991.97</ele>
        <time>2023-01-29T14:31:12Z</time>
      </trkpt>
      <trkpt lat="46.246958049014211" lon="8.024974325671792">
        <ele>1991.3699999999999</ele>
        <time>2023-01-29T14:31:27Z</time>
      </trkpt>
      <trkpt lat="46.246829386800528" lon="8.025029059499502">
        <ele>1991.49</ele>
        <time>2023-01-29T14:31:41Z</time>
      </trkpt>
      <trkpt lat="46.246681110933423" lon="8.025107514113188">
        <ele>1991.23</ele>
        <time>2023-01-29T14:31:57Z</time>
      </trkpt>
      <trkpt lat="46.246542893350124" lon="8.025208683684468">
        <ele>1990.3900000000001</ele>
        <time>2023-01-29T14:32:12Z</time>
      </trkpt>
      <trkpt lat="46.246508611366153" lon="8.025211365893483">
        <ele>1991.0799999999999</ele>
        <time>2023-01-29T14:32:16Z</time>
      </trkpt>
      <trkpt lat="46.246371986344457" lon="8.025220753625035">
        <ele>1992.8099999999999</ele>
        <time>2023-01-29T14:32:33Z</time>
      </trkpt>
      <trkpt lat="46.246267212554812" lon="8.025202061980963">
        <ele>1994.5699999999999</ele>
        <time>2023-01-29T14:32:49Z</time>
      </trkpt>
      <trkpt lat="46.246224045753479" lon="8.025187728926539">
        <ele>1995.49</ele>
        <time>2023-01-29T14:33:02Z</time>
      </trkpt>
      <trkpt lat="46.246227314695716" lon="8.025186220183969">
        <ele>1995.5899999999999</ele>
        <time>2023-01-29T14:33:18Z</time>
      </trkpt>
      <trkpt lat="46.246225889772177" lon="8.025180688127875">
        <ele>1995.25</ele>
        <time>2023-01-29T14:33:32Z</time>
      </trkpt>
      <trkpt lat="46.24622656032443" lon="8.025173898786306">
        <ele>1995.1700000000001</ele>
        <time>2023-01-29T14:33:49Z</time>
      </trkpt>
      <trkpt lat="46.246228152886033" lon="8.025182532146573">
        <ele>1995.77</ele>
        <time>2023-01-29T14:34:07Z</time>
      </trkpt>
      <trkpt lat="46.246214574202895" lon="8.025173395872116">
        <ele>1995.9200000000001</ele>
        <time>2023-01-29T14:34:20Z</time>
      </trkpt>
      <trkpt lat="46.246197391301394" lon="8.025158811360598">
        <ele>1995.8399999999999</ele>
        <time>2023-01-29T14:34:23Z</time>
      </trkpt>
      <trkpt lat="46.246169311925769" lon="8.025149926543236">
        <ele>1995.72</ele>
        <time>2023-01-29T14:34:26Z</time>
      </trkpt>
      <trkpt lat="46.246117427945137" lon="8.025104161351919">
        <ele>1995.3</ele>
        <time>2023-01-29T14:34:33Z</time>
      </trkpt>
      <trkpt lat="46.246089516207576" lon="8.02507633343339">
        <ele>1995.3099999999999</ele>
        <time>2023-01-29T14:34:36Z</time>
      </trkpt>
      <trkpt lat="46.246028915047646" lon="8.02506267093122">
        <ele>1995.29</ele>
        <time>2023-01-29T14:34:41Z</time>
      </trkpt>
      <trkpt lat="46.245965296402574" lon="8.025016486644745">
        <ele>1994.7</ele>
        <time>2023-01-29T14:34:48Z</time>
      </trkpt>
      <trkpt lat="46.245943922549486" lon="8.024989664554596">
        <ele>1994.6400000000001</ele>
        <time>2023-01-29T14:34:59Z</time>
      </trkpt>
      <trkpt lat="46.245943335816264" lon="8.02494783885777">
        <ele>1994.9200000000001</ele>
        <time>2023-01-29T14:35:09Z</time>
      </trkpt>
      <trkpt lat="46.245940988883376" lon="8.024880029261112">
        <ele>1995.74</ele>
        <time>2023-01-29T14:35:13Z</time>
      </trkpt>
      <trkpt lat="46.24591969884932" lon="8.024979270994663">
        <ele>1996.22</ele>
        <time>2023-01-29T14:35:23Z</time>
      </trkpt>
      <trkpt lat="46.245925817638636" lon="8.02497030235827">
        <ele>1995.8900000000001</ele>
        <time>2023-01-29T14:35:25Z</time>
      </trkpt>
      <trkpt lat="46.245916681364179" lon="8.024903414770961">
        <ele>1995.6900000000001</ele>
        <time>2023-01-29T14:35:36Z</time>
      </trkpt>
      <trkpt lat="46.245919028297067" lon="8.02490190602839">
        <ele>1996.4300000000001</ele>
        <time>2023-01-29T14:35:52Z</time>
      </trkpt>
    </trkseg>
  </trk>

</gpx>